<?xml version="1.0" encoding="UTF-8" standalone="no" ?>
<gpx xmlns="http://www.topografix.com/GPX/1/1" xmlns:xsi="http://www.w3.org/2001/XMLSchema-instance" xsi:schemaLocation="http://www.topografix.com/GPX/1/1 http://www.topografix.com/GPX/1/1/gpx.xsd" version="1.1" creator="VisuGPX - https://www.visugpx.com">
  <metadata>
    <name>Aziré 9,4 km</name>
    <desc><![CDATA[Attention passage par bâteau à chaine pas toujours opérationnel !!!
vers km 3,24]]></desc>
  </metadata>
  <wpt lat="46.36477" lon="-0.64035">
    <ele>4</ele>
  </wpt>
  <wpt lat="46.36382" lon="-0.64271">
    <ele>3</ele>
  </wpt>
  <wpt lat="46.36292" lon="-0.64937">
    <ele>2.4</ele>
  </wpt>
  <wpt lat="46.36575" lon="-0.6485">
    <ele>2.2</ele>
  </wpt>
  <wpt lat="46.3666" lon="-0.6515">
    <ele>2</ele>
  </wpt>
  <wpt lat="46.36901" lon="-0.6563">
    <ele>2.8</ele>
  </wpt>
  <wpt lat="46.36941" lon="-0.66891">
    <ele>2</ele>
  </wpt>
  <wpt lat="46.36986" lon="-0.67034">
    <ele>2</ele>
  </wpt>
  <wpt lat="46.3717" lon="-0.67883">
    <ele>2.1</ele>
  </wpt>
  <wpt lat="46.36198" lon="-0.6857">
    <ele>2.5</ele>
  </wpt>
  <wpt lat="46.36043" lon="-0.68579">
    <ele>3</ele>
  </wpt>
  <wpt lat="46.3605" lon="-0.68527">
    <ele>3</ele>
  </wpt>
  <wpt lat="46.35996" lon="-0.67336">
    <ele>3</ele>
  </wpt>
  <wpt lat="46.35939" lon="-0.66635">
    <ele>3</ele>
  </wpt>
  <wpt lat="46.36255" lon="-0.65006">
    <ele>2.4</ele>
  </wpt>
  <wpt lat="46.36422" lon="-0.64118">
    <ele>2.4</ele>
  </wpt>
  <trk>
    <name><![CDATA[Aziré 9,4 km_1]]></name>
    <trkseg>
      <trkpt lat="46.36479" lon="-0.6404">
        <ele>52</ele>
        <time>2012-06-22T09:20:39Z</time>
      </trkpt>
      <trkpt lat="46.36477" lon="-0.64035">
        <ele>53</ele>
        <time>2012-06-22T09:20:44Z</time>
      </trkpt>
      <trkpt lat="46.36472" lon="-0.6403">
        <ele>54</ele>
        <time>2012-06-22T09:20:49Z</time>
      </trkpt>
      <trkpt lat="46.36469" lon="-0.64029">
        <ele>55</ele>
        <time>2012-06-22T09:20:54Z</time>
      </trkpt>
      <trkpt lat="46.3647" lon="-0.64029">
        <ele>55</ele>
        <time>2012-06-22T09:20:59Z</time>
      </trkpt>
      <trkpt lat="46.36473" lon="-0.64032">
        <ele>55</ele>
        <time>2012-06-22T09:21:04Z</time>
      </trkpt>
      <trkpt lat="46.36477" lon="-0.64036">
        <ele>55</ele>
        <time>2012-06-22T09:21:09Z</time>
      </trkpt>
      <trkpt lat="46.36473" lon="-0.64045">
        <ele>53</ele>
        <time>2012-06-22T09:31:12Z</time>
      </trkpt>
      <trkpt lat="46.36475" lon="-0.64048">
        <ele>54</ele>
        <time>2012-06-22T09:31:27Z</time>
      </trkpt>
      <trkpt lat="46.36476" lon="-0.64044">
        <ele>53</ele>
        <time>2012-06-22T09:31:32Z</time>
      </trkpt>
      <trkpt lat="46.36477" lon="-0.64043">
        <ele>54</ele>
        <time>2012-06-22T09:31:37Z</time>
      </trkpt>
      <trkpt lat="46.36476" lon="-0.64044">
        <ele>54</ele>
        <time>2012-06-22T09:31:42Z</time>
      </trkpt>
      <trkpt lat="46.36476" lon="-0.64043">
        <ele>53</ele>
        <time>2012-06-22T09:31:52Z</time>
      </trkpt>
      <trkpt lat="46.36476" lon="-0.64043">
        <ele>52</ele>
        <time>2012-06-22T09:31:57Z</time>
      </trkpt>
      <trkpt lat="46.36476" lon="-0.64045">
        <ele>53</ele>
        <time>2012-06-22T09:32:02Z</time>
      </trkpt>
      <trkpt lat="46.36476" lon="-0.64045">
        <ele>52</ele>
        <time>2012-06-22T09:32:12Z</time>
      </trkpt>
      <trkpt lat="46.36476" lon="-0.64046">
        <ele>52</ele>
        <time>2012-06-22T09:32:17Z</time>
      </trkpt>
      <trkpt lat="46.36476" lon="-0.64049">
        <ele>52</ele>
        <time>2012-06-22T09:32:22Z</time>
      </trkpt>
      <trkpt lat="46.36476" lon="-0.64047">
        <ele>52</ele>
        <time>2012-06-22T09:32:37Z</time>
      </trkpt>
      <trkpt lat="46.36479" lon="-0.64043">
        <ele>51</ele>
        <time>2012-06-22T09:32:42Z</time>
      </trkpt>
      <trkpt lat="46.36479" lon="-0.64035">
        <ele>52</ele>
        <time>2012-06-22T09:32:47Z</time>
      </trkpt>
      <trkpt lat="46.36477" lon="-0.64032">
        <ele>52</ele>
        <time>2012-06-22T09:32:52Z</time>
      </trkpt>
      <trkpt lat="46.36472" lon="-0.64028">
        <ele>53</ele>
        <time>2012-06-22T09:32:57Z</time>
      </trkpt>
      <trkpt lat="46.36469" lon="-0.6403">
        <ele>52</ele>
        <time>2012-06-22T09:33:02Z</time>
      </trkpt>
      <trkpt lat="46.36465" lon="-0.64037">
        <ele>53</ele>
        <time>2012-06-22T09:33:07Z</time>
      </trkpt>
      <trkpt lat="46.36463" lon="-0.64043">
        <ele>51</ele>
        <time>2012-06-22T09:33:12Z</time>
      </trkpt>
      <trkpt lat="46.36462" lon="-0.64048">
        <ele>50</ele>
        <time>2012-06-22T09:33:17Z</time>
      </trkpt>
      <trkpt lat="46.36461" lon="-0.64051">
        <ele>49</ele>
        <time>2012-06-22T09:33:22Z</time>
      </trkpt>
      <trkpt lat="46.36461" lon="-0.64052">
        <ele>49</ele>
        <time>2012-06-22T09:33:27Z</time>
      </trkpt>
      <trkpt lat="46.36459" lon="-0.64054">
        <ele>49</ele>
        <time>2012-06-22T09:33:32Z</time>
      </trkpt>
      <trkpt lat="46.36453" lon="-0.64063">
        <ele>47</ele>
        <time>2012-06-22T09:33:37Z</time>
      </trkpt>
      <trkpt lat="46.36449" lon="-0.6407">
        <ele>46</ele>
        <time>2012-06-22T09:33:42Z</time>
      </trkpt>
      <trkpt lat="46.36449" lon="-0.64071">
        <ele>45</ele>
        <time>2012-06-22T09:33:47Z</time>
      </trkpt>
      <trkpt lat="46.36447" lon="-0.64079">
        <ele>46</ele>
        <time>2012-06-22T09:33:52Z</time>
      </trkpt>
      <trkpt lat="46.36442" lon="-0.64084">
        <ele>47</ele>
        <time>2012-06-22T09:33:57Z</time>
      </trkpt>
      <trkpt lat="46.36438" lon="-0.64089">
        <ele>49</ele>
        <time>2012-06-22T09:34:02Z</time>
      </trkpt>
      <trkpt lat="46.36437" lon="-0.64091">
        <ele>51</ele>
        <time>2012-06-22T09:34:07Z</time>
      </trkpt>
      <trkpt lat="46.36432" lon="-0.64104">
        <ele>50</ele>
        <time>2012-06-22T09:34:12Z</time>
      </trkpt>
      <trkpt lat="46.36429" lon="-0.6411">
        <ele>48</ele>
        <time>2012-06-22T09:34:17Z</time>
      </trkpt>
      <trkpt lat="46.36426" lon="-0.64111">
        <ele>49</ele>
        <time>2012-06-22T09:34:22Z</time>
      </trkpt>
      <trkpt lat="46.36425" lon="-0.64111">
        <ele>49</ele>
        <time>2012-06-22T09:34:27Z</time>
      </trkpt>
      <trkpt lat="46.36425" lon="-0.64111">
        <ele>50</ele>
        <time>2012-06-22T09:34:32Z</time>
      </trkpt>
      <trkpt lat="46.36425" lon="-0.64112">
        <ele>49</ele>
        <time>2012-06-22T09:34:37Z</time>
      </trkpt>
      <trkpt lat="46.36424" lon="-0.64113">
        <ele>49</ele>
        <time>2012-06-22T09:34:42Z</time>
      </trkpt>
      <trkpt lat="46.36425" lon="-0.64113">
        <ele>49</ele>
        <time>2012-06-22T09:34:47Z</time>
      </trkpt>
      <trkpt lat="46.36425" lon="-0.64112">
        <ele>49</ele>
        <time>2012-06-22T09:34:52Z</time>
      </trkpt>
      <trkpt lat="46.36424" lon="-0.64112">
        <ele>50</ele>
        <time>2012-06-22T09:34:57Z</time>
      </trkpt>
      <trkpt lat="46.36425" lon="-0.64112">
        <ele>50</ele>
        <time>2012-06-22T09:35:07Z</time>
      </trkpt>
      <trkpt lat="46.36425" lon="-0.64112">
        <ele>50</ele>
        <time>2012-06-22T09:35:37Z</time>
      </trkpt>
      <trkpt lat="46.36426" lon="-0.64116">
        <ele>49</ele>
        <time>2012-06-22T09:35:42Z</time>
      </trkpt>
      <trkpt lat="46.36426" lon="-0.6412">
        <ele>49</ele>
        <time>2012-06-22T09:35:47Z</time>
      </trkpt>
      <trkpt lat="46.36425" lon="-0.64126">
        <ele>51</ele>
        <time>2012-06-22T09:35:52Z</time>
      </trkpt>
      <trkpt lat="46.36422" lon="-0.64129">
        <ele>50</ele>
        <time>2012-06-22T09:35:57Z</time>
      </trkpt>
      <trkpt lat="46.36418" lon="-0.64132">
        <ele>49</ele>
        <time>2012-06-22T09:36:02Z</time>
      </trkpt>
      <trkpt lat="46.36414" lon="-0.64139">
        <ele>50</ele>
        <time>2012-06-22T09:36:07Z</time>
      </trkpt>
      <trkpt lat="46.36412" lon="-0.64143">
        <ele>49</ele>
        <time>2012-06-22T09:36:12Z</time>
      </trkpt>
      <trkpt lat="46.36412" lon="-0.64148">
        <ele>48</ele>
        <time>2012-06-22T09:36:17Z</time>
      </trkpt>
      <trkpt lat="46.36409" lon="-0.64155">
        <ele>49</ele>
        <time>2012-06-22T09:36:22Z</time>
      </trkpt>
      <trkpt lat="46.36407" lon="-0.64162">
        <ele>50</ele>
        <time>2012-06-22T09:36:27Z</time>
      </trkpt>
      <trkpt lat="46.36407" lon="-0.64171">
        <ele>50</ele>
        <time>2012-06-22T09:36:32Z</time>
      </trkpt>
      <trkpt lat="46.36405" lon="-0.64176">
        <ele>50</ele>
        <time>2012-06-22T09:36:37Z</time>
      </trkpt>
      <trkpt lat="46.36404" lon="-0.6418">
        <ele>49</ele>
        <time>2012-06-22T09:36:42Z</time>
      </trkpt>
      <trkpt lat="46.36404" lon="-0.64186">
        <ele>50</ele>
        <time>2012-06-22T09:36:47Z</time>
      </trkpt>
      <trkpt lat="46.364" lon="-0.64194">
        <ele>50</ele>
        <time>2012-06-22T09:36:52Z</time>
      </trkpt>
      <trkpt lat="46.36398" lon="-0.64201">
        <ele>50</ele>
        <time>2012-06-22T09:36:57Z</time>
      </trkpt>
      <trkpt lat="46.36396" lon="-0.64208">
        <ele>49</ele>
        <time>2012-06-22T09:37:02Z</time>
      </trkpt>
      <trkpt lat="46.36395" lon="-0.64215">
        <ele>49</ele>
        <time>2012-06-22T09:37:07Z</time>
      </trkpt>
      <trkpt lat="46.36393" lon="-0.64222">
        <ele>50</ele>
        <time>2012-06-22T09:37:12Z</time>
      </trkpt>
      <trkpt lat="46.36391" lon="-0.64228">
        <ele>50</ele>
        <time>2012-06-22T09:37:17Z</time>
      </trkpt>
      <trkpt lat="46.36392" lon="-0.64233">
        <ele>49</ele>
        <time>2012-06-22T09:37:22Z</time>
      </trkpt>
      <trkpt lat="46.36391" lon="-0.64239">
        <ele>50</ele>
        <time>2012-06-22T09:37:27Z</time>
      </trkpt>
      <trkpt lat="46.36389" lon="-0.64245">
        <ele>52</ele>
        <time>2012-06-22T09:37:32Z</time>
      </trkpt>
      <trkpt lat="46.36387" lon="-0.64253">
        <ele>53</ele>
        <time>2012-06-22T09:37:37Z</time>
      </trkpt>
      <trkpt lat="46.36385" lon="-0.6426">
        <ele>52</ele>
        <time>2012-06-22T09:37:42Z</time>
      </trkpt>
      <trkpt lat="46.36383" lon="-0.64266">
        <ele>52</ele>
        <time>2012-06-22T09:37:47Z</time>
      </trkpt>
      <trkpt lat="46.36382" lon="-0.64271">
        <ele>54</ele>
        <time>2012-06-22T09:37:52Z</time>
      </trkpt>
      <trkpt lat="46.3638" lon="-0.6428">
        <ele>56</ele>
        <time>2012-06-22T09:37:57Z</time>
      </trkpt>
      <trkpt lat="46.3638" lon="-0.64285">
        <ele>56</ele>
        <time>2012-06-22T09:38:02Z</time>
      </trkpt>
      <trkpt lat="46.36378" lon="-0.64291">
        <ele>57</ele>
        <time>2012-06-22T09:38:07Z</time>
      </trkpt>
      <trkpt lat="46.36377" lon="-0.64298">
        <ele>56</ele>
        <time>2012-06-22T09:38:12Z</time>
      </trkpt>
      <trkpt lat="46.36377" lon="-0.64302">
        <ele>57</ele>
        <time>2012-06-22T09:38:17Z</time>
      </trkpt>
      <trkpt lat="46.36376" lon="-0.64309">
        <ele>57</ele>
        <time>2012-06-22T09:38:22Z</time>
      </trkpt>
      <trkpt lat="46.36372" lon="-0.64317">
        <ele>58</ele>
        <time>2012-06-22T09:38:27Z</time>
      </trkpt>
      <trkpt lat="46.36371" lon="-0.64324">
        <ele>58</ele>
        <time>2012-06-22T09:38:32Z</time>
      </trkpt>
      <trkpt lat="46.36368" lon="-0.64334">
        <ele>60</ele>
        <time>2012-06-22T09:38:37Z</time>
      </trkpt>
      <trkpt lat="46.36368" lon="-0.6434">
        <ele>56</ele>
        <time>2012-06-22T09:38:42Z</time>
      </trkpt>
      <trkpt lat="46.36369" lon="-0.64344">
        <ele>51</ele>
        <time>2012-06-22T09:38:47Z</time>
      </trkpt>
      <trkpt lat="46.36368" lon="-0.64349">
        <ele>53</ele>
        <time>2012-06-22T09:38:52Z</time>
      </trkpt>
      <trkpt lat="46.36367" lon="-0.64357">
        <ele>52</ele>
        <time>2012-06-22T09:38:57Z</time>
      </trkpt>
      <trkpt lat="46.36367" lon="-0.64364">
        <ele>52</ele>
        <time>2012-06-22T09:39:02Z</time>
      </trkpt>
      <trkpt lat="46.36364" lon="-0.64376">
        <ele>52</ele>
        <time>2012-06-22T09:39:07Z</time>
      </trkpt>
      <trkpt lat="46.36362" lon="-0.64385">
        <ele>53</ele>
        <time>2012-06-22T09:39:12Z</time>
      </trkpt>
      <trkpt lat="46.36363" lon="-0.64392">
        <ele>53</ele>
        <time>2012-06-22T09:39:17Z</time>
      </trkpt>
      <trkpt lat="46.36359" lon="-0.64399">
        <ele>54</ele>
        <time>2012-06-22T09:39:22Z</time>
      </trkpt>
      <trkpt lat="46.36358" lon="-0.64406">
        <ele>57</ele>
        <time>2012-06-22T09:39:27Z</time>
      </trkpt>
      <trkpt lat="46.36357" lon="-0.64413">
        <ele>61</ele>
        <time>2012-06-22T09:39:32Z</time>
      </trkpt>
      <trkpt lat="46.36354" lon="-0.64421">
        <ele>62</ele>
        <time>2012-06-22T09:39:37Z</time>
      </trkpt>
      <trkpt lat="46.36352" lon="-0.6443">
        <ele>64</ele>
        <time>2012-06-22T09:39:42Z</time>
      </trkpt>
      <trkpt lat="46.3635" lon="-0.64436">
        <ele>63</ele>
        <time>2012-06-22T09:39:47Z</time>
      </trkpt>
      <trkpt lat="46.36347" lon="-0.64442">
        <ele>64</ele>
        <time>2012-06-22T09:39:52Z</time>
      </trkpt>
      <trkpt lat="46.36348" lon="-0.64448">
        <ele>59</ele>
        <time>2012-06-22T09:39:57Z</time>
      </trkpt>
      <trkpt lat="46.36347" lon="-0.64452">
        <ele>57</ele>
        <time>2012-06-22T09:40:02Z</time>
      </trkpt>
      <trkpt lat="46.36347" lon="-0.6446">
        <ele>57</ele>
        <time>2012-06-22T09:40:07Z</time>
      </trkpt>
      <trkpt lat="46.36347" lon="-0.64467">
        <ele>55</ele>
        <time>2012-06-22T09:40:12Z</time>
      </trkpt>
      <trkpt lat="46.36347" lon="-0.64473">
        <ele>55</ele>
        <time>2012-06-22T09:40:17Z</time>
      </trkpt>
      <trkpt lat="46.36345" lon="-0.64477">
        <ele>55</ele>
        <time>2012-06-22T09:40:22Z</time>
      </trkpt>
      <trkpt lat="46.36343" lon="-0.64484">
        <ele>52</ele>
        <time>2012-06-22T09:40:27Z</time>
      </trkpt>
      <trkpt lat="46.36341" lon="-0.64492">
        <ele>51</ele>
        <time>2012-06-22T09:40:32Z</time>
      </trkpt>
      <trkpt lat="46.36341" lon="-0.64495">
        <ele>51</ele>
        <time>2012-06-22T09:40:37Z</time>
      </trkpt>
      <trkpt lat="46.36338" lon="-0.64502">
        <ele>52</ele>
        <time>2012-06-22T09:40:42Z</time>
      </trkpt>
      <trkpt lat="46.36336" lon="-0.64508">
        <ele>51</ele>
        <time>2012-06-22T09:40:47Z</time>
      </trkpt>
      <trkpt lat="46.36335" lon="-0.64515">
        <ele>52</ele>
        <time>2012-06-22T09:40:52Z</time>
      </trkpt>
      <trkpt lat="46.36332" lon="-0.64523">
        <ele>52</ele>
        <time>2012-06-22T09:40:57Z</time>
      </trkpt>
      <trkpt lat="46.36332" lon="-0.6453">
        <ele>50</ele>
        <time>2012-06-22T09:41:02Z</time>
      </trkpt>
      <trkpt lat="46.36331" lon="-0.64533">
        <ele>47</ele>
        <time>2012-06-22T09:41:07Z</time>
      </trkpt>
      <trkpt lat="46.36329" lon="-0.6454">
        <ele>47</ele>
        <time>2012-06-22T09:41:12Z</time>
      </trkpt>
      <trkpt lat="46.36327" lon="-0.64548">
        <ele>48</ele>
        <time>2012-06-22T09:41:17Z</time>
      </trkpt>
      <trkpt lat="46.36324" lon="-0.64556">
        <ele>50</ele>
        <time>2012-06-22T09:41:22Z</time>
      </trkpt>
      <trkpt lat="46.36324" lon="-0.64563">
        <ele>49</ele>
        <time>2012-06-22T09:41:27Z</time>
      </trkpt>
      <trkpt lat="46.36323" lon="-0.64568">
        <ele>49</ele>
        <time>2012-06-22T09:41:32Z</time>
      </trkpt>
      <trkpt lat="46.36321" lon="-0.64575">
        <ele>49</ele>
        <time>2012-06-22T09:41:37Z</time>
      </trkpt>
      <trkpt lat="46.36318" lon="-0.6458">
        <ele>49</ele>
        <time>2012-06-22T09:41:42Z</time>
      </trkpt>
      <trkpt lat="46.36317" lon="-0.64587">
        <ele>50</ele>
        <time>2012-06-22T09:41:47Z</time>
      </trkpt>
      <trkpt lat="46.36314" lon="-0.64597">
        <ele>50</ele>
        <time>2012-06-22T09:41:52Z</time>
      </trkpt>
      <trkpt lat="46.36311" lon="-0.64603">
        <ele>49</ele>
        <time>2012-06-22T09:41:57Z</time>
      </trkpt>
      <trkpt lat="46.36306" lon="-0.64609">
        <ele>48</ele>
        <time>2012-06-22T09:42:02Z</time>
      </trkpt>
      <trkpt lat="46.36305" lon="-0.64617">
        <ele>49</ele>
        <time>2012-06-22T09:42:07Z</time>
      </trkpt>
      <trkpt lat="46.36304" lon="-0.64622">
        <ele>49</ele>
        <time>2012-06-22T09:42:12Z</time>
      </trkpt>
      <trkpt lat="46.36304" lon="-0.64627">
        <ele>51</ele>
        <time>2012-06-22T09:42:17Z</time>
      </trkpt>
      <trkpt lat="46.36303" lon="-0.64635">
        <ele>52</ele>
        <time>2012-06-22T09:42:22Z</time>
      </trkpt>
      <trkpt lat="46.36299" lon="-0.64644">
        <ele>58</ele>
        <time>2012-06-22T09:42:27Z</time>
      </trkpt>
      <trkpt lat="46.36297" lon="-0.64651">
        <ele>60</ele>
        <time>2012-06-22T09:42:32Z</time>
      </trkpt>
      <trkpt lat="46.363" lon="-0.64657">
        <ele>61</ele>
        <time>2012-06-22T09:42:37Z</time>
      </trkpt>
      <trkpt lat="46.36298" lon="-0.64661">
        <ele>60</ele>
        <time>2012-06-22T09:42:42Z</time>
      </trkpt>
      <trkpt lat="46.36298" lon="-0.6467">
        <ele>58</ele>
        <time>2012-06-22T09:42:47Z</time>
      </trkpt>
      <trkpt lat="46.36297" lon="-0.64679">
        <ele>57</ele>
        <time>2012-06-22T09:42:52Z</time>
      </trkpt>
      <trkpt lat="46.36296" lon="-0.64687">
        <ele>55</ele>
        <time>2012-06-22T09:42:57Z</time>
      </trkpt>
      <trkpt lat="46.363" lon="-0.64691">
        <ele>53</ele>
        <time>2012-06-22T09:43:02Z</time>
      </trkpt>
      <trkpt lat="46.36299" lon="-0.64699">
        <ele>53</ele>
        <time>2012-06-22T09:43:07Z</time>
      </trkpt>
      <trkpt lat="46.36295" lon="-0.64708">
        <ele>53</ele>
        <time>2012-06-22T09:43:12Z</time>
      </trkpt>
      <trkpt lat="46.36293" lon="-0.64716">
        <ele>53</ele>
        <time>2012-06-22T09:43:17Z</time>
      </trkpt>
      <trkpt lat="46.36292" lon="-0.64724">
        <ele>55</ele>
        <time>2012-06-22T09:43:22Z</time>
      </trkpt>
      <trkpt lat="46.3629" lon="-0.64729">
        <ele>56</ele>
        <time>2012-06-22T09:43:27Z</time>
      </trkpt>
      <trkpt lat="46.36289" lon="-0.64737">
        <ele>58</ele>
        <time>2012-06-22T09:43:32Z</time>
      </trkpt>
      <trkpt lat="46.3629" lon="-0.64746">
        <ele>58</ele>
        <time>2012-06-22T09:43:37Z</time>
      </trkpt>
      <trkpt lat="46.36287" lon="-0.64753">
        <ele>59</ele>
        <time>2012-06-22T09:43:42Z</time>
      </trkpt>
      <trkpt lat="46.36286" lon="-0.64762">
        <ele>58</ele>
        <time>2012-06-22T09:43:47Z</time>
      </trkpt>
      <trkpt lat="46.36286" lon="-0.64769">
        <ele>58</ele>
        <time>2012-06-22T09:43:52Z</time>
      </trkpt>
      <trkpt lat="46.36288" lon="-0.64775">
        <ele>56</ele>
        <time>2012-06-22T09:43:57Z</time>
      </trkpt>
      <trkpt lat="46.36285" lon="-0.64783">
        <ele>57</ele>
        <time>2012-06-22T09:44:02Z</time>
      </trkpt>
      <trkpt lat="46.36285" lon="-0.64787">
        <ele>55</ele>
        <time>2012-06-22T09:44:07Z</time>
      </trkpt>
      <trkpt lat="46.36285" lon="-0.64795">
        <ele>55</ele>
        <time>2012-06-22T09:44:12Z</time>
      </trkpt>
      <trkpt lat="46.36285" lon="-0.64801">
        <ele>56</ele>
        <time>2012-06-22T09:44:17Z</time>
      </trkpt>
      <trkpt lat="46.36283" lon="-0.64807">
        <ele>56</ele>
        <time>2012-06-22T09:44:22Z</time>
      </trkpt>
      <trkpt lat="46.36286" lon="-0.64811">
        <ele>55</ele>
        <time>2012-06-22T09:44:27Z</time>
      </trkpt>
      <trkpt lat="46.36285" lon="-0.64817">
        <ele>54</ele>
        <time>2012-06-22T09:44:32Z</time>
      </trkpt>
      <trkpt lat="46.36283" lon="-0.64824">
        <ele>53</ele>
        <time>2012-06-22T09:44:37Z</time>
      </trkpt>
      <trkpt lat="46.36281" lon="-0.64834">
        <ele>54</ele>
        <time>2012-06-22T09:44:42Z</time>
      </trkpt>
      <trkpt lat="46.36277" lon="-0.64844">
        <ele>56</ele>
        <time>2012-06-22T09:44:47Z</time>
      </trkpt>
      <trkpt lat="46.36277" lon="-0.6485">
        <ele>57</ele>
        <time>2012-06-22T09:44:52Z</time>
      </trkpt>
      <trkpt lat="46.36277" lon="-0.6486">
        <ele>58</ele>
        <time>2012-06-22T09:44:57Z</time>
      </trkpt>
      <trkpt lat="46.36276" lon="-0.64867">
        <ele>59</ele>
        <time>2012-06-22T09:45:02Z</time>
      </trkpt>
      <trkpt lat="46.36275" lon="-0.64874">
        <ele>59</ele>
        <time>2012-06-22T09:45:07Z</time>
      </trkpt>
      <trkpt lat="46.36274" lon="-0.64879">
        <ele>59</ele>
        <time>2012-06-22T09:45:12Z</time>
      </trkpt>
      <trkpt lat="46.36273" lon="-0.64887">
        <ele>58</ele>
        <time>2012-06-22T09:45:17Z</time>
      </trkpt>
      <trkpt lat="46.36272" lon="-0.64892">
        <ele>59</ele>
        <time>2012-06-22T09:45:22Z</time>
      </trkpt>
      <trkpt lat="46.3627" lon="-0.64899">
        <ele>59</ele>
        <time>2012-06-22T09:45:27Z</time>
      </trkpt>
      <trkpt lat="46.36269" lon="-0.64907">
        <ele>59</ele>
        <time>2012-06-22T09:45:32Z</time>
      </trkpt>
      <trkpt lat="46.36265" lon="-0.64914">
        <ele>58</ele>
        <time>2012-06-22T09:45:37Z</time>
      </trkpt>
      <trkpt lat="46.36264" lon="-0.6492">
        <ele>58</ele>
        <time>2012-06-22T09:45:42Z</time>
      </trkpt>
      <trkpt lat="46.36263" lon="-0.64927">
        <ele>59</ele>
        <time>2012-06-22T09:45:47Z</time>
      </trkpt>
      <trkpt lat="46.36264" lon="-0.64934">
        <ele>59</ele>
        <time>2012-06-22T09:45:52Z</time>
      </trkpt>
      <trkpt lat="46.36263" lon="-0.64938">
        <ele>57</ele>
        <time>2012-06-22T09:45:57Z</time>
      </trkpt>
      <trkpt lat="46.36261" lon="-0.64942">
        <ele>58</ele>
        <time>2012-06-22T09:46:02Z</time>
      </trkpt>
      <trkpt lat="46.36259" lon="-0.64942">
        <ele>58</ele>
        <time>2012-06-22T09:46:12Z</time>
      </trkpt>
      <trkpt lat="46.36258" lon="-0.64945">
        <ele>58</ele>
        <time>2012-06-22T09:46:17Z</time>
      </trkpt>
      <trkpt lat="46.36258" lon="-0.64944">
        <ele>58</ele>
        <time>2012-06-22T09:46:27Z</time>
      </trkpt>
      <trkpt lat="46.36259" lon="-0.64943">
        <ele>57</ele>
        <time>2012-06-22T09:46:37Z</time>
      </trkpt>
      <trkpt lat="46.36261" lon="-0.64937">
        <ele>57</ele>
        <time>2012-06-22T09:46:42Z</time>
      </trkpt>
      <trkpt lat="46.36262" lon="-0.64938">
        <ele>56</ele>
        <time>2012-06-22T09:46:47Z</time>
      </trkpt>
      <trkpt lat="46.36266" lon="-0.64936">
        <ele>56</ele>
        <time>2012-06-22T09:46:52Z</time>
      </trkpt>
      <trkpt lat="46.36266" lon="-0.64937">
        <ele>56</ele>
        <time>2012-06-22T09:46:57Z</time>
      </trkpt>
      <trkpt lat="46.36271" lon="-0.64942">
        <ele>55</ele>
        <time>2012-06-22T09:47:02Z</time>
      </trkpt>
      <trkpt lat="46.36275" lon="-0.64942">
        <ele>53</ele>
        <time>2012-06-22T09:47:07Z</time>
      </trkpt>
      <trkpt lat="46.36279" lon="-0.64942">
        <ele>53</ele>
        <time>2012-06-22T09:47:12Z</time>
      </trkpt>
      <trkpt lat="46.36283" lon="-0.64941">
        <ele>53</ele>
        <time>2012-06-22T09:47:17Z</time>
      </trkpt>
      <trkpt lat="46.36286" lon="-0.6494">
        <ele>53</ele>
        <time>2012-06-22T09:47:22Z</time>
      </trkpt>
      <trkpt lat="46.36291" lon="-0.64938">
        <ele>53</ele>
        <time>2012-06-22T09:47:27Z</time>
      </trkpt>
      <trkpt lat="46.36293" lon="-0.64936">
        <ele>53</ele>
        <time>2012-06-22T09:47:32Z</time>
      </trkpt>
      <trkpt lat="46.36294" lon="-0.64936">
        <ele>54</ele>
        <time>2012-06-22T09:47:37Z</time>
      </trkpt>
      <trkpt lat="46.36295" lon="-0.64935">
        <ele>54</ele>
        <time>2012-06-22T09:47:42Z</time>
      </trkpt>
      <trkpt lat="46.36299" lon="-0.64928">
        <ele>54</ele>
        <time>2012-06-22T09:47:47Z</time>
      </trkpt>
      <trkpt lat="46.36304" lon="-0.64923">
        <ele>52</ele>
        <time>2012-06-22T09:47:52Z</time>
      </trkpt>
      <trkpt lat="46.36307" lon="-0.64921">
        <ele>51</ele>
        <time>2012-06-22T09:47:57Z</time>
      </trkpt>
      <trkpt lat="46.36307" lon="-0.6492">
        <ele>50</ele>
        <time>2012-06-22T09:48:02Z</time>
      </trkpt>
      <trkpt lat="46.36309" lon="-0.64919">
        <ele>51</ele>
        <time>2012-06-22T09:48:07Z</time>
      </trkpt>
      <trkpt lat="46.36316" lon="-0.64913">
        <ele>51</ele>
        <time>2012-06-22T09:48:12Z</time>
      </trkpt>
      <trkpt lat="46.3632" lon="-0.64907">
        <ele>51</ele>
        <time>2012-06-22T09:48:17Z</time>
      </trkpt>
      <trkpt lat="46.36321" lon="-0.64901">
        <ele>50</ele>
        <time>2012-06-22T09:48:22Z</time>
      </trkpt>
      <trkpt lat="46.36326" lon="-0.64898">
        <ele>50</ele>
        <time>2012-06-22T09:48:27Z</time>
      </trkpt>
      <trkpt lat="46.36331" lon="-0.64891">
        <ele>49</ele>
        <time>2012-06-22T09:48:32Z</time>
      </trkpt>
      <trkpt lat="46.36336" lon="-0.64886">
        <ele>50</ele>
        <time>2012-06-22T09:48:37Z</time>
      </trkpt>
      <trkpt lat="46.36341" lon="-0.64882">
        <ele>50</ele>
        <time>2012-06-22T09:48:42Z</time>
      </trkpt>
      <trkpt lat="46.36344" lon="-0.64878">
        <ele>52</ele>
        <time>2012-06-22T09:48:47Z</time>
      </trkpt>
      <trkpt lat="46.36347" lon="-0.64877">
        <ele>52</ele>
        <time>2012-06-22T09:48:52Z</time>
      </trkpt>
      <trkpt lat="46.36352" lon="-0.64872">
        <ele>52</ele>
        <time>2012-06-22T09:48:57Z</time>
      </trkpt>
      <trkpt lat="46.36354" lon="-0.64869">
        <ele>53</ele>
        <time>2012-06-22T09:49:02Z</time>
      </trkpt>
      <trkpt lat="46.36354" lon="-0.64869">
        <ele>53</ele>
        <time>2012-06-22T09:49:12Z</time>
      </trkpt>
      <trkpt lat="46.36358" lon="-0.64865">
        <ele>54</ele>
        <time>2012-06-22T09:49:27Z</time>
      </trkpt>
      <trkpt lat="46.36361" lon="-0.64862">
        <ele>53</ele>
        <time>2012-06-22T09:49:32Z</time>
      </trkpt>
      <trkpt lat="46.36363" lon="-0.64857">
        <ele>54</ele>
        <time>2012-06-22T09:49:37Z</time>
      </trkpt>
      <trkpt lat="46.36365" lon="-0.64852">
        <ele>55</ele>
        <time>2012-06-22T09:49:42Z</time>
      </trkpt>
      <trkpt lat="46.36368" lon="-0.64848">
        <ele>55</ele>
        <time>2012-06-22T09:49:47Z</time>
      </trkpt>
      <trkpt lat="46.36373" lon="-0.64843">
        <ele>54</ele>
        <time>2012-06-22T09:49:52Z</time>
      </trkpt>
      <trkpt lat="46.36377" lon="-0.64838">
        <ele>54</ele>
        <time>2012-06-22T09:49:57Z</time>
      </trkpt>
      <trkpt lat="46.36377" lon="-0.64835">
        <ele>52</ele>
        <time>2012-06-22T09:50:02Z</time>
      </trkpt>
      <trkpt lat="46.3638" lon="-0.64831">
        <ele>51</ele>
        <time>2012-06-22T09:50:07Z</time>
      </trkpt>
      <trkpt lat="46.36383" lon="-0.64828">
        <ele>52</ele>
        <time>2012-06-22T09:50:12Z</time>
      </trkpt>
      <trkpt lat="46.36383" lon="-0.64827">
        <ele>53</ele>
        <time>2012-06-22T09:50:17Z</time>
      </trkpt>
      <trkpt lat="46.36384" lon="-0.64825">
        <ele>53</ele>
        <time>2012-06-22T09:50:22Z</time>
      </trkpt>
      <trkpt lat="46.36391" lon="-0.64816">
        <ele>53</ele>
        <time>2012-06-22T09:50:27Z</time>
      </trkpt>
      <trkpt lat="46.36397" lon="-0.6481">
        <ele>52</ele>
        <time>2012-06-22T09:50:32Z</time>
      </trkpt>
      <trkpt lat="46.36401" lon="-0.6481">
        <ele>52</ele>
        <time>2012-06-22T09:50:37Z</time>
      </trkpt>
      <trkpt lat="46.36404" lon="-0.64807">
        <ele>53</ele>
        <time>2012-06-22T09:50:42Z</time>
      </trkpt>
      <trkpt lat="46.36409" lon="-0.64806">
        <ele>53</ele>
        <time>2012-06-22T09:50:47Z</time>
      </trkpt>
      <trkpt lat="46.36414" lon="-0.64805">
        <ele>55</ele>
        <time>2012-06-22T09:50:52Z</time>
      </trkpt>
      <trkpt lat="46.36418" lon="-0.64805">
        <ele>55</ele>
        <time>2012-06-22T09:50:57Z</time>
      </trkpt>
      <trkpt lat="46.36425" lon="-0.64805">
        <ele>57</ele>
        <time>2012-06-22T09:51:02Z</time>
      </trkpt>
      <trkpt lat="46.36427" lon="-0.64806">
        <ele>59</ele>
        <time>2012-06-22T09:51:12Z</time>
      </trkpt>
      <trkpt lat="46.36429" lon="-0.64808">
        <ele>59</ele>
        <time>2012-06-22T09:51:17Z</time>
      </trkpt>
      <trkpt lat="46.36436" lon="-0.64808">
        <ele>58</ele>
        <time>2012-06-22T09:51:22Z</time>
      </trkpt>
      <trkpt lat="46.3644" lon="-0.6481">
        <ele>57</ele>
        <time>2012-06-22T09:51:27Z</time>
      </trkpt>
      <trkpt lat="46.36441" lon="-0.64809">
        <ele>57</ele>
        <time>2012-06-22T09:51:32Z</time>
      </trkpt>
      <trkpt lat="46.36443" lon="-0.64809">
        <ele>57</ele>
        <time>2012-06-22T09:51:37Z</time>
      </trkpt>
      <trkpt lat="46.36446" lon="-0.64808">
        <ele>57</ele>
        <time>2012-06-22T09:51:42Z</time>
      </trkpt>
      <trkpt lat="46.36448" lon="-0.64809">
        <ele>56</ele>
        <time>2012-06-22T09:51:47Z</time>
      </trkpt>
      <trkpt lat="46.36456" lon="-0.64809">
        <ele>56</ele>
        <time>2012-06-22T09:51:52Z</time>
      </trkpt>
      <trkpt lat="46.36463" lon="-0.64809">
        <ele>56</ele>
        <time>2012-06-22T09:51:57Z</time>
      </trkpt>
      <trkpt lat="46.36468" lon="-0.6481">
        <ele>55</ele>
        <time>2012-06-22T09:52:02Z</time>
      </trkpt>
      <trkpt lat="46.36472" lon="-0.64809">
        <ele>55</ele>
        <time>2012-06-22T09:52:07Z</time>
      </trkpt>
      <trkpt lat="46.36477" lon="-0.64809">
        <ele>55</ele>
        <time>2012-06-22T09:52:12Z</time>
      </trkpt>
      <trkpt lat="46.36479" lon="-0.64815">
        <ele>57</ele>
        <time>2012-06-22T09:52:17Z</time>
      </trkpt>
      <trkpt lat="46.36484" lon="-0.64816">
        <ele>57</ele>
        <time>2012-06-22T09:52:22Z</time>
      </trkpt>
      <trkpt lat="46.36491" lon="-0.64817">
        <ele>57</ele>
        <time>2012-06-22T09:52:27Z</time>
      </trkpt>
      <trkpt lat="46.36495" lon="-0.64818">
        <ele>57</ele>
        <time>2012-06-22T09:52:32Z</time>
      </trkpt>
      <trkpt lat="46.36501" lon="-0.64817">
        <ele>55</ele>
        <time>2012-06-22T09:52:37Z</time>
      </trkpt>
      <trkpt lat="46.36505" lon="-0.64816">
        <ele>54</ele>
        <time>2012-06-22T09:52:42Z</time>
      </trkpt>
      <trkpt lat="46.3651" lon="-0.64816">
        <ele>53</ele>
        <time>2012-06-22T09:52:47Z</time>
      </trkpt>
      <trkpt lat="46.36516" lon="-0.64817">
        <ele>53</ele>
        <time>2012-06-22T09:52:52Z</time>
      </trkpt>
      <trkpt lat="46.36521" lon="-0.64819">
        <ele>54</ele>
        <time>2012-06-22T09:52:57Z</time>
      </trkpt>
      <trkpt lat="46.36526" lon="-0.64822">
        <ele>54</ele>
        <time>2012-06-22T09:53:02Z</time>
      </trkpt>
      <trkpt lat="46.3653" lon="-0.64825">
        <ele>51</ele>
        <time>2012-06-22T09:53:07Z</time>
      </trkpt>
      <trkpt lat="46.36535" lon="-0.64828">
        <ele>52</ele>
        <time>2012-06-22T09:53:12Z</time>
      </trkpt>
      <trkpt lat="46.36539" lon="-0.64831">
        <ele>53</ele>
        <time>2012-06-22T09:53:17Z</time>
      </trkpt>
      <trkpt lat="46.36542" lon="-0.64831">
        <ele>52</ele>
        <time>2012-06-22T09:53:22Z</time>
      </trkpt>
      <trkpt lat="46.36546" lon="-0.64834">
        <ele>52</ele>
        <time>2012-06-22T09:53:27Z</time>
      </trkpt>
      <trkpt lat="46.36552" lon="-0.64836">
        <ele>52</ele>
        <time>2012-06-22T09:53:32Z</time>
      </trkpt>
      <trkpt lat="46.36557" lon="-0.64837">
        <ele>53</ele>
        <time>2012-06-22T09:53:37Z</time>
      </trkpt>
      <trkpt lat="46.36559" lon="-0.64837">
        <ele>53</ele>
        <time>2012-06-22T09:53:42Z</time>
      </trkpt>
      <trkpt lat="46.36563" lon="-0.64839">
        <ele>52</ele>
        <time>2012-06-22T09:53:47Z</time>
      </trkpt>
      <trkpt lat="46.36565" lon="-0.64839">
        <ele>53</ele>
        <time>2012-06-22T09:53:52Z</time>
      </trkpt>
      <trkpt lat="46.36571" lon="-0.64841">
        <ele>53</ele>
        <time>2012-06-22T09:53:57Z</time>
      </trkpt>
      <trkpt lat="46.36574" lon="-0.64843">
        <ele>53</ele>
        <time>2012-06-22T09:54:02Z</time>
      </trkpt>
      <trkpt lat="46.36573" lon="-0.64845">
        <ele>53</ele>
        <time>2012-06-22T09:54:07Z</time>
      </trkpt>
      <trkpt lat="46.36573" lon="-0.64846">
        <ele>53</ele>
        <time>2012-06-22T09:54:12Z</time>
      </trkpt>
      <trkpt lat="46.36575" lon="-0.64849">
        <ele>54</ele>
        <time>2012-06-22T09:54:17Z</time>
      </trkpt>
      <trkpt lat="46.36574" lon="-0.6485">
        <ele>53</ele>
        <time>2012-06-22T09:54:22Z</time>
      </trkpt>
      <trkpt lat="46.36576" lon="-0.6485">
        <ele>53</ele>
        <time>2012-06-22T09:55:07Z</time>
      </trkpt>
      <trkpt lat="46.36576" lon="-0.64853">
        <ele>53</ele>
        <time>2012-06-22T09:55:12Z</time>
      </trkpt>
      <trkpt lat="46.36578" lon="-0.6486">
        <ele>51</ele>
        <time>2012-06-22T09:55:17Z</time>
      </trkpt>
      <trkpt lat="46.36581" lon="-0.64866">
        <ele>48</ele>
        <time>2012-06-22T09:55:22Z</time>
      </trkpt>
      <trkpt lat="46.36585" lon="-0.64871">
        <ele>46</ele>
        <time>2012-06-22T09:55:27Z</time>
      </trkpt>
      <trkpt lat="46.36586" lon="-0.64879">
        <ele>46</ele>
        <time>2012-06-22T09:55:32Z</time>
      </trkpt>
      <trkpt lat="46.36587" lon="-0.64886">
        <ele>46</ele>
        <time>2012-06-22T09:55:37Z</time>
      </trkpt>
      <trkpt lat="46.36589" lon="-0.64892">
        <ele>45</ele>
        <time>2012-06-22T09:55:42Z</time>
      </trkpt>
      <trkpt lat="46.36591" lon="-0.64897">
        <ele>45</ele>
        <time>2012-06-22T09:55:47Z</time>
      </trkpt>
      <trkpt lat="46.36593" lon="-0.64902">
        <ele>45</ele>
        <time>2012-06-22T09:55:52Z</time>
      </trkpt>
      <trkpt lat="46.36595" lon="-0.64907">
        <ele>44</ele>
        <time>2012-06-22T09:55:57Z</time>
      </trkpt>
      <trkpt lat="46.36598" lon="-0.64913">
        <ele>43</ele>
        <time>2012-06-22T09:56:02Z</time>
      </trkpt>
      <trkpt lat="46.36601" lon="-0.64921">
        <ele>42</ele>
        <time>2012-06-22T09:56:07Z</time>
      </trkpt>
      <trkpt lat="46.36602" lon="-0.64928">
        <ele>44</ele>
        <time>2012-06-22T09:56:12Z</time>
      </trkpt>
      <trkpt lat="46.36603" lon="-0.64934">
        <ele>46</ele>
        <time>2012-06-22T09:56:17Z</time>
      </trkpt>
      <trkpt lat="46.36605" lon="-0.64941">
        <ele>46</ele>
        <time>2012-06-22T09:56:22Z</time>
      </trkpt>
      <trkpt lat="46.36604" lon="-0.64948">
        <ele>47</ele>
        <time>2012-06-22T09:56:27Z</time>
      </trkpt>
      <trkpt lat="46.36602" lon="-0.64957">
        <ele>50</ele>
        <time>2012-06-22T09:56:32Z</time>
      </trkpt>
      <trkpt lat="46.36603" lon="-0.64964">
        <ele>53</ele>
        <time>2012-06-22T09:56:37Z</time>
      </trkpt>
      <trkpt lat="46.36604" lon="-0.64972">
        <ele>53</ele>
        <time>2012-06-22T09:56:42Z</time>
      </trkpt>
      <trkpt lat="46.36605" lon="-0.64979">
        <ele>54</ele>
        <time>2012-06-22T09:56:47Z</time>
      </trkpt>
      <trkpt lat="46.36609" lon="-0.64986">
        <ele>53</ele>
        <time>2012-06-22T09:56:52Z</time>
      </trkpt>
      <trkpt lat="46.36613" lon="-0.64994">
        <ele>53</ele>
        <time>2012-06-22T09:56:57Z</time>
      </trkpt>
      <trkpt lat="46.36617" lon="-0.65005">
        <ele>53</ele>
        <time>2012-06-22T09:57:02Z</time>
      </trkpt>
      <trkpt lat="46.36618" lon="-0.65012">
        <ele>54</ele>
        <time>2012-06-22T09:57:07Z</time>
      </trkpt>
      <trkpt lat="46.36618" lon="-0.65018">
        <ele>54</ele>
        <time>2012-06-22T09:57:12Z</time>
      </trkpt>
      <trkpt lat="46.36621" lon="-0.65024">
        <ele>54</ele>
        <time>2012-06-22T09:57:17Z</time>
      </trkpt>
      <trkpt lat="46.36623" lon="-0.65031">
        <ele>56</ele>
        <time>2012-06-22T09:57:22Z</time>
      </trkpt>
      <trkpt lat="46.36624" lon="-0.65033">
        <ele>58</ele>
        <time>2012-06-22T09:57:27Z</time>
      </trkpt>
      <trkpt lat="46.36627" lon="-0.65043">
        <ele>58</ele>
        <time>2012-06-22T09:57:32Z</time>
      </trkpt>
      <trkpt lat="46.3663" lon="-0.65051">
        <ele>59</ele>
        <time>2012-06-22T09:57:37Z</time>
      </trkpt>
      <trkpt lat="46.36632" lon="-0.6506">
        <ele>60</ele>
        <time>2012-06-22T09:57:42Z</time>
      </trkpt>
      <trkpt lat="46.36632" lon="-0.65066">
        <ele>61</ele>
        <time>2012-06-22T09:57:47Z</time>
      </trkpt>
      <trkpt lat="46.36632" lon="-0.65074">
        <ele>62</ele>
        <time>2012-06-22T09:57:52Z</time>
      </trkpt>
      <trkpt lat="46.36635" lon="-0.65077">
        <ele>62</ele>
        <time>2012-06-22T09:57:57Z</time>
      </trkpt>
      <trkpt lat="46.36639" lon="-0.65081">
        <ele>61</ele>
        <time>2012-06-22T09:58:02Z</time>
      </trkpt>
      <trkpt lat="46.36641" lon="-0.65088">
        <ele>60</ele>
        <time>2012-06-22T09:58:07Z</time>
      </trkpt>
      <trkpt lat="46.36641" lon="-0.65091">
        <ele>61</ele>
        <time>2012-06-22T09:58:12Z</time>
      </trkpt>
      <trkpt lat="46.36642" lon="-0.65092">
        <ele>61</ele>
        <time>2012-06-22T09:58:17Z</time>
      </trkpt>
      <trkpt lat="46.36648" lon="-0.65107">
        <ele>60</ele>
        <time>2012-06-22T09:58:22Z</time>
      </trkpt>
      <trkpt lat="46.3665" lon="-0.65112">
        <ele>60</ele>
        <time>2012-06-22T09:58:27Z</time>
      </trkpt>
      <trkpt lat="46.36652" lon="-0.65118">
        <ele>59</ele>
        <time>2012-06-22T09:58:32Z</time>
      </trkpt>
      <trkpt lat="46.36656" lon="-0.65125">
        <ele>60</ele>
        <time>2012-06-22T09:58:37Z</time>
      </trkpt>
      <trkpt lat="46.36656" lon="-0.65135">
        <ele>58</ele>
        <time>2012-06-22T09:58:42Z</time>
      </trkpt>
      <trkpt lat="46.36656" lon="-0.65142">
        <ele>58</ele>
        <time>2012-06-22T09:58:47Z</time>
      </trkpt>
      <trkpt lat="46.36659" lon="-0.65149">
        <ele>59</ele>
        <time>2012-06-22T09:58:52Z</time>
      </trkpt>
      <trkpt lat="46.36661" lon="-0.65156">
        <ele>60</ele>
        <time>2012-06-22T09:58:57Z</time>
      </trkpt>
      <trkpt lat="46.36662" lon="-0.65155">
        <ele>60</ele>
        <time>2012-06-22T09:59:02Z</time>
      </trkpt>
      <trkpt lat="46.36662" lon="-0.65161">
        <ele>59</ele>
        <time>2012-06-22T09:59:07Z</time>
      </trkpt>
      <trkpt lat="46.36664" lon="-0.6517">
        <ele>57</ele>
        <time>2012-06-22T09:59:12Z</time>
      </trkpt>
      <trkpt lat="46.36666" lon="-0.65179">
        <ele>57</ele>
        <time>2012-06-22T09:59:17Z</time>
      </trkpt>
      <trkpt lat="46.36666" lon="-0.65188">
        <ele>57</ele>
        <time>2012-06-22T09:59:22Z</time>
      </trkpt>
      <trkpt lat="46.36666" lon="-0.65194">
        <ele>58</ele>
        <time>2012-06-22T09:59:27Z</time>
      </trkpt>
      <trkpt lat="46.36667" lon="-0.65201">
        <ele>58</ele>
        <time>2012-06-22T09:59:32Z</time>
      </trkpt>
      <trkpt lat="46.36665" lon="-0.6521">
        <ele>59</ele>
        <time>2012-06-22T09:59:37Z</time>
      </trkpt>
      <trkpt lat="46.36664" lon="-0.65222">
        <ele>60</ele>
        <time>2012-06-22T09:59:42Z</time>
      </trkpt>
      <trkpt lat="46.36667" lon="-0.65227">
        <ele>61</ele>
        <time>2012-06-22T09:59:47Z</time>
      </trkpt>
      <trkpt lat="46.36667" lon="-0.65232">
        <ele>61</ele>
        <time>2012-06-22T09:59:52Z</time>
      </trkpt>
      <trkpt lat="46.36665" lon="-0.65242">
        <ele>64</ele>
        <time>2012-06-22T09:59:57Z</time>
      </trkpt>
      <trkpt lat="46.36666" lon="-0.65245">
        <ele>66</ele>
        <time>2012-06-22T10:00:02Z</time>
      </trkpt>
      <trkpt lat="46.36668" lon="-0.65254">
        <ele>65</ele>
        <time>2012-06-22T10:00:07Z</time>
      </trkpt>
      <trkpt lat="46.36671" lon="-0.65262">
        <ele>67</ele>
        <time>2012-06-22T10:00:12Z</time>
      </trkpt>
      <trkpt lat="46.36672" lon="-0.65266">
        <ele>66</ele>
        <time>2012-06-22T10:00:17Z</time>
      </trkpt>
      <trkpt lat="46.36676" lon="-0.65273">
        <ele>65</ele>
        <time>2012-06-22T10:00:22Z</time>
      </trkpt>
      <trkpt lat="46.36679" lon="-0.65277">
        <ele>65</ele>
        <time>2012-06-22T10:00:27Z</time>
      </trkpt>
      <trkpt lat="46.36682" lon="-0.6528">
        <ele>65</ele>
        <time>2012-06-22T10:00:32Z</time>
      </trkpt>
      <trkpt lat="46.36682" lon="-0.65288">
        <ele>66</ele>
        <time>2012-06-22T10:00:37Z</time>
      </trkpt>
      <trkpt lat="46.36682" lon="-0.6529">
        <ele>66</ele>
        <time>2012-06-22T10:00:42Z</time>
      </trkpt>
      <trkpt lat="46.36684" lon="-0.6529">
        <ele>65</ele>
        <time>2012-06-22T10:00:47Z</time>
      </trkpt>
      <trkpt lat="46.36684" lon="-0.65289">
        <ele>65</ele>
        <time>2012-06-22T10:00:52Z</time>
      </trkpt>
      <trkpt lat="46.36683" lon="-0.65305">
        <ele>64</ele>
        <time>2012-06-22T10:00:57Z</time>
      </trkpt>
      <trkpt lat="46.36685" lon="-0.6531">
        <ele>62</ele>
        <time>2012-06-22T10:01:02Z</time>
      </trkpt>
      <trkpt lat="46.36688" lon="-0.65314">
        <ele>62</ele>
        <time>2012-06-22T10:01:07Z</time>
      </trkpt>
      <trkpt lat="46.36693" lon="-0.65317">
        <ele>62</ele>
        <time>2012-06-22T10:01:12Z</time>
      </trkpt>
      <trkpt lat="46.36697" lon="-0.65327">
        <ele>63</ele>
        <time>2012-06-22T10:01:17Z</time>
      </trkpt>
      <trkpt lat="46.36702" lon="-0.65333">
        <ele>63</ele>
        <time>2012-06-22T10:01:22Z</time>
      </trkpt>
      <trkpt lat="46.36707" lon="-0.65336">
        <ele>64</ele>
        <time>2012-06-22T10:01:27Z</time>
      </trkpt>
      <trkpt lat="46.3671" lon="-0.65345">
        <ele>63</ele>
        <time>2012-06-22T10:01:32Z</time>
      </trkpt>
      <trkpt lat="46.36712" lon="-0.65349">
        <ele>62</ele>
        <time>2012-06-22T10:01:37Z</time>
      </trkpt>
      <trkpt lat="46.36713" lon="-0.65353">
        <ele>63</ele>
        <time>2012-06-22T10:01:42Z</time>
      </trkpt>
      <trkpt lat="46.36716" lon="-0.65363">
        <ele>62</ele>
        <time>2012-06-22T10:01:47Z</time>
      </trkpt>
      <trkpt lat="46.3672" lon="-0.65368">
        <ele>63</ele>
        <time>2012-06-22T10:01:52Z</time>
      </trkpt>
      <trkpt lat="46.36723" lon="-0.65374">
        <ele>64</ele>
        <time>2012-06-22T10:01:57Z</time>
      </trkpt>
      <trkpt lat="46.36728" lon="-0.65378">
        <ele>64</ele>
        <time>2012-06-22T10:02:02Z</time>
      </trkpt>
      <trkpt lat="46.36727" lon="-0.65386">
        <ele>63</ele>
        <time>2012-06-22T10:02:07Z</time>
      </trkpt>
      <trkpt lat="46.3673" lon="-0.65395">
        <ele>64</ele>
        <time>2012-06-22T10:02:12Z</time>
      </trkpt>
      <trkpt lat="46.3673" lon="-0.654">
        <ele>64</ele>
        <time>2012-06-22T10:02:17Z</time>
      </trkpt>
      <trkpt lat="46.36732" lon="-0.65406">
        <ele>62</ele>
        <time>2012-06-22T10:02:22Z</time>
      </trkpt>
      <trkpt lat="46.36735" lon="-0.6541">
        <ele>61</ele>
        <time>2012-06-22T10:02:27Z</time>
      </trkpt>
      <trkpt lat="46.3674" lon="-0.65417">
        <ele>62</ele>
        <time>2012-06-22T10:02:32Z</time>
      </trkpt>
      <trkpt lat="46.36747" lon="-0.65421">
        <ele>58</ele>
        <time>2012-06-22T10:02:37Z</time>
      </trkpt>
      <trkpt lat="46.36751" lon="-0.65426">
        <ele>58</ele>
        <time>2012-06-22T10:02:42Z</time>
      </trkpt>
      <trkpt lat="46.36757" lon="-0.65431">
        <ele>58</ele>
        <time>2012-06-22T10:02:47Z</time>
      </trkpt>
      <trkpt lat="46.36764" lon="-0.65431">
        <ele>56</ele>
        <time>2012-06-22T10:02:52Z</time>
      </trkpt>
      <trkpt lat="46.36769" lon="-0.65434">
        <ele>54</ele>
        <time>2012-06-22T10:02:57Z</time>
      </trkpt>
      <trkpt lat="46.36774" lon="-0.65438">
        <ele>52</ele>
        <time>2012-06-22T10:03:02Z</time>
      </trkpt>
      <trkpt lat="46.36774" lon="-0.65443">
        <ele>51</ele>
        <time>2012-06-22T10:03:07Z</time>
      </trkpt>
      <trkpt lat="46.36777" lon="-0.65449">
        <ele>51</ele>
        <time>2012-06-22T10:03:12Z</time>
      </trkpt>
      <trkpt lat="46.36777" lon="-0.65457">
        <ele>53</ele>
        <time>2012-06-22T10:03:17Z</time>
      </trkpt>
      <trkpt lat="46.36781" lon="-0.65461">
        <ele>53</ele>
        <time>2012-06-22T10:03:22Z</time>
      </trkpt>
      <trkpt lat="46.36786" lon="-0.65465">
        <ele>54</ele>
        <time>2012-06-22T10:03:27Z</time>
      </trkpt>
      <trkpt lat="46.36792" lon="-0.6547">
        <ele>55</ele>
        <time>2012-06-22T10:03:32Z</time>
      </trkpt>
      <trkpt lat="46.36793" lon="-0.65481">
        <ele>55</ele>
        <time>2012-06-22T10:03:37Z</time>
      </trkpt>
      <trkpt lat="46.36796" lon="-0.65487">
        <ele>55</ele>
        <time>2012-06-22T10:03:42Z</time>
      </trkpt>
      <trkpt lat="46.36799" lon="-0.65493">
        <ele>55</ele>
        <time>2012-06-22T10:03:47Z</time>
      </trkpt>
      <trkpt lat="46.36802" lon="-0.655">
        <ele>55</ele>
        <time>2012-06-22T10:03:52Z</time>
      </trkpt>
      <trkpt lat="46.36806" lon="-0.65504">
        <ele>54</ele>
        <time>2012-06-22T10:03:57Z</time>
      </trkpt>
      <trkpt lat="46.36806" lon="-0.65512">
        <ele>54</ele>
        <time>2012-06-22T10:04:02Z</time>
      </trkpt>
      <trkpt lat="46.3681" lon="-0.65516">
        <ele>55</ele>
        <time>2012-06-22T10:04:07Z</time>
      </trkpt>
      <trkpt lat="46.36817" lon="-0.6552">
        <ele>54</ele>
        <time>2012-06-22T10:04:12Z</time>
      </trkpt>
      <trkpt lat="46.36823" lon="-0.65522">
        <ele>55</ele>
        <time>2012-06-22T10:04:17Z</time>
      </trkpt>
      <trkpt lat="46.36824" lon="-0.65523">
        <ele>54</ele>
        <time>2012-06-22T10:04:22Z</time>
      </trkpt>
      <trkpt lat="46.36825" lon="-0.65522">
        <ele>55</ele>
        <time>2012-06-22T10:04:27Z</time>
      </trkpt>
      <trkpt lat="46.36828" lon="-0.65527">
        <ele>56</ele>
        <time>2012-06-22T10:04:32Z</time>
      </trkpt>
      <trkpt lat="46.36829" lon="-0.65528">
        <ele>56</ele>
        <time>2012-06-22T10:04:37Z</time>
      </trkpt>
      <trkpt lat="46.36829" lon="-0.65527">
        <ele>56</ele>
        <time>2012-06-22T10:04:47Z</time>
      </trkpt>
      <trkpt lat="46.36829" lon="-0.65528">
        <ele>57</ele>
        <time>2012-06-22T10:04:52Z</time>
      </trkpt>
      <trkpt lat="46.3683" lon="-0.6553">
        <ele>57</ele>
        <time>2012-06-22T10:04:57Z</time>
      </trkpt>
      <trkpt lat="46.36836" lon="-0.65537">
        <ele>57</ele>
        <time>2012-06-22T10:05:02Z</time>
      </trkpt>
      <trkpt lat="46.36839" lon="-0.65539">
        <ele>58</ele>
        <time>2012-06-22T10:05:07Z</time>
      </trkpt>
      <trkpt lat="46.36841" lon="-0.65542">
        <ele>59</ele>
        <time>2012-06-22T10:05:12Z</time>
      </trkpt>
      <trkpt lat="46.36844" lon="-0.65551">
        <ele>59</ele>
        <time>2012-06-22T10:05:17Z</time>
      </trkpt>
      <trkpt lat="46.36848" lon="-0.65556">
        <ele>57</ele>
        <time>2012-06-22T10:05:22Z</time>
      </trkpt>
      <trkpt lat="46.36853" lon="-0.65566">
        <ele>55</ele>
        <time>2012-06-22T10:05:27Z</time>
      </trkpt>
      <trkpt lat="46.36857" lon="-0.65574">
        <ele>55</ele>
        <time>2012-06-22T10:05:32Z</time>
      </trkpt>
      <trkpt lat="46.36859" lon="-0.65577">
        <ele>55</ele>
        <time>2012-06-22T10:05:37Z</time>
      </trkpt>
      <trkpt lat="46.3686" lon="-0.65579">
        <ele>55</ele>
        <time>2012-06-22T10:05:42Z</time>
      </trkpt>
      <trkpt lat="46.3686" lon="-0.6558">
        <ele>55</ele>
        <time>2012-06-22T10:05:47Z</time>
      </trkpt>
      <trkpt lat="46.36868" lon="-0.65597">
        <ele>53</ele>
        <time>2012-06-22T10:05:52Z</time>
      </trkpt>
      <trkpt lat="46.3687" lon="-0.65607">
        <ele>51</ele>
        <time>2012-06-22T10:05:57Z</time>
      </trkpt>
      <trkpt lat="46.36874" lon="-0.65618">
        <ele>48</ele>
        <time>2012-06-22T10:06:02Z</time>
      </trkpt>
      <trkpt lat="46.36877" lon="-0.65626">
        <ele>48</ele>
        <time>2012-06-22T10:06:07Z</time>
      </trkpt>
      <trkpt lat="46.36878" lon="-0.65636">
        <ele>47</ele>
        <time>2012-06-22T10:06:12Z</time>
      </trkpt>
      <trkpt lat="46.36881" lon="-0.6564">
        <ele>47</ele>
        <time>2012-06-22T10:06:17Z</time>
      </trkpt>
      <trkpt lat="46.36885" lon="-0.65641">
        <ele>48</ele>
        <time>2012-06-22T10:06:22Z</time>
      </trkpt>
      <trkpt lat="46.36889" lon="-0.65639">
        <ele>49</ele>
        <time>2012-06-22T10:06:27Z</time>
      </trkpt>
      <trkpt lat="46.3689" lon="-0.6564">
        <ele>49</ele>
        <time>2012-06-22T10:06:32Z</time>
      </trkpt>
      <trkpt lat="46.36891" lon="-0.65637">
        <ele>48</ele>
        <time>2012-06-22T10:06:37Z</time>
      </trkpt>
      <trkpt lat="46.36896" lon="-0.65634">
        <ele>48</ele>
        <time>2012-06-22T10:06:42Z</time>
      </trkpt>
      <trkpt lat="46.36899" lon="-0.6563">
        <ele>46</ele>
        <time>2012-06-22T10:06:47Z</time>
      </trkpt>
      <trkpt lat="46.36902" lon="-0.65628">
        <ele>48</ele>
        <time>2012-06-22T10:06:52Z</time>
      </trkpt>
      <trkpt lat="46.36901" lon="-0.65628">
        <ele>49</ele>
        <time>2012-06-22T10:06:57Z</time>
      </trkpt>
      <trkpt lat="46.36901" lon="-0.65629">
        <ele>50</ele>
        <time>2012-06-22T10:07:02Z</time>
      </trkpt>
      <trkpt lat="46.36901" lon="-0.6563">
        <ele>51</ele>
        <time>2012-06-22T10:07:07Z</time>
      </trkpt>
      <trkpt lat="46.36901" lon="-0.6563">
        <ele>51</ele>
        <time>2012-06-22T10:07:12Z</time>
      </trkpt>
      <trkpt lat="46.36903" lon="-0.65627">
        <ele>51</ele>
        <time>2012-06-22T10:07:22Z</time>
      </trkpt>
      <trkpt lat="46.36908" lon="-0.65621">
        <ele>53</ele>
        <time>2012-06-22T10:07:27Z</time>
      </trkpt>
      <trkpt lat="46.36913" lon="-0.65617">
        <ele>52</ele>
        <time>2012-06-22T10:07:32Z</time>
      </trkpt>
      <trkpt lat="46.36919" lon="-0.65609">
        <ele>52</ele>
        <time>2012-06-22T10:07:37Z</time>
      </trkpt>
      <trkpt lat="46.36919" lon="-0.65607">
        <ele>52</ele>
        <time>2012-06-22T10:07:42Z</time>
      </trkpt>
      <trkpt lat="46.3692" lon="-0.65607">
        <ele>52</ele>
        <time>2012-06-22T10:07:47Z</time>
      </trkpt>
      <trkpt lat="46.3692" lon="-0.65607">
        <ele>53</ele>
        <time>2012-06-22T10:07:52Z</time>
      </trkpt>
      <trkpt lat="46.3692" lon="-0.65606">
        <ele>53</ele>
        <time>2012-06-22T10:08:02Z</time>
      </trkpt>
      <trkpt lat="46.3692" lon="-0.65607">
        <ele>53</ele>
        <time>2012-06-22T10:08:07Z</time>
      </trkpt>
      <trkpt lat="46.36922" lon="-0.65604">
        <ele>53</ele>
        <time>2012-06-22T10:08:12Z</time>
      </trkpt>
      <trkpt lat="46.36929" lon="-0.65598">
        <ele>54</ele>
        <time>2012-06-22T10:08:17Z</time>
      </trkpt>
      <trkpt lat="46.36931" lon="-0.65594">
        <ele>56</ele>
        <time>2012-06-22T10:08:22Z</time>
      </trkpt>
      <trkpt lat="46.36935" lon="-0.6559">
        <ele>55</ele>
        <time>2012-06-22T10:08:27Z</time>
      </trkpt>
      <trkpt lat="46.3694" lon="-0.65588">
        <ele>56</ele>
        <time>2012-06-22T10:08:32Z</time>
      </trkpt>
      <trkpt lat="46.36944" lon="-0.65589">
        <ele>55</ele>
        <time>2012-06-22T10:08:37Z</time>
      </trkpt>
      <trkpt lat="46.36949" lon="-0.65593">
        <ele>55</ele>
        <time>2012-06-22T10:08:42Z</time>
      </trkpt>
      <trkpt lat="46.36953" lon="-0.65597">
        <ele>56</ele>
        <time>2012-06-22T10:08:47Z</time>
      </trkpt>
      <trkpt lat="46.36955" lon="-0.65607">
        <ele>56</ele>
        <time>2012-06-22T10:08:52Z</time>
      </trkpt>
      <trkpt lat="46.36958" lon="-0.65613">
        <ele>56</ele>
        <time>2012-06-22T10:08:57Z</time>
      </trkpt>
      <trkpt lat="46.36961" lon="-0.65616">
        <ele>56</ele>
        <time>2012-06-22T10:09:02Z</time>
      </trkpt>
      <trkpt lat="46.36965" lon="-0.65623">
        <ele>56</ele>
        <time>2012-06-22T10:09:07Z</time>
      </trkpt>
      <trkpt lat="46.36969" lon="-0.65628">
        <ele>55</ele>
        <time>2012-06-22T10:09:12Z</time>
      </trkpt>
      <trkpt lat="46.36972" lon="-0.65634">
        <ele>56</ele>
        <time>2012-06-22T10:09:17Z</time>
      </trkpt>
      <trkpt lat="46.36975" lon="-0.6564">
        <ele>56</ele>
        <time>2012-06-22T10:09:22Z</time>
      </trkpt>
      <trkpt lat="46.3698" lon="-0.65644">
        <ele>55</ele>
        <time>2012-06-22T10:09:27Z</time>
      </trkpt>
      <trkpt lat="46.36984" lon="-0.65649">
        <ele>56</ele>
        <time>2012-06-22T10:09:32Z</time>
      </trkpt>
      <trkpt lat="46.36988" lon="-0.65652">
        <ele>56</ele>
        <time>2012-06-22T10:09:37Z</time>
      </trkpt>
      <trkpt lat="46.36992" lon="-0.65656">
        <ele>56</ele>
        <time>2012-06-22T10:09:42Z</time>
      </trkpt>
      <trkpt lat="46.36994" lon="-0.65661">
        <ele>55</ele>
        <time>2012-06-22T10:09:47Z</time>
      </trkpt>
      <trkpt lat="46.36997" lon="-0.65667">
        <ele>54</ele>
        <time>2012-06-22T10:09:52Z</time>
      </trkpt>
      <trkpt lat="46.37001" lon="-0.65674">
        <ele>55</ele>
        <time>2012-06-22T10:09:57Z</time>
      </trkpt>
      <trkpt lat="46.37003" lon="-0.65678">
        <ele>54</ele>
        <time>2012-06-22T10:10:02Z</time>
      </trkpt>
      <trkpt lat="46.37007" lon="-0.65684">
        <ele>53</ele>
        <time>2012-06-22T10:10:07Z</time>
      </trkpt>
      <trkpt lat="46.37009" lon="-0.65689">
        <ele>53</ele>
        <time>2012-06-22T10:10:12Z</time>
      </trkpt>
      <trkpt lat="46.37012" lon="-0.65694">
        <ele>52</ele>
        <time>2012-06-22T10:10:17Z</time>
      </trkpt>
      <trkpt lat="46.37014" lon="-0.657">
        <ele>52</ele>
        <time>2012-06-22T10:10:22Z</time>
      </trkpt>
      <trkpt lat="46.37016" lon="-0.65703">
        <ele>53</ele>
        <time>2012-06-22T10:10:27Z</time>
      </trkpt>
      <trkpt lat="46.37021" lon="-0.65709">
        <ele>53</ele>
        <time>2012-06-22T10:10:32Z</time>
      </trkpt>
      <trkpt lat="46.37025" lon="-0.65714">
        <ele>54</ele>
        <time>2012-06-22T10:10:37Z</time>
      </trkpt>
      <trkpt lat="46.37023" lon="-0.65724">
        <ele>57</ele>
        <time>2012-06-22T10:10:42Z</time>
      </trkpt>
      <trkpt lat="46.37025" lon="-0.65731">
        <ele>57</ele>
        <time>2012-06-22T10:10:47Z</time>
      </trkpt>
      <trkpt lat="46.37027" lon="-0.65737">
        <ele>56</ele>
        <time>2012-06-22T10:10:52Z</time>
      </trkpt>
      <trkpt lat="46.37031" lon="-0.65743">
        <ele>54</ele>
        <time>2012-06-22T10:10:57Z</time>
      </trkpt>
      <trkpt lat="46.37033" lon="-0.65749">
        <ele>54</ele>
        <time>2012-06-22T10:11:02Z</time>
      </trkpt>
      <trkpt lat="46.37035" lon="-0.65757">
        <ele>52</ele>
        <time>2012-06-22T10:11:07Z</time>
      </trkpt>
      <trkpt lat="46.37036" lon="-0.65762">
        <ele>52</ele>
        <time>2012-06-22T10:11:12Z</time>
      </trkpt>
      <trkpt lat="46.37038" lon="-0.6577">
        <ele>53</ele>
        <time>2012-06-22T10:11:17Z</time>
      </trkpt>
      <trkpt lat="46.3704" lon="-0.65777">
        <ele>53</ele>
        <time>2012-06-22T10:11:22Z</time>
      </trkpt>
      <trkpt lat="46.37044" lon="-0.65783">
        <ele>54</ele>
        <time>2012-06-22T10:11:27Z</time>
      </trkpt>
      <trkpt lat="46.37048" lon="-0.65787">
        <ele>56</ele>
        <time>2012-06-22T10:11:32Z</time>
      </trkpt>
      <trkpt lat="46.37051" lon="-0.65793">
        <ele>56</ele>
        <time>2012-06-22T10:11:37Z</time>
      </trkpt>
      <trkpt lat="46.37053" lon="-0.65798">
        <ele>56</ele>
        <time>2012-06-22T10:11:42Z</time>
      </trkpt>
      <trkpt lat="46.37054" lon="-0.65803">
        <ele>57</ele>
        <time>2012-06-22T10:11:47Z</time>
      </trkpt>
      <trkpt lat="46.37055" lon="-0.65803">
        <ele>57</ele>
        <time>2012-06-22T10:11:52Z</time>
      </trkpt>
      <trkpt lat="46.37056" lon="-0.65804">
        <ele>57</ele>
        <time>2012-06-22T10:11:57Z</time>
      </trkpt>
      <trkpt lat="46.37057" lon="-0.65805">
        <ele>57</ele>
        <time>2012-06-22T10:12:02Z</time>
      </trkpt>
      <trkpt lat="46.37058" lon="-0.65811">
        <ele>57</ele>
        <time>2012-06-22T10:12:07Z</time>
      </trkpt>
      <trkpt lat="46.37059" lon="-0.65817">
        <ele>57</ele>
        <time>2012-06-22T10:12:12Z</time>
      </trkpt>
      <trkpt lat="46.3706" lon="-0.65824">
        <ele>56</ele>
        <time>2012-06-22T10:12:17Z</time>
      </trkpt>
      <trkpt lat="46.37061" lon="-0.65831">
        <ele>55</ele>
        <time>2012-06-22T10:12:22Z</time>
      </trkpt>
      <trkpt lat="46.37064" lon="-0.65838">
        <ele>56</ele>
        <time>2012-06-22T10:12:27Z</time>
      </trkpt>
      <trkpt lat="46.37064" lon="-0.65844">
        <ele>55</ele>
        <time>2012-06-22T10:12:32Z</time>
      </trkpt>
      <trkpt lat="46.37066" lon="-0.65849">
        <ele>54</ele>
        <time>2012-06-22T10:12:37Z</time>
      </trkpt>
      <trkpt lat="46.37066" lon="-0.65856">
        <ele>55</ele>
        <time>2012-06-22T10:12:42Z</time>
      </trkpt>
      <trkpt lat="46.37069" lon="-0.65861">
        <ele>56</ele>
        <time>2012-06-22T10:12:47Z</time>
      </trkpt>
      <trkpt lat="46.37073" lon="-0.65865">
        <ele>56</ele>
        <time>2012-06-22T10:12:52Z</time>
      </trkpt>
      <trkpt lat="46.37077" lon="-0.65873">
        <ele>55</ele>
        <time>2012-06-22T10:12:57Z</time>
      </trkpt>
      <trkpt lat="46.37078" lon="-0.65881">
        <ele>55</ele>
        <time>2012-06-22T10:13:02Z</time>
      </trkpt>
      <trkpt lat="46.3708" lon="-0.65887">
        <ele>54</ele>
        <time>2012-06-22T10:13:07Z</time>
      </trkpt>
      <trkpt lat="46.37082" lon="-0.65893">
        <ele>53</ele>
        <time>2012-06-22T10:13:12Z</time>
      </trkpt>
      <trkpt lat="46.37086" lon="-0.65899">
        <ele>53</ele>
        <time>2012-06-22T10:13:17Z</time>
      </trkpt>
      <trkpt lat="46.37091" lon="-0.659">
        <ele>54</ele>
        <time>2012-06-22T10:13:22Z</time>
      </trkpt>
      <trkpt lat="46.37094" lon="-0.65904">
        <ele>53</ele>
        <time>2012-06-22T10:13:27Z</time>
      </trkpt>
      <trkpt lat="46.37096" lon="-0.65909">
        <ele>52</ele>
        <time>2012-06-22T10:13:32Z</time>
      </trkpt>
      <trkpt lat="46.37097" lon="-0.65915">
        <ele>52</ele>
        <time>2012-06-22T10:13:37Z</time>
      </trkpt>
      <trkpt lat="46.37099" lon="-0.65921">
        <ele>51</ele>
        <time>2012-06-22T10:13:42Z</time>
      </trkpt>
      <trkpt lat="46.37101" lon="-0.65927">
        <ele>51</ele>
        <time>2012-06-22T10:13:47Z</time>
      </trkpt>
      <trkpt lat="46.37103" lon="-0.65932">
        <ele>52</ele>
        <time>2012-06-22T10:13:52Z</time>
      </trkpt>
      <trkpt lat="46.37104" lon="-0.65938">
        <ele>52</ele>
        <time>2012-06-22T10:13:57Z</time>
      </trkpt>
      <trkpt lat="46.37105" lon="-0.65943">
        <ele>52</ele>
        <time>2012-06-22T10:14:02Z</time>
      </trkpt>
      <trkpt lat="46.37108" lon="-0.6595">
        <ele>51</ele>
        <time>2012-06-22T10:14:07Z</time>
      </trkpt>
      <trkpt lat="46.3711" lon="-0.65954">
        <ele>51</ele>
        <time>2012-06-22T10:14:12Z</time>
      </trkpt>
      <trkpt lat="46.37111" lon="-0.65961">
        <ele>52</ele>
        <time>2012-06-22T10:14:17Z</time>
      </trkpt>
      <trkpt lat="46.37112" lon="-0.65967">
        <ele>50</ele>
        <time>2012-06-22T10:14:22Z</time>
      </trkpt>
      <trkpt lat="46.37114" lon="-0.65974">
        <ele>51</ele>
        <time>2012-06-22T10:14:27Z</time>
      </trkpt>
      <trkpt lat="46.37118" lon="-0.65981">
        <ele>51</ele>
        <time>2012-06-22T10:14:32Z</time>
      </trkpt>
      <trkpt lat="46.37122" lon="-0.65989">
        <ele>53</ele>
        <time>2012-06-22T10:14:37Z</time>
      </trkpt>
      <trkpt lat="46.37124" lon="-0.65995">
        <ele>53</ele>
        <time>2012-06-22T10:14:42Z</time>
      </trkpt>
      <trkpt lat="46.37126" lon="-0.66002">
        <ele>53</ele>
        <time>2012-06-22T10:14:47Z</time>
      </trkpt>
      <trkpt lat="46.37128" lon="-0.66007">
        <ele>54</ele>
        <time>2012-06-22T10:14:52Z</time>
      </trkpt>
      <trkpt lat="46.37131" lon="-0.66013">
        <ele>57</ele>
        <time>2012-06-22T10:14:57Z</time>
      </trkpt>
      <trkpt lat="46.37133" lon="-0.66019">
        <ele>56</ele>
        <time>2012-06-22T10:15:02Z</time>
      </trkpt>
      <trkpt lat="46.37135" lon="-0.66025">
        <ele>56</ele>
        <time>2012-06-22T10:15:07Z</time>
      </trkpt>
      <trkpt lat="46.37137" lon="-0.6603">
        <ele>57</ele>
        <time>2012-06-22T10:15:12Z</time>
      </trkpt>
      <trkpt lat="46.37139" lon="-0.66036">
        <ele>57</ele>
        <time>2012-06-22T10:15:17Z</time>
      </trkpt>
      <trkpt lat="46.3714" lon="-0.66042">
        <ele>57</ele>
        <time>2012-06-22T10:15:22Z</time>
      </trkpt>
      <trkpt lat="46.37143" lon="-0.6605">
        <ele>57</ele>
        <time>2012-06-22T10:15:27Z</time>
      </trkpt>
      <trkpt lat="46.37145" lon="-0.66057">
        <ele>58</ele>
        <time>2012-06-22T10:15:32Z</time>
      </trkpt>
      <trkpt lat="46.37146" lon="-0.66061">
        <ele>57</ele>
        <time>2012-06-22T10:15:37Z</time>
      </trkpt>
      <trkpt lat="46.37145" lon="-0.66061">
        <ele>57</ele>
        <time>2012-06-22T10:15:42Z</time>
      </trkpt>
      <trkpt lat="46.37146" lon="-0.66062">
        <ele>57</ele>
        <time>2012-06-22T10:15:47Z</time>
      </trkpt>
      <trkpt lat="46.37145" lon="-0.66066">
        <ele>55</ele>
        <time>2012-06-22T10:15:57Z</time>
      </trkpt>
      <trkpt lat="46.37149" lon="-0.66075">
        <ele>56</ele>
        <time>2012-06-22T10:16:02Z</time>
      </trkpt>
      <trkpt lat="46.3715" lon="-0.66082">
        <ele>57</ele>
        <time>2012-06-22T10:16:07Z</time>
      </trkpt>
      <trkpt lat="46.37151" lon="-0.6609">
        <ele>54</ele>
        <time>2012-06-22T10:16:12Z</time>
      </trkpt>
      <trkpt lat="46.37152" lon="-0.66096">
        <ele>54</ele>
        <time>2012-06-22T10:16:17Z</time>
      </trkpt>
      <trkpt lat="46.37152" lon="-0.66104">
        <ele>53</ele>
        <time>2012-06-22T10:16:22Z</time>
      </trkpt>
      <trkpt lat="46.37153" lon="-0.66113">
        <ele>53</ele>
        <time>2012-06-22T10:16:27Z</time>
      </trkpt>
      <trkpt lat="46.37155" lon="-0.66121">
        <ele>52</ele>
        <time>2012-06-22T10:16:32Z</time>
      </trkpt>
      <trkpt lat="46.37156" lon="-0.66126">
        <ele>54</ele>
        <time>2012-06-22T10:16:37Z</time>
      </trkpt>
      <trkpt lat="46.37157" lon="-0.66134">
        <ele>54</ele>
        <time>2012-06-22T10:16:42Z</time>
      </trkpt>
      <trkpt lat="46.37159" lon="-0.66142">
        <ele>55</ele>
        <time>2012-06-22T10:16:47Z</time>
      </trkpt>
      <trkpt lat="46.3716" lon="-0.66149">
        <ele>53</ele>
        <time>2012-06-22T10:16:52Z</time>
      </trkpt>
      <trkpt lat="46.3716" lon="-0.66155">
        <ele>53</ele>
        <time>2012-06-22T10:16:57Z</time>
      </trkpt>
      <trkpt lat="46.37161" lon="-0.6616">
        <ele>53</ele>
        <time>2012-06-22T10:17:02Z</time>
      </trkpt>
      <trkpt lat="46.37162" lon="-0.66165">
        <ele>54</ele>
        <time>2012-06-22T10:17:07Z</time>
      </trkpt>
      <trkpt lat="46.37162" lon="-0.66172">
        <ele>55</ele>
        <time>2012-06-22T10:17:12Z</time>
      </trkpt>
      <trkpt lat="46.37161" lon="-0.6618">
        <ele>55</ele>
        <time>2012-06-22T10:17:17Z</time>
      </trkpt>
      <trkpt lat="46.37161" lon="-0.66188">
        <ele>56</ele>
        <time>2012-06-22T10:17:22Z</time>
      </trkpt>
      <trkpt lat="46.37161" lon="-0.66196">
        <ele>56</ele>
        <time>2012-06-22T10:17:27Z</time>
      </trkpt>
      <trkpt lat="46.37161" lon="-0.66204">
        <ele>55</ele>
        <time>2012-06-22T10:17:32Z</time>
      </trkpt>
      <trkpt lat="46.37162" lon="-0.66212">
        <ele>55</ele>
        <time>2012-06-22T10:17:37Z</time>
      </trkpt>
      <trkpt lat="46.37162" lon="-0.6622">
        <ele>55</ele>
        <time>2012-06-22T10:17:42Z</time>
      </trkpt>
      <trkpt lat="46.37162" lon="-0.66229">
        <ele>55</ele>
        <time>2012-06-22T10:17:47Z</time>
      </trkpt>
      <trkpt lat="46.37162" lon="-0.66236">
        <ele>55</ele>
        <time>2012-06-22T10:17:52Z</time>
      </trkpt>
      <trkpt lat="46.37162" lon="-0.66243">
        <ele>55</ele>
        <time>2012-06-22T10:17:57Z</time>
      </trkpt>
      <trkpt lat="46.37163" lon="-0.66248">
        <ele>55</ele>
        <time>2012-06-22T10:18:02Z</time>
      </trkpt>
      <trkpt lat="46.37164" lon="-0.66253">
        <ele>52</ele>
        <time>2012-06-22T10:18:07Z</time>
      </trkpt>
      <trkpt lat="46.37164" lon="-0.66259">
        <ele>53</ele>
        <time>2012-06-22T10:18:12Z</time>
      </trkpt>
      <trkpt lat="46.37165" lon="-0.66266">
        <ele>53</ele>
        <time>2012-06-22T10:18:17Z</time>
      </trkpt>
      <trkpt lat="46.37165" lon="-0.66273">
        <ele>52</ele>
        <time>2012-06-22T10:18:22Z</time>
      </trkpt>
      <trkpt lat="46.37165" lon="-0.66281">
        <ele>54</ele>
        <time>2012-06-22T10:18:27Z</time>
      </trkpt>
      <trkpt lat="46.37165" lon="-0.66291">
        <ele>55</ele>
        <time>2012-06-22T10:18:32Z</time>
      </trkpt>
      <trkpt lat="46.37165" lon="-0.66299">
        <ele>55</ele>
        <time>2012-06-22T10:18:37Z</time>
      </trkpt>
      <trkpt lat="46.37165" lon="-0.66307">
        <ele>56</ele>
        <time>2012-06-22T10:18:42Z</time>
      </trkpt>
      <trkpt lat="46.37165" lon="-0.66316">
        <ele>55</ele>
        <time>2012-06-22T10:18:47Z</time>
      </trkpt>
      <trkpt lat="46.37165" lon="-0.66325">
        <ele>56</ele>
        <time>2012-06-22T10:18:52Z</time>
      </trkpt>
      <trkpt lat="46.37165" lon="-0.66334">
        <ele>59</ele>
        <time>2012-06-22T10:18:57Z</time>
      </trkpt>
      <trkpt lat="46.37165" lon="-0.66339">
        <ele>58</ele>
        <time>2012-06-22T10:19:02Z</time>
      </trkpt>
      <trkpt lat="46.37165" lon="-0.66343">
        <ele>58</ele>
        <time>2012-06-22T10:19:07Z</time>
      </trkpt>
      <trkpt lat="46.37164" lon="-0.6635">
        <ele>62</ele>
        <time>2012-06-22T10:19:12Z</time>
      </trkpt>
      <trkpt lat="46.37163" lon="-0.66358">
        <ele>62</ele>
        <time>2012-06-22T10:19:17Z</time>
      </trkpt>
      <trkpt lat="46.37163" lon="-0.66365">
        <ele>64</ele>
        <time>2012-06-22T10:19:22Z</time>
      </trkpt>
      <trkpt lat="46.37164" lon="-0.66374">
        <ele>65</ele>
        <time>2012-06-22T10:19:27Z</time>
      </trkpt>
      <trkpt lat="46.37165" lon="-0.6638">
        <ele>65</ele>
        <time>2012-06-22T10:19:32Z</time>
      </trkpt>
      <trkpt lat="46.37165" lon="-0.66387">
        <ele>66</ele>
        <time>2012-06-22T10:19:37Z</time>
      </trkpt>
      <trkpt lat="46.37166" lon="-0.66396">
        <ele>63</ele>
        <time>2012-06-22T10:19:42Z</time>
      </trkpt>
      <trkpt lat="46.37166" lon="-0.66408">
        <ele>62</ele>
        <time>2012-06-22T10:19:47Z</time>
      </trkpt>
      <trkpt lat="46.37166" lon="-0.66415">
        <ele>61</ele>
        <time>2012-06-22T10:19:52Z</time>
      </trkpt>
      <trkpt lat="46.37165" lon="-0.66422">
        <ele>59</ele>
        <time>2012-06-22T10:19:57Z</time>
      </trkpt>
      <trkpt lat="46.37165" lon="-0.66432">
        <ele>56</ele>
        <time>2012-06-22T10:20:02Z</time>
      </trkpt>
      <trkpt lat="46.37164" lon="-0.66441">
        <ele>56</ele>
        <time>2012-06-22T10:20:07Z</time>
      </trkpt>
      <trkpt lat="46.37165" lon="-0.6645">
        <ele>54</ele>
        <time>2012-06-22T10:20:12Z</time>
      </trkpt>
      <trkpt lat="46.37165" lon="-0.66457">
        <ele>52</ele>
        <time>2012-06-22T10:20:17Z</time>
      </trkpt>
      <trkpt lat="46.37164" lon="-0.66464">
        <ele>51</ele>
        <time>2012-06-22T10:20:22Z</time>
      </trkpt>
      <trkpt lat="46.37165" lon="-0.6647">
        <ele>51</ele>
        <time>2012-06-22T10:20:27Z</time>
      </trkpt>
      <trkpt lat="46.37167" lon="-0.66476">
        <ele>49</ele>
        <time>2012-06-22T10:20:32Z</time>
      </trkpt>
      <trkpt lat="46.37165" lon="-0.66484">
        <ele>49</ele>
        <time>2012-06-22T10:20:37Z</time>
      </trkpt>
      <trkpt lat="46.37165" lon="-0.66488">
        <ele>50</ele>
        <time>2012-06-22T10:20:42Z</time>
      </trkpt>
      <trkpt lat="46.37165" lon="-0.66492">
        <ele>52</ele>
        <time>2012-06-22T10:20:47Z</time>
      </trkpt>
      <trkpt lat="46.37164" lon="-0.66498">
        <ele>54</ele>
        <time>2012-06-22T10:20:52Z</time>
      </trkpt>
      <trkpt lat="46.37168" lon="-0.6651">
        <ele>57</ele>
        <time>2012-06-22T10:20:57Z</time>
      </trkpt>
      <trkpt lat="46.37168" lon="-0.66518">
        <ele>57</ele>
        <time>2012-06-22T10:21:02Z</time>
      </trkpt>
      <trkpt lat="46.37169" lon="-0.66525">
        <ele>59</ele>
        <time>2012-06-22T10:21:07Z</time>
      </trkpt>
      <trkpt lat="46.37168" lon="-0.66533">
        <ele>60</ele>
        <time>2012-06-22T10:21:12Z</time>
      </trkpt>
      <trkpt lat="46.37166" lon="-0.6654">
        <ele>60</ele>
        <time>2012-06-22T10:21:17Z</time>
      </trkpt>
      <trkpt lat="46.37165" lon="-0.6655">
        <ele>59</ele>
        <time>2012-06-22T10:21:22Z</time>
      </trkpt>
      <trkpt lat="46.37166" lon="-0.66554">
        <ele>59</ele>
        <time>2012-06-22T10:21:27Z</time>
      </trkpt>
      <trkpt lat="46.37166" lon="-0.66562">
        <ele>59</ele>
        <time>2012-06-22T10:21:32Z</time>
      </trkpt>
      <trkpt lat="46.3717" lon="-0.6657">
        <ele>60</ele>
        <time>2012-06-22T10:21:37Z</time>
      </trkpt>
      <trkpt lat="46.37172" lon="-0.66578">
        <ele>60</ele>
        <time>2012-06-22T10:21:42Z</time>
      </trkpt>
      <trkpt lat="46.37174" lon="-0.66584">
        <ele>59</ele>
        <time>2012-06-22T10:21:47Z</time>
      </trkpt>
      <trkpt lat="46.37173" lon="-0.66593">
        <ele>60</ele>
        <time>2012-06-22T10:21:52Z</time>
      </trkpt>
      <trkpt lat="46.37172" lon="-0.66602">
        <ele>57</ele>
        <time>2012-06-22T10:21:57Z</time>
      </trkpt>
      <trkpt lat="46.37172" lon="-0.66611">
        <ele>57</ele>
        <time>2012-06-22T10:22:02Z</time>
      </trkpt>
      <trkpt lat="46.37173" lon="-0.6662">
        <ele>58</ele>
        <time>2012-06-22T10:22:07Z</time>
      </trkpt>
      <trkpt lat="46.37174" lon="-0.66628">
        <ele>59</ele>
        <time>2012-06-22T10:22:12Z</time>
      </trkpt>
      <trkpt lat="46.37173" lon="-0.66635">
        <ele>59</ele>
        <time>2012-06-22T10:22:17Z</time>
      </trkpt>
      <trkpt lat="46.37173" lon="-0.66644">
        <ele>58</ele>
        <time>2012-06-22T10:22:22Z</time>
      </trkpt>
      <trkpt lat="46.37173" lon="-0.66652">
        <ele>56</ele>
        <time>2012-06-22T10:22:27Z</time>
      </trkpt>
      <trkpt lat="46.37172" lon="-0.66659">
        <ele>55</ele>
        <time>2012-06-22T10:22:32Z</time>
      </trkpt>
      <trkpt lat="46.37172" lon="-0.66666">
        <ele>56</ele>
        <time>2012-06-22T10:22:37Z</time>
      </trkpt>
      <trkpt lat="46.3717" lon="-0.66676">
        <ele>54</ele>
        <time>2012-06-22T10:22:42Z</time>
      </trkpt>
      <trkpt lat="46.37169" lon="-0.66686">
        <ele>53</ele>
        <time>2012-06-22T10:22:47Z</time>
      </trkpt>
      <trkpt lat="46.37168" lon="-0.66693">
        <ele>53</ele>
        <time>2012-06-22T10:22:52Z</time>
      </trkpt>
      <trkpt lat="46.37168" lon="-0.66692">
        <ele>52</ele>
        <time>2012-06-22T10:22:57Z</time>
      </trkpt>
      <trkpt lat="46.37164" lon="-0.66686">
        <ele>55</ele>
        <time>2012-06-22T10:23:02Z</time>
      </trkpt>
      <trkpt lat="46.37161" lon="-0.66682">
        <ele>54</ele>
        <time>2012-06-22T10:23:07Z</time>
      </trkpt>
      <trkpt lat="46.37157" lon="-0.66681">
        <ele>54</ele>
        <time>2012-06-22T10:23:12Z</time>
      </trkpt>
      <trkpt lat="46.37158" lon="-0.66682">
        <ele>54</ele>
        <time>2012-06-22T10:23:17Z</time>
      </trkpt>
      <trkpt lat="46.37159" lon="-0.66683">
        <ele>55</ele>
        <time>2012-06-22T10:23:22Z</time>
      </trkpt>
      <trkpt lat="46.37157" lon="-0.66682">
        <ele>56</ele>
        <time>2012-06-22T10:23:27Z</time>
      </trkpt>
      <trkpt lat="46.37156" lon="-0.66686">
        <ele>54</ele>
        <time>2012-06-22T10:23:32Z</time>
      </trkpt>
      <trkpt lat="46.37154" lon="-0.66686">
        <ele>55</ele>
        <time>2012-06-22T10:23:37Z</time>
      </trkpt>
      <trkpt lat="46.37151" lon="-0.66687">
        <ele>55</ele>
        <time>2012-06-22T10:23:42Z</time>
      </trkpt>
      <trkpt lat="46.37146" lon="-0.6669">
        <ele>54</ele>
        <time>2012-06-22T10:23:47Z</time>
      </trkpt>
      <trkpt lat="46.37145" lon="-0.6669">
        <ele>53</ele>
        <time>2012-06-22T10:23:52Z</time>
      </trkpt>
      <trkpt lat="46.37141" lon="-0.66693">
        <ele>53</ele>
        <time>2012-06-22T10:23:57Z</time>
      </trkpt>
      <trkpt lat="46.37139" lon="-0.66694">
        <ele>53</ele>
        <time>2012-06-22T10:24:02Z</time>
      </trkpt>
      <trkpt lat="46.37134" lon="-0.66697">
        <ele>54</ele>
        <time>2012-06-22T10:24:07Z</time>
      </trkpt>
      <trkpt lat="46.37127" lon="-0.66703">
        <ele>54</ele>
        <time>2012-06-22T10:24:12Z</time>
      </trkpt>
      <trkpt lat="46.37123" lon="-0.66708">
        <ele>53</ele>
        <time>2012-06-22T10:24:17Z</time>
      </trkpt>
      <trkpt lat="46.37118" lon="-0.66712">
        <ele>52</ele>
        <time>2012-06-22T10:24:22Z</time>
      </trkpt>
      <trkpt lat="46.37113" lon="-0.66717">
        <ele>52</ele>
        <time>2012-06-22T10:24:27Z</time>
      </trkpt>
      <trkpt lat="46.37109" lon="-0.6672">
        <ele>53</ele>
        <time>2012-06-22T10:24:32Z</time>
      </trkpt>
      <trkpt lat="46.37105" lon="-0.66725">
        <ele>52</ele>
        <time>2012-06-22T10:24:37Z</time>
      </trkpt>
      <trkpt lat="46.37102" lon="-0.66726">
        <ele>53</ele>
        <time>2012-06-22T10:24:42Z</time>
      </trkpt>
      <trkpt lat="46.37099" lon="-0.6673">
        <ele>53</ele>
        <time>2012-06-22T10:24:47Z</time>
      </trkpt>
      <trkpt lat="46.37095" lon="-0.66735">
        <ele>54</ele>
        <time>2012-06-22T10:24:52Z</time>
      </trkpt>
      <trkpt lat="46.37091" lon="-0.66737">
        <ele>53</ele>
        <time>2012-06-22T10:24:57Z</time>
      </trkpt>
      <trkpt lat="46.37086" lon="-0.66744">
        <ele>52</ele>
        <time>2012-06-22T10:25:02Z</time>
      </trkpt>
      <trkpt lat="46.37083" lon="-0.66746">
        <ele>52</ele>
        <time>2012-06-22T10:25:07Z</time>
      </trkpt>
      <trkpt lat="46.37079" lon="-0.66754">
        <ele>53</ele>
        <time>2012-06-22T10:25:12Z</time>
      </trkpt>
      <trkpt lat="46.37074" lon="-0.6676">
        <ele>50</ele>
        <time>2012-06-22T10:25:17Z</time>
      </trkpt>
      <trkpt lat="46.37072" lon="-0.66761">
        <ele>50</ele>
        <time>2012-06-22T10:25:22Z</time>
      </trkpt>
      <trkpt lat="46.37066" lon="-0.66766">
        <ele>48</ele>
        <time>2012-06-22T10:25:27Z</time>
      </trkpt>
      <trkpt lat="46.37061" lon="-0.66771">
        <ele>49</ele>
        <time>2012-06-22T10:25:32Z</time>
      </trkpt>
      <trkpt lat="46.37054" lon="-0.66778">
        <ele>44</ele>
        <time>2012-06-22T10:25:37Z</time>
      </trkpt>
      <trkpt lat="46.37051" lon="-0.66781">
        <ele>44</ele>
        <time>2012-06-22T10:25:42Z</time>
      </trkpt>
      <trkpt lat="46.37048" lon="-0.66785">
        <ele>47</ele>
        <time>2012-06-22T10:25:47Z</time>
      </trkpt>
      <trkpt lat="46.37046" lon="-0.66788">
        <ele>47</ele>
        <time>2012-06-22T10:25:52Z</time>
      </trkpt>
      <trkpt lat="46.37042" lon="-0.66789">
        <ele>48</ele>
        <time>2012-06-22T10:25:57Z</time>
      </trkpt>
      <trkpt lat="46.37039" lon="-0.66793">
        <ele>49</ele>
        <time>2012-06-22T10:26:02Z</time>
      </trkpt>
      <trkpt lat="46.37039" lon="-0.66795">
        <ele>49</ele>
        <time>2012-06-22T10:26:07Z</time>
      </trkpt>
      <trkpt lat="46.37038" lon="-0.66795">
        <ele>49</ele>
        <time>2012-06-22T10:26:12Z</time>
      </trkpt>
      <trkpt lat="46.37029" lon="-0.66803">
        <ele>50</ele>
        <time>2012-06-22T10:26:17Z</time>
      </trkpt>
      <trkpt lat="46.37024" lon="-0.66806">
        <ele>50</ele>
        <time>2012-06-22T10:26:22Z</time>
      </trkpt>
      <trkpt lat="46.3702" lon="-0.66811">
        <ele>52</ele>
        <time>2012-06-22T10:26:27Z</time>
      </trkpt>
      <trkpt lat="46.37013" lon="-0.66819">
        <ele>52</ele>
        <time>2012-06-22T10:26:32Z</time>
      </trkpt>
      <trkpt lat="46.37011" lon="-0.66821">
        <ele>53</ele>
        <time>2012-06-22T10:26:37Z</time>
      </trkpt>
      <trkpt lat="46.3701" lon="-0.66821">
        <ele>52</ele>
        <time>2012-06-22T10:26:42Z</time>
      </trkpt>
      <trkpt lat="46.37008" lon="-0.66825">
        <ele>52</ele>
        <time>2012-06-22T10:26:47Z</time>
      </trkpt>
      <trkpt lat="46.36999" lon="-0.66833">
        <ele>49</ele>
        <time>2012-06-22T10:26:52Z</time>
      </trkpt>
      <trkpt lat="46.36992" lon="-0.66839">
        <ele>50</ele>
        <time>2012-06-22T10:26:57Z</time>
      </trkpt>
      <trkpt lat="46.36987" lon="-0.66845">
        <ele>51</ele>
        <time>2012-06-22T10:27:02Z</time>
      </trkpt>
      <trkpt lat="46.36981" lon="-0.6685">
        <ele>51</ele>
        <time>2012-06-22T10:27:07Z</time>
      </trkpt>
      <trkpt lat="46.36977" lon="-0.66857">
        <ele>52</ele>
        <time>2012-06-22T10:27:12Z</time>
      </trkpt>
      <trkpt lat="46.3697" lon="-0.66863">
        <ele>54</ele>
        <time>2012-06-22T10:27:17Z</time>
      </trkpt>
      <trkpt lat="46.36966" lon="-0.66866">
        <ele>54</ele>
        <time>2012-06-22T10:27:22Z</time>
      </trkpt>
      <trkpt lat="46.36961" lon="-0.66871">
        <ele>54</ele>
        <time>2012-06-22T10:27:27Z</time>
      </trkpt>
      <trkpt lat="46.36958" lon="-0.66874">
        <ele>55</ele>
        <time>2012-06-22T10:27:32Z</time>
      </trkpt>
      <trkpt lat="46.36955" lon="-0.66878">
        <ele>56</ele>
        <time>2012-06-22T10:27:37Z</time>
      </trkpt>
      <trkpt lat="46.3695" lon="-0.6688">
        <ele>57</ele>
        <time>2012-06-22T10:27:42Z</time>
      </trkpt>
      <trkpt lat="46.36945" lon="-0.66888">
        <ele>57</ele>
        <time>2012-06-22T10:27:47Z</time>
      </trkpt>
      <trkpt lat="46.36942" lon="-0.66891">
        <ele>56</ele>
        <time>2012-06-22T10:27:52Z</time>
      </trkpt>
      <trkpt lat="46.36941" lon="-0.6689">
        <ele>56</ele>
        <time>2012-06-22T10:27:57Z</time>
      </trkpt>
      <trkpt lat="46.36941" lon="-0.66891">
        <ele>56</ele>
        <time>2012-06-22T10:28:02Z</time>
      </trkpt>
      <trkpt lat="46.36941" lon="-0.66891">
        <ele>57</ele>
        <time>2012-06-22T10:28:17Z</time>
      </trkpt>
      <trkpt lat="46.36939" lon="-0.6689">
        <ele>57</ele>
        <time>2012-06-22T10:29:17Z</time>
      </trkpt>
      <trkpt lat="46.36937" lon="-0.6689">
        <ele>59</ele>
        <time>2012-06-22T10:29:22Z</time>
      </trkpt>
      <trkpt lat="46.36937" lon="-0.66891">
        <ele>60</ele>
        <time>2012-06-22T10:29:27Z</time>
      </trkpt>
      <trkpt lat="46.36938" lon="-0.66891">
        <ele>59</ele>
        <time>2012-06-22T10:29:32Z</time>
      </trkpt>
      <trkpt lat="46.36938" lon="-0.6689">
        <ele>60</ele>
        <time>2012-06-22T10:29:37Z</time>
      </trkpt>
      <trkpt lat="46.36939" lon="-0.6689">
        <ele>60</ele>
        <time>2012-06-22T10:29:42Z</time>
      </trkpt>
      <trkpt lat="46.36939" lon="-0.66889">
        <ele>56</ele>
        <time>2012-06-22T10:29:47Z</time>
      </trkpt>
      <trkpt lat="46.36937" lon="-0.66894">
        <ele>57</ele>
        <time>2012-06-22T10:29:52Z</time>
      </trkpt>
      <trkpt lat="46.36936" lon="-0.66894">
        <ele>57</ele>
        <time>2012-06-22T10:29:57Z</time>
      </trkpt>
      <trkpt lat="46.36936" lon="-0.66893">
        <ele>55</ele>
        <time>2012-06-22T10:30:02Z</time>
      </trkpt>
      <trkpt lat="46.36937" lon="-0.66893">
        <ele>55</ele>
        <time>2012-06-22T10:30:07Z</time>
      </trkpt>
      <trkpt lat="46.36938" lon="-0.66892">
        <ele>55</ele>
        <time>2012-06-22T10:30:22Z</time>
      </trkpt>
      <trkpt lat="46.36938" lon="-0.66891">
        <ele>57</ele>
        <time>2012-06-22T10:30:32Z</time>
      </trkpt>
      <trkpt lat="46.36935" lon="-0.66896">
        <ele>55</ele>
        <time>2012-06-22T10:30:47Z</time>
      </trkpt>
      <trkpt lat="46.36936" lon="-0.66897">
        <ele>55</ele>
        <time>2012-06-22T10:30:52Z</time>
      </trkpt>
      <trkpt lat="46.36936" lon="-0.66898">
        <ele>55</ele>
        <time>2012-06-22T10:30:57Z</time>
      </trkpt>
      <trkpt lat="46.36937" lon="-0.66897">
        <ele>55</ele>
        <time>2012-06-22T10:31:02Z</time>
      </trkpt>
      <trkpt lat="46.36939" lon="-0.66897">
        <ele>54</ele>
        <time>2012-06-22T10:31:07Z</time>
      </trkpt>
      <trkpt lat="46.36939" lon="-0.66896">
        <ele>54</ele>
        <time>2012-06-22T10:31:12Z</time>
      </trkpt>
      <trkpt lat="46.36938" lon="-0.66896">
        <ele>54</ele>
        <time>2012-06-22T10:31:17Z</time>
      </trkpt>
      <trkpt lat="46.36937" lon="-0.669">
        <ele>51</ele>
        <time>2012-06-22T10:31:22Z</time>
      </trkpt>
      <trkpt lat="46.36934" lon="-0.66902">
        <ele>49</ele>
        <time>2012-06-22T10:31:27Z</time>
      </trkpt>
      <trkpt lat="46.36933" lon="-0.66902">
        <ele>50</ele>
        <time>2012-06-22T10:31:32Z</time>
      </trkpt>
      <trkpt lat="46.36934" lon="-0.66907">
        <ele>50</ele>
        <time>2012-06-22T10:31:37Z</time>
      </trkpt>
      <trkpt lat="46.36935" lon="-0.66908">
        <ele>49</ele>
        <time>2012-06-22T10:31:42Z</time>
      </trkpt>
      <trkpt lat="46.36936" lon="-0.6691">
        <ele>50</ele>
        <time>2012-06-22T10:31:47Z</time>
      </trkpt>
      <trkpt lat="46.36936" lon="-0.66911">
        <ele>50</ele>
        <time>2012-06-22T10:31:52Z</time>
      </trkpt>
      <trkpt lat="46.36937" lon="-0.66913">
        <ele>50</ele>
        <time>2012-06-22T10:31:57Z</time>
      </trkpt>
      <trkpt lat="46.36938" lon="-0.66914">
        <ele>50</ele>
        <time>2012-06-22T10:32:02Z</time>
      </trkpt>
      <trkpt lat="46.36938" lon="-0.66914">
        <ele>50</ele>
        <time>2012-06-22T10:32:07Z</time>
      </trkpt>
      <trkpt lat="46.36939" lon="-0.66915">
        <ele>49</ele>
        <time>2012-06-22T10:32:12Z</time>
      </trkpt>
      <trkpt lat="46.3694" lon="-0.66917">
        <ele>49</ele>
        <time>2012-06-22T10:32:17Z</time>
      </trkpt>
      <trkpt lat="46.36941" lon="-0.66918">
        <ele>48</ele>
        <time>2012-06-22T10:32:22Z</time>
      </trkpt>
      <trkpt lat="46.36941" lon="-0.6692">
        <ele>48</ele>
        <time>2012-06-22T10:32:27Z</time>
      </trkpt>
      <trkpt lat="46.36941" lon="-0.6692">
        <ele>48</ele>
        <time>2012-06-22T10:32:32Z</time>
      </trkpt>
      <trkpt lat="46.3694" lon="-0.66923">
        <ele>48</ele>
        <time>2012-06-22T10:32:37Z</time>
      </trkpt>
      <trkpt lat="46.36942" lon="-0.66924">
        <ele>47</ele>
        <time>2012-06-22T10:32:42Z</time>
      </trkpt>
      <trkpt lat="46.36946" lon="-0.66928">
        <ele>46</ele>
        <time>2012-06-22T10:32:47Z</time>
      </trkpt>
      <trkpt lat="46.3695" lon="-0.66936">
        <ele>49</ele>
        <time>2012-06-22T10:32:52Z</time>
      </trkpt>
      <trkpt lat="46.36951" lon="-0.66943">
        <ele>50</ele>
        <time>2012-06-22T10:32:57Z</time>
      </trkpt>
      <trkpt lat="46.36954" lon="-0.6695">
        <ele>53</ele>
        <time>2012-06-22T10:33:02Z</time>
      </trkpt>
      <trkpt lat="46.36954" lon="-0.66957">
        <ele>54</ele>
        <time>2012-06-22T10:33:07Z</time>
      </trkpt>
      <trkpt lat="46.36957" lon="-0.66963">
        <ele>53</ele>
        <time>2012-06-22T10:33:12Z</time>
      </trkpt>
      <trkpt lat="46.36961" lon="-0.66971">
        <ele>53</ele>
        <time>2012-06-22T10:33:17Z</time>
      </trkpt>
      <trkpt lat="46.36963" lon="-0.66974">
        <ele>51</ele>
        <time>2012-06-22T10:33:22Z</time>
      </trkpt>
      <trkpt lat="46.36968" lon="-0.66979">
        <ele>49</ele>
        <time>2012-06-22T10:33:27Z</time>
      </trkpt>
      <trkpt lat="46.3697" lon="-0.66987">
        <ele>50</ele>
        <time>2012-06-22T10:33:32Z</time>
      </trkpt>
      <trkpt lat="46.36969" lon="-0.66995">
        <ele>52</ele>
        <time>2012-06-22T10:33:37Z</time>
      </trkpt>
      <trkpt lat="46.36971" lon="-0.67002">
        <ele>52</ele>
        <time>2012-06-22T10:33:42Z</time>
      </trkpt>
      <trkpt lat="46.36974" lon="-0.67005">
        <ele>52</ele>
        <time>2012-06-22T10:33:47Z</time>
      </trkpt>
      <trkpt lat="46.36975" lon="-0.67011">
        <ele>50</ele>
        <time>2012-06-22T10:33:52Z</time>
      </trkpt>
      <trkpt lat="46.36976" lon="-0.67016">
        <ele>51</ele>
        <time>2012-06-22T10:33:57Z</time>
      </trkpt>
      <trkpt lat="46.36981" lon="-0.6702">
        <ele>49</ele>
        <time>2012-06-22T10:34:02Z</time>
      </trkpt>
      <trkpt lat="46.36987" lon="-0.67024">
        <ele>46</ele>
        <time>2012-06-22T10:34:07Z</time>
      </trkpt>
      <trkpt lat="46.36986" lon="-0.67034">
        <ele>50</ele>
        <time>2012-06-22T10:34:12Z</time>
      </trkpt>
      <trkpt lat="46.36988" lon="-0.67041">
        <ele>51</ele>
        <time>2012-06-22T10:34:17Z</time>
      </trkpt>
      <trkpt lat="46.36989" lon="-0.67043">
        <ele>52</ele>
        <time>2012-06-22T10:34:22Z</time>
      </trkpt>
      <trkpt lat="46.36988" lon="-0.67044">
        <ele>53</ele>
        <time>2012-06-22T10:34:27Z</time>
      </trkpt>
      <trkpt lat="46.3699" lon="-0.67049">
        <ele>53</ele>
        <time>2012-06-22T10:34:32Z</time>
      </trkpt>
      <trkpt lat="46.36992" lon="-0.67055">
        <ele>54</ele>
        <time>2012-06-22T10:34:37Z</time>
      </trkpt>
      <trkpt lat="46.36994" lon="-0.67061">
        <ele>53</ele>
        <time>2012-06-22T10:34:42Z</time>
      </trkpt>
      <trkpt lat="46.36993" lon="-0.67062">
        <ele>53</ele>
        <time>2012-06-22T10:34:47Z</time>
      </trkpt>
      <trkpt lat="46.36994" lon="-0.67062">
        <ele>54</ele>
        <time>2012-06-22T10:34:52Z</time>
      </trkpt>
      <trkpt lat="46.36995" lon="-0.67062">
        <ele>53</ele>
        <time>2012-06-22T10:35:02Z</time>
      </trkpt>
      <trkpt lat="46.36995" lon="-0.67063">
        <ele>53</ele>
        <time>2012-06-22T10:35:07Z</time>
      </trkpt>
      <trkpt lat="46.36994" lon="-0.67063">
        <ele>53</ele>
        <time>2012-06-22T10:35:12Z</time>
      </trkpt>
      <trkpt lat="46.36997" lon="-0.6707">
        <ele>55</ele>
        <time>2012-06-22T10:35:57Z</time>
      </trkpt>
      <trkpt lat="46.37001" lon="-0.67079">
        <ele>55</ele>
        <time>2012-06-22T10:36:02Z</time>
      </trkpt>
      <trkpt lat="46.37005" lon="-0.6709">
        <ele>54</ele>
        <time>2012-06-22T10:36:07Z</time>
      </trkpt>
      <trkpt lat="46.3701" lon="-0.67097">
        <ele>52</ele>
        <time>2012-06-22T10:36:12Z</time>
      </trkpt>
      <trkpt lat="46.37014" lon="-0.67104">
        <ele>52</ele>
        <time>2012-06-22T10:36:17Z</time>
      </trkpt>
      <trkpt lat="46.37017" lon="-0.67113">
        <ele>53</ele>
        <time>2012-06-22T10:36:22Z</time>
      </trkpt>
      <trkpt lat="46.37018" lon="-0.67123">
        <ele>53</ele>
        <time>2012-06-22T10:36:27Z</time>
      </trkpt>
      <trkpt lat="46.37023" lon="-0.67129">
        <ele>55</ele>
        <time>2012-06-22T10:36:32Z</time>
      </trkpt>
      <trkpt lat="46.37027" lon="-0.67137">
        <ele>56</ele>
        <time>2012-06-22T10:36:37Z</time>
      </trkpt>
      <trkpt lat="46.37028" lon="-0.67147">
        <ele>55</ele>
        <time>2012-06-22T10:36:42Z</time>
      </trkpt>
      <trkpt lat="46.37031" lon="-0.67157">
        <ele>55</ele>
        <time>2012-06-22T10:36:47Z</time>
      </trkpt>
      <trkpt lat="46.37035" lon="-0.67164">
        <ele>54</ele>
        <time>2012-06-22T10:36:52Z</time>
      </trkpt>
      <trkpt lat="46.3704" lon="-0.67169">
        <ele>52</ele>
        <time>2012-06-22T10:36:57Z</time>
      </trkpt>
      <trkpt lat="46.37042" lon="-0.6718">
        <ele>52</ele>
        <time>2012-06-22T10:37:02Z</time>
      </trkpt>
      <trkpt lat="46.37044" lon="-0.67193">
        <ele>53</ele>
        <time>2012-06-22T10:37:07Z</time>
      </trkpt>
      <trkpt lat="46.37048" lon="-0.67196">
        <ele>50</ele>
        <time>2012-06-22T10:37:12Z</time>
      </trkpt>
      <trkpt lat="46.3705" lon="-0.67202">
        <ele>49</ele>
        <time>2012-06-22T10:37:17Z</time>
      </trkpt>
      <trkpt lat="46.37052" lon="-0.67209">
        <ele>50</ele>
        <time>2012-06-22T10:37:22Z</time>
      </trkpt>
      <trkpt lat="46.37054" lon="-0.67219">
        <ele>53</ele>
        <time>2012-06-22T10:37:27Z</time>
      </trkpt>
      <trkpt lat="46.37056" lon="-0.67226">
        <ele>52</ele>
        <time>2012-06-22T10:37:32Z</time>
      </trkpt>
      <trkpt lat="46.37059" lon="-0.67236">
        <ele>52</ele>
        <time>2012-06-22T10:37:37Z</time>
      </trkpt>
      <trkpt lat="46.37061" lon="-0.67245">
        <ele>55</ele>
        <time>2012-06-22T10:37:42Z</time>
      </trkpt>
      <trkpt lat="46.37065" lon="-0.67253">
        <ele>55</ele>
        <time>2012-06-22T10:37:47Z</time>
      </trkpt>
      <trkpt lat="46.37071" lon="-0.6726">
        <ele>53</ele>
        <time>2012-06-22T10:37:52Z</time>
      </trkpt>
      <trkpt lat="46.37074" lon="-0.67268">
        <ele>53</ele>
        <time>2012-06-22T10:37:57Z</time>
      </trkpt>
      <trkpt lat="46.37078" lon="-0.67276">
        <ele>53</ele>
        <time>2012-06-22T10:38:02Z</time>
      </trkpt>
      <trkpt lat="46.3708" lon="-0.67283">
        <ele>54</ele>
        <time>2012-06-22T10:38:07Z</time>
      </trkpt>
      <trkpt lat="46.37083" lon="-0.67292">
        <ele>55</ele>
        <time>2012-06-22T10:38:12Z</time>
      </trkpt>
      <trkpt lat="46.37084" lon="-0.67303">
        <ele>56</ele>
        <time>2012-06-22T10:38:17Z</time>
      </trkpt>
      <trkpt lat="46.3709" lon="-0.67309">
        <ele>55</ele>
        <time>2012-06-22T10:38:22Z</time>
      </trkpt>
      <trkpt lat="46.37094" lon="-0.67316">
        <ele>53</ele>
        <time>2012-06-22T10:38:27Z</time>
      </trkpt>
      <trkpt lat="46.37095" lon="-0.67324">
        <ele>53</ele>
        <time>2012-06-22T10:38:32Z</time>
      </trkpt>
      <trkpt lat="46.37095" lon="-0.67331">
        <ele>53</ele>
        <time>2012-06-22T10:38:37Z</time>
      </trkpt>
      <trkpt lat="46.37097" lon="-0.67337">
        <ele>54</ele>
        <time>2012-06-22T10:38:42Z</time>
      </trkpt>
      <trkpt lat="46.37101" lon="-0.67342">
        <ele>54</ele>
        <time>2012-06-22T10:38:47Z</time>
      </trkpt>
      <trkpt lat="46.37104" lon="-0.6735">
        <ele>52</ele>
        <time>2012-06-22T10:38:52Z</time>
      </trkpt>
      <trkpt lat="46.37109" lon="-0.67356">
        <ele>46</ele>
        <time>2012-06-22T10:38:57Z</time>
      </trkpt>
      <trkpt lat="46.37114" lon="-0.67362">
        <ele>44</ele>
        <time>2012-06-22T10:39:02Z</time>
      </trkpt>
      <trkpt lat="46.37118" lon="-0.6737">
        <ele>44</ele>
        <time>2012-06-22T10:39:07Z</time>
      </trkpt>
      <trkpt lat="46.37124" lon="-0.67374">
        <ele>40</ele>
        <time>2012-06-22T10:39:12Z</time>
      </trkpt>
      <trkpt lat="46.37127" lon="-0.67385">
        <ele>38</ele>
        <time>2012-06-22T10:39:17Z</time>
      </trkpt>
      <trkpt lat="46.37127" lon="-0.67395">
        <ele>40</ele>
        <time>2012-06-22T10:39:22Z</time>
      </trkpt>
      <trkpt lat="46.37129" lon="-0.67403">
        <ele>43</ele>
        <time>2012-06-22T10:39:27Z</time>
      </trkpt>
      <trkpt lat="46.37133" lon="-0.67409">
        <ele>45</ele>
        <time>2012-06-22T10:39:32Z</time>
      </trkpt>
      <trkpt lat="46.37136" lon="-0.67414">
        <ele>45</ele>
        <time>2012-06-22T10:39:37Z</time>
      </trkpt>
      <trkpt lat="46.3714" lon="-0.67421">
        <ele>45</ele>
        <time>2012-06-22T10:39:42Z</time>
      </trkpt>
      <trkpt lat="46.37141" lon="-0.6743">
        <ele>45</ele>
        <time>2012-06-22T10:39:47Z</time>
      </trkpt>
      <trkpt lat="46.37142" lon="-0.67439">
        <ele>46</ele>
        <time>2012-06-22T10:39:52Z</time>
      </trkpt>
      <trkpt lat="46.37145" lon="-0.67446">
        <ele>47</ele>
        <time>2012-06-22T10:39:57Z</time>
      </trkpt>
      <trkpt lat="46.37147" lon="-0.67454">
        <ele>48</ele>
        <time>2012-06-22T10:40:02Z</time>
      </trkpt>
      <trkpt lat="46.37149" lon="-0.67459">
        <ele>49</ele>
        <time>2012-06-22T10:40:07Z</time>
      </trkpt>
      <trkpt lat="46.37153" lon="-0.67465">
        <ele>49</ele>
        <time>2012-06-22T10:40:12Z</time>
      </trkpt>
      <trkpt lat="46.37156" lon="-0.67472">
        <ele>51</ele>
        <time>2012-06-22T10:40:17Z</time>
      </trkpt>
      <trkpt lat="46.37159" lon="-0.67479">
        <ele>51</ele>
        <time>2012-06-22T10:40:22Z</time>
      </trkpt>
      <trkpt lat="46.37161" lon="-0.67484">
        <ele>52</ele>
        <time>2012-06-22T10:40:27Z</time>
      </trkpt>
      <trkpt lat="46.37162" lon="-0.67489">
        <ele>53</ele>
        <time>2012-06-22T10:40:32Z</time>
      </trkpt>
      <trkpt lat="46.37164" lon="-0.67497">
        <ele>54</ele>
        <time>2012-06-22T10:40:37Z</time>
      </trkpt>
      <trkpt lat="46.37166" lon="-0.67502">
        <ele>55</ele>
        <time>2012-06-22T10:40:42Z</time>
      </trkpt>
      <trkpt lat="46.3717" lon="-0.6751">
        <ele>56</ele>
        <time>2012-06-22T10:40:47Z</time>
      </trkpt>
      <trkpt lat="46.37172" lon="-0.67515">
        <ele>57</ele>
        <time>2012-06-22T10:40:52Z</time>
      </trkpt>
      <trkpt lat="46.37175" lon="-0.67522">
        <ele>57</ele>
        <time>2012-06-22T10:40:57Z</time>
      </trkpt>
      <trkpt lat="46.37178" lon="-0.67529">
        <ele>54</ele>
        <time>2012-06-22T10:41:02Z</time>
      </trkpt>
      <trkpt lat="46.37179" lon="-0.67537">
        <ele>54</ele>
        <time>2012-06-22T10:41:07Z</time>
      </trkpt>
      <trkpt lat="46.37182" lon="-0.67544">
        <ele>53</ele>
        <time>2012-06-22T10:41:12Z</time>
      </trkpt>
      <trkpt lat="46.37185" lon="-0.6755">
        <ele>52</ele>
        <time>2012-06-22T10:41:17Z</time>
      </trkpt>
      <trkpt lat="46.37187" lon="-0.67556">
        <ele>52</ele>
        <time>2012-06-22T10:41:22Z</time>
      </trkpt>
      <trkpt lat="46.37191" lon="-0.67562">
        <ele>53</ele>
        <time>2012-06-22T10:41:27Z</time>
      </trkpt>
      <trkpt lat="46.37194" lon="-0.67569">
        <ele>53</ele>
        <time>2012-06-22T10:41:32Z</time>
      </trkpt>
      <trkpt lat="46.37196" lon="-0.67574">
        <ele>53</ele>
        <time>2012-06-22T10:41:37Z</time>
      </trkpt>
      <trkpt lat="46.37199" lon="-0.67583">
        <ele>54</ele>
        <time>2012-06-22T10:41:42Z</time>
      </trkpt>
      <trkpt lat="46.37201" lon="-0.67589">
        <ele>55</ele>
        <time>2012-06-22T10:41:47Z</time>
      </trkpt>
      <trkpt lat="46.37205" lon="-0.67595">
        <ele>54</ele>
        <time>2012-06-22T10:41:52Z</time>
      </trkpt>
      <trkpt lat="46.37207" lon="-0.67602">
        <ele>53</ele>
        <time>2012-06-22T10:41:57Z</time>
      </trkpt>
      <trkpt lat="46.37211" lon="-0.67607">
        <ele>54</ele>
        <time>2012-06-22T10:42:02Z</time>
      </trkpt>
      <trkpt lat="46.37213" lon="-0.67613">
        <ele>53</ele>
        <time>2012-06-22T10:42:07Z</time>
      </trkpt>
      <trkpt lat="46.37216" lon="-0.67618">
        <ele>53</ele>
        <time>2012-06-22T10:42:12Z</time>
      </trkpt>
      <trkpt lat="46.37219" lon="-0.67628">
        <ele>53</ele>
        <time>2012-06-22T10:42:17Z</time>
      </trkpt>
      <trkpt lat="46.3722" lon="-0.67636">
        <ele>54</ele>
        <time>2012-06-22T10:42:22Z</time>
      </trkpt>
      <trkpt lat="46.37223" lon="-0.6764">
        <ele>55</ele>
        <time>2012-06-22T10:42:27Z</time>
      </trkpt>
      <trkpt lat="46.37227" lon="-0.67646">
        <ele>55</ele>
        <time>2012-06-22T10:42:32Z</time>
      </trkpt>
      <trkpt lat="46.37228" lon="-0.67654">
        <ele>56</ele>
        <time>2012-06-22T10:42:37Z</time>
      </trkpt>
      <trkpt lat="46.37231" lon="-0.67663">
        <ele>55</ele>
        <time>2012-06-22T10:42:42Z</time>
      </trkpt>
      <trkpt lat="46.37233" lon="-0.67671">
        <ele>54</ele>
        <time>2012-06-22T10:42:47Z</time>
      </trkpt>
      <trkpt lat="46.37237" lon="-0.67676">
        <ele>55</ele>
        <time>2012-06-22T10:42:52Z</time>
      </trkpt>
      <trkpt lat="46.37238" lon="-0.67684">
        <ele>55</ele>
        <time>2012-06-22T10:42:57Z</time>
      </trkpt>
      <trkpt lat="46.37242" lon="-0.67693">
        <ele>56</ele>
        <time>2012-06-22T10:43:02Z</time>
      </trkpt>
      <trkpt lat="46.37244" lon="-0.67701">
        <ele>55</ele>
        <time>2012-06-22T10:43:07Z</time>
      </trkpt>
      <trkpt lat="46.37249" lon="-0.67707">
        <ele>55</ele>
        <time>2012-06-22T10:43:12Z</time>
      </trkpt>
      <trkpt lat="46.37249" lon="-0.67713">
        <ele>55</ele>
        <time>2012-06-22T10:43:17Z</time>
      </trkpt>
      <trkpt lat="46.3725" lon="-0.6772">
        <ele>55</ele>
        <time>2012-06-22T10:43:22Z</time>
      </trkpt>
      <trkpt lat="46.3725" lon="-0.67728">
        <ele>57</ele>
        <time>2012-06-22T10:43:27Z</time>
      </trkpt>
      <trkpt lat="46.37247" lon="-0.67735">
        <ele>58</ele>
        <time>2012-06-22T10:43:32Z</time>
      </trkpt>
      <trkpt lat="46.37244" lon="-0.6774">
        <ele>58</ele>
        <time>2012-06-22T10:43:37Z</time>
      </trkpt>
      <trkpt lat="46.37241" lon="-0.67747">
        <ele>57</ele>
        <time>2012-06-22T10:43:42Z</time>
      </trkpt>
      <trkpt lat="46.37236" lon="-0.67752">
        <ele>57</ele>
        <time>2012-06-22T10:43:47Z</time>
      </trkpt>
      <trkpt lat="46.37231" lon="-0.67757">
        <ele>56</ele>
        <time>2012-06-22T10:43:52Z</time>
      </trkpt>
      <trkpt lat="46.37225" lon="-0.67759">
        <ele>58</ele>
        <time>2012-06-22T10:43:57Z</time>
      </trkpt>
      <trkpt lat="46.37222" lon="-0.67765">
        <ele>57</ele>
        <time>2012-06-22T10:44:02Z</time>
      </trkpt>
      <trkpt lat="46.37217" lon="-0.67771">
        <ele>58</ele>
        <time>2012-06-22T10:44:07Z</time>
      </trkpt>
      <trkpt lat="46.37215" lon="-0.67774">
        <ele>58</ele>
        <time>2012-06-22T10:44:12Z</time>
      </trkpt>
      <trkpt lat="46.37212" lon="-0.67782">
        <ele>59</ele>
        <time>2012-06-22T10:44:17Z</time>
      </trkpt>
      <trkpt lat="46.3721" lon="-0.67787">
        <ele>58</ele>
        <time>2012-06-22T10:44:22Z</time>
      </trkpt>
      <trkpt lat="46.37205" lon="-0.67793">
        <ele>59</ele>
        <time>2012-06-22T10:44:27Z</time>
      </trkpt>
      <trkpt lat="46.37204" lon="-0.678">
        <ele>59</ele>
        <time>2012-06-22T10:44:32Z</time>
      </trkpt>
      <trkpt lat="46.37203" lon="-0.67805">
        <ele>57</ele>
        <time>2012-06-22T10:44:37Z</time>
      </trkpt>
      <trkpt lat="46.37199" lon="-0.67809">
        <ele>56</ele>
        <time>2012-06-22T10:44:42Z</time>
      </trkpt>
      <trkpt lat="46.37194" lon="-0.67819">
        <ele>55</ele>
        <time>2012-06-22T10:44:47Z</time>
      </trkpt>
      <trkpt lat="46.37189" lon="-0.67824">
        <ele>55</ele>
        <time>2012-06-22T10:44:52Z</time>
      </trkpt>
      <trkpt lat="46.37185" lon="-0.67829">
        <ele>56</ele>
        <time>2012-06-22T10:44:57Z</time>
      </trkpt>
      <trkpt lat="46.37185" lon="-0.67839">
        <ele>58</ele>
        <time>2012-06-22T10:45:02Z</time>
      </trkpt>
      <trkpt lat="46.37182" lon="-0.67848">
        <ele>56</ele>
        <time>2012-06-22T10:45:07Z</time>
      </trkpt>
      <trkpt lat="46.37184" lon="-0.67853">
        <ele>54</ele>
        <time>2012-06-22T10:45:12Z</time>
      </trkpt>
      <trkpt lat="46.37184" lon="-0.67863">
        <ele>51</ele>
        <time>2012-06-22T10:45:17Z</time>
      </trkpt>
      <trkpt lat="46.37181" lon="-0.6787">
        <ele>50</ele>
        <time>2012-06-22T10:45:22Z</time>
      </trkpt>
      <trkpt lat="46.37177" lon="-0.67874">
        <ele>50</ele>
        <time>2012-06-22T10:45:27Z</time>
      </trkpt>
      <trkpt lat="46.37174" lon="-0.6788">
        <ele>49</ele>
        <time>2012-06-22T10:45:32Z</time>
      </trkpt>
      <trkpt lat="46.3717" lon="-0.67883">
        <ele>50</ele>
        <time>2012-06-22T10:45:37Z</time>
      </trkpt>
      <trkpt lat="46.37164" lon="-0.67885">
        <ele>52</ele>
        <time>2012-06-22T10:45:52Z</time>
      </trkpt>
      <trkpt lat="46.3716" lon="-0.67889">
        <ele>52</ele>
        <time>2012-06-22T10:45:57Z</time>
      </trkpt>
      <trkpt lat="46.37157" lon="-0.67891">
        <ele>52</ele>
        <time>2012-06-22T10:46:02Z</time>
      </trkpt>
      <trkpt lat="46.37155" lon="-0.67896">
        <ele>53</ele>
        <time>2012-06-22T10:46:07Z</time>
      </trkpt>
      <trkpt lat="46.37149" lon="-0.67901">
        <ele>55</ele>
        <time>2012-06-22T10:46:12Z</time>
      </trkpt>
      <trkpt lat="46.37143" lon="-0.67904">
        <ele>52</ele>
        <time>2012-06-22T10:46:17Z</time>
      </trkpt>
      <trkpt lat="46.37138" lon="-0.67908">
        <ele>52</ele>
        <time>2012-06-22T10:46:22Z</time>
      </trkpt>
      <trkpt lat="46.37129" lon="-0.67911">
        <ele>52</ele>
        <time>2012-06-22T10:46:27Z</time>
      </trkpt>
      <trkpt lat="46.37124" lon="-0.67916">
        <ele>53</ele>
        <time>2012-06-22T10:46:32Z</time>
      </trkpt>
      <trkpt lat="46.37117" lon="-0.67918">
        <ele>55</ele>
        <time>2012-06-22T10:46:37Z</time>
      </trkpt>
      <trkpt lat="46.37114" lon="-0.67922">
        <ele>53</ele>
        <time>2012-06-22T10:46:42Z</time>
      </trkpt>
      <trkpt lat="46.37106" lon="-0.67929">
        <ele>53</ele>
        <time>2012-06-22T10:46:47Z</time>
      </trkpt>
      <trkpt lat="46.37101" lon="-0.67932">
        <ele>54</ele>
        <time>2012-06-22T10:46:52Z</time>
      </trkpt>
      <trkpt lat="46.37095" lon="-0.67935">
        <ele>54</ele>
        <time>2012-06-22T10:46:57Z</time>
      </trkpt>
      <trkpt lat="46.37091" lon="-0.67939">
        <ele>52</ele>
        <time>2012-06-22T10:47:02Z</time>
      </trkpt>
      <trkpt lat="46.37085" lon="-0.67943">
        <ele>56</ele>
        <time>2012-06-22T10:47:07Z</time>
      </trkpt>
      <trkpt lat="46.37082" lon="-0.67946">
        <ele>57</ele>
        <time>2012-06-22T10:47:12Z</time>
      </trkpt>
      <trkpt lat="46.37078" lon="-0.67947">
        <ele>59</ele>
        <time>2012-06-22T10:47:17Z</time>
      </trkpt>
      <trkpt lat="46.37073" lon="-0.67949">
        <ele>56</ele>
        <time>2012-06-22T10:47:22Z</time>
      </trkpt>
      <trkpt lat="46.37069" lon="-0.67953">
        <ele>57</ele>
        <time>2012-06-22T10:47:27Z</time>
      </trkpt>
      <trkpt lat="46.37065" lon="-0.67958">
        <ele>60</ele>
        <time>2012-06-22T10:47:32Z</time>
      </trkpt>
      <trkpt lat="46.37058" lon="-0.67964">
        <ele>62</ele>
        <time>2012-06-22T10:47:37Z</time>
      </trkpt>
      <trkpt lat="46.37053" lon="-0.67969">
        <ele>61</ele>
        <time>2012-06-22T10:47:42Z</time>
      </trkpt>
      <trkpt lat="46.37046" lon="-0.67973">
        <ele>61</ele>
        <time>2012-06-22T10:47:47Z</time>
      </trkpt>
      <trkpt lat="46.37041" lon="-0.67977">
        <ele>61</ele>
        <time>2012-06-22T10:47:52Z</time>
      </trkpt>
      <trkpt lat="46.37039" lon="-0.67977">
        <ele>59</ele>
        <time>2012-06-22T10:47:57Z</time>
      </trkpt>
      <trkpt lat="46.37037" lon="-0.67977">
        <ele>56</ele>
        <time>2012-06-22T10:48:02Z</time>
      </trkpt>
      <trkpt lat="46.37033" lon="-0.6798">
        <ele>55</ele>
        <time>2012-06-22T10:48:07Z</time>
      </trkpt>
      <trkpt lat="46.37027" lon="-0.67984">
        <ele>55</ele>
        <time>2012-06-22T10:48:12Z</time>
      </trkpt>
      <trkpt lat="46.37022" lon="-0.67987">
        <ele>54</ele>
        <time>2012-06-22T10:48:17Z</time>
      </trkpt>
      <trkpt lat="46.37019" lon="-0.67989">
        <ele>54</ele>
        <time>2012-06-22T10:48:22Z</time>
      </trkpt>
      <trkpt lat="46.37013" lon="-0.67993">
        <ele>54</ele>
        <time>2012-06-22T10:48:27Z</time>
      </trkpt>
      <trkpt lat="46.37009" lon="-0.67998">
        <ele>57</ele>
        <time>2012-06-22T10:48:32Z</time>
      </trkpt>
      <trkpt lat="46.37005" lon="-0.68002">
        <ele>58</ele>
        <time>2012-06-22T10:48:37Z</time>
      </trkpt>
      <trkpt lat="46.36999" lon="-0.68007">
        <ele>56</ele>
        <time>2012-06-22T10:48:42Z</time>
      </trkpt>
      <trkpt lat="46.36994" lon="-0.68009">
        <ele>54</ele>
        <time>2012-06-22T10:48:47Z</time>
      </trkpt>
      <trkpt lat="46.36991" lon="-0.6801">
        <ele>50</ele>
        <time>2012-06-22T10:48:52Z</time>
      </trkpt>
      <trkpt lat="46.36986" lon="-0.68013">
        <ele>50</ele>
        <time>2012-06-22T10:48:57Z</time>
      </trkpt>
      <trkpt lat="46.3698" lon="-0.68015">
        <ele>52</ele>
        <time>2012-06-22T10:49:02Z</time>
      </trkpt>
      <trkpt lat="46.36975" lon="-0.68021">
        <ele>51</ele>
        <time>2012-06-22T10:49:07Z</time>
      </trkpt>
      <trkpt lat="46.36969" lon="-0.68025">
        <ele>51</ele>
        <time>2012-06-22T10:49:12Z</time>
      </trkpt>
      <trkpt lat="46.36965" lon="-0.68032">
        <ele>51</ele>
        <time>2012-06-22T10:49:17Z</time>
      </trkpt>
      <trkpt lat="46.36959" lon="-0.68036">
        <ele>53</ele>
        <time>2012-06-22T10:49:22Z</time>
      </trkpt>
      <trkpt lat="46.36956" lon="-0.68041">
        <ele>52</ele>
        <time>2012-06-22T10:49:27Z</time>
      </trkpt>
      <trkpt lat="46.36951" lon="-0.68042">
        <ele>52</ele>
        <time>2012-06-22T10:49:32Z</time>
      </trkpt>
      <trkpt lat="46.36943" lon="-0.68049">
        <ele>57</ele>
        <time>2012-06-22T10:49:37Z</time>
      </trkpt>
      <trkpt lat="46.3694" lon="-0.68052">
        <ele>56</ele>
        <time>2012-06-22T10:49:42Z</time>
      </trkpt>
      <trkpt lat="46.36934" lon="-0.68054">
        <ele>53</ele>
        <time>2012-06-22T10:49:47Z</time>
      </trkpt>
      <trkpt lat="46.36929" lon="-0.68057">
        <ele>53</ele>
        <time>2012-06-22T10:49:52Z</time>
      </trkpt>
      <trkpt lat="46.36923" lon="-0.68058">
        <ele>52</ele>
        <time>2012-06-22T10:49:57Z</time>
      </trkpt>
      <trkpt lat="46.36919" lon="-0.68061">
        <ele>51</ele>
        <time>2012-06-22T10:50:02Z</time>
      </trkpt>
      <trkpt lat="46.36914" lon="-0.68063">
        <ele>51</ele>
        <time>2012-06-22T10:50:07Z</time>
      </trkpt>
      <trkpt lat="46.36912" lon="-0.68067">
        <ele>53</ele>
        <time>2012-06-22T10:50:12Z</time>
      </trkpt>
      <trkpt lat="46.36907" lon="-0.68071">
        <ele>53</ele>
        <time>2012-06-22T10:50:17Z</time>
      </trkpt>
      <trkpt lat="46.36904" lon="-0.68073">
        <ele>54</ele>
        <time>2012-06-22T10:50:22Z</time>
      </trkpt>
      <trkpt lat="46.36898" lon="-0.68073">
        <ele>54</ele>
        <time>2012-06-22T10:50:27Z</time>
      </trkpt>
      <trkpt lat="46.36892" lon="-0.68077">
        <ele>53</ele>
        <time>2012-06-22T10:50:32Z</time>
      </trkpt>
      <trkpt lat="46.36888" lon="-0.68079">
        <ele>51</ele>
        <time>2012-06-22T10:50:37Z</time>
      </trkpt>
      <trkpt lat="46.36882" lon="-0.68081">
        <ele>52</ele>
        <time>2012-06-22T10:50:42Z</time>
      </trkpt>
      <trkpt lat="46.36877" lon="-0.68086">
        <ele>53</ele>
        <time>2012-06-22T10:50:47Z</time>
      </trkpt>
      <trkpt lat="46.36873" lon="-0.68091">
        <ele>52</ele>
        <time>2012-06-22T10:50:52Z</time>
      </trkpt>
      <trkpt lat="46.36868" lon="-0.68094">
        <ele>51</ele>
        <time>2012-06-22T10:50:57Z</time>
      </trkpt>
      <trkpt lat="46.36863" lon="-0.68098">
        <ele>54</ele>
        <time>2012-06-22T10:51:02Z</time>
      </trkpt>
      <trkpt lat="46.36858" lon="-0.68103">
        <ele>53</ele>
        <time>2012-06-22T10:51:07Z</time>
      </trkpt>
      <trkpt lat="46.36852" lon="-0.68107">
        <ele>53</ele>
        <time>2012-06-22T10:51:12Z</time>
      </trkpt>
      <trkpt lat="46.36846" lon="-0.68113">
        <ele>52</ele>
        <time>2012-06-22T10:51:17Z</time>
      </trkpt>
      <trkpt lat="46.36842" lon="-0.68118">
        <ele>52</ele>
        <time>2012-06-22T10:51:22Z</time>
      </trkpt>
      <trkpt lat="46.36837" lon="-0.6812">
        <ele>52</ele>
        <time>2012-06-22T10:51:27Z</time>
      </trkpt>
      <trkpt lat="46.36832" lon="-0.68123">
        <ele>54</ele>
        <time>2012-06-22T10:51:32Z</time>
      </trkpt>
      <trkpt lat="46.36826" lon="-0.68127">
        <ele>55</ele>
        <time>2012-06-22T10:51:37Z</time>
      </trkpt>
      <trkpt lat="46.36822" lon="-0.68131">
        <ele>54</ele>
        <time>2012-06-22T10:51:42Z</time>
      </trkpt>
      <trkpt lat="46.36822" lon="-0.68131">
        <ele>54</ele>
        <time>2012-06-22T10:51:52Z</time>
      </trkpt>
      <trkpt lat="46.36819" lon="-0.68131">
        <ele>54</ele>
        <time>2012-06-22T10:52:07Z</time>
      </trkpt>
      <trkpt lat="46.36814" lon="-0.68133">
        <ele>53</ele>
        <time>2012-06-22T10:52:12Z</time>
      </trkpt>
      <trkpt lat="46.36809" lon="-0.68136">
        <ele>53</ele>
        <time>2012-06-22T10:52:17Z</time>
      </trkpt>
      <trkpt lat="46.36803" lon="-0.68139">
        <ele>53</ele>
        <time>2012-06-22T10:52:22Z</time>
      </trkpt>
      <trkpt lat="46.36795" lon="-0.68144">
        <ele>53</ele>
        <time>2012-06-22T10:52:27Z</time>
      </trkpt>
      <trkpt lat="46.36792" lon="-0.68147">
        <ele>52</ele>
        <time>2012-06-22T10:52:32Z</time>
      </trkpt>
      <trkpt lat="46.36787" lon="-0.68156">
        <ele>53</ele>
        <time>2012-06-22T10:52:37Z</time>
      </trkpt>
      <trkpt lat="46.3678" lon="-0.68159">
        <ele>53</ele>
        <time>2012-06-22T10:52:42Z</time>
      </trkpt>
      <trkpt lat="46.36773" lon="-0.68165">
        <ele>53</ele>
        <time>2012-06-22T10:52:47Z</time>
      </trkpt>
      <trkpt lat="46.36766" lon="-0.68169">
        <ele>55</ele>
        <time>2012-06-22T10:52:52Z</time>
      </trkpt>
      <trkpt lat="46.3676" lon="-0.68174">
        <ele>56</ele>
        <time>2012-06-22T10:52:57Z</time>
      </trkpt>
      <trkpt lat="46.36752" lon="-0.68174">
        <ele>53</ele>
        <time>2012-06-22T10:53:02Z</time>
      </trkpt>
      <trkpt lat="46.36745" lon="-0.68177">
        <ele>53</ele>
        <time>2012-06-22T10:53:07Z</time>
      </trkpt>
      <trkpt lat="46.36741" lon="-0.68183">
        <ele>55</ele>
        <time>2012-06-22T10:53:12Z</time>
      </trkpt>
      <trkpt lat="46.36735" lon="-0.68188">
        <ele>57</ele>
        <time>2012-06-22T10:53:17Z</time>
      </trkpt>
      <trkpt lat="46.36732" lon="-0.68188">
        <ele>54</ele>
        <time>2012-06-22T10:53:22Z</time>
      </trkpt>
      <trkpt lat="46.36726" lon="-0.68194">
        <ele>54</ele>
        <time>2012-06-22T10:53:27Z</time>
      </trkpt>
      <trkpt lat="46.36721" lon="-0.68197">
        <ele>51</ele>
        <time>2012-06-22T10:53:32Z</time>
      </trkpt>
      <trkpt lat="46.36716" lon="-0.68199">
        <ele>50</ele>
        <time>2012-06-22T10:53:37Z</time>
      </trkpt>
      <trkpt lat="46.36711" lon="-0.68202">
        <ele>46</ele>
        <time>2012-06-22T10:53:42Z</time>
      </trkpt>
      <trkpt lat="46.36705" lon="-0.68206">
        <ele>46</ele>
        <time>2012-06-22T10:53:47Z</time>
      </trkpt>
      <trkpt lat="46.36699" lon="-0.68211">
        <ele>46</ele>
        <time>2012-06-22T10:53:52Z</time>
      </trkpt>
      <trkpt lat="46.36693" lon="-0.68217">
        <ele>48</ele>
        <time>2012-06-22T10:53:57Z</time>
      </trkpt>
      <trkpt lat="46.36691" lon="-0.68217">
        <ele>43</ele>
        <time>2012-06-22T10:54:02Z</time>
      </trkpt>
      <trkpt lat="46.36684" lon="-0.68224">
        <ele>44</ele>
        <time>2012-06-22T10:54:07Z</time>
      </trkpt>
      <trkpt lat="46.36677" lon="-0.68227">
        <ele>45</ele>
        <time>2012-06-22T10:54:12Z</time>
      </trkpt>
      <trkpt lat="46.36673" lon="-0.68228">
        <ele>46</ele>
        <time>2012-06-22T10:54:17Z</time>
      </trkpt>
      <trkpt lat="46.36669" lon="-0.68231">
        <ele>44</ele>
        <time>2012-06-22T10:54:22Z</time>
      </trkpt>
      <trkpt lat="46.36664" lon="-0.68234">
        <ele>41</ele>
        <time>2012-06-22T10:54:27Z</time>
      </trkpt>
      <trkpt lat="46.3666" lon="-0.68238">
        <ele>43</ele>
        <time>2012-06-22T10:54:32Z</time>
      </trkpt>
      <trkpt lat="46.36655" lon="-0.6824">
        <ele>41</ele>
        <time>2012-06-22T10:54:37Z</time>
      </trkpt>
      <trkpt lat="46.36649" lon="-0.68242">
        <ele>41</ele>
        <time>2012-06-22T10:54:42Z</time>
      </trkpt>
      <trkpt lat="46.36644" lon="-0.68246">
        <ele>40</ele>
        <time>2012-06-22T10:54:47Z</time>
      </trkpt>
      <trkpt lat="46.3664" lon="-0.68249">
        <ele>41</ele>
        <time>2012-06-22T10:54:52Z</time>
      </trkpt>
      <trkpt lat="46.36635" lon="-0.68254">
        <ele>44</ele>
        <time>2012-06-22T10:54:57Z</time>
      </trkpt>
      <trkpt lat="46.3663" lon="-0.68257">
        <ele>44</ele>
        <time>2012-06-22T10:55:02Z</time>
      </trkpt>
      <trkpt lat="46.36625" lon="-0.68263">
        <ele>46</ele>
        <time>2012-06-22T10:55:07Z</time>
      </trkpt>
      <trkpt lat="46.36619" lon="-0.68266">
        <ele>44</ele>
        <time>2012-06-22T10:55:12Z</time>
      </trkpt>
      <trkpt lat="46.36615" lon="-0.68271">
        <ele>44</ele>
        <time>2012-06-22T10:55:17Z</time>
      </trkpt>
      <trkpt lat="46.36611" lon="-0.68273">
        <ele>44</ele>
        <time>2012-06-22T10:55:22Z</time>
      </trkpt>
      <trkpt lat="46.36607" lon="-0.68277">
        <ele>44</ele>
        <time>2012-06-22T10:55:27Z</time>
      </trkpt>
      <trkpt lat="46.366" lon="-0.68281">
        <ele>44</ele>
        <time>2012-06-22T10:55:32Z</time>
      </trkpt>
      <trkpt lat="46.36595" lon="-0.68283">
        <ele>42</ele>
        <time>2012-06-22T10:55:37Z</time>
      </trkpt>
      <trkpt lat="46.3659" lon="-0.68287">
        <ele>41</ele>
        <time>2012-06-22T10:55:42Z</time>
      </trkpt>
      <trkpt lat="46.36586" lon="-0.68291">
        <ele>39</ele>
        <time>2012-06-22T10:55:47Z</time>
      </trkpt>
      <trkpt lat="46.36581" lon="-0.68293">
        <ele>38</ele>
        <time>2012-06-22T10:55:52Z</time>
      </trkpt>
      <trkpt lat="46.36577" lon="-0.68297">
        <ele>39</ele>
        <time>2012-06-22T10:55:57Z</time>
      </trkpt>
      <trkpt lat="46.36572" lon="-0.68297">
        <ele>35</ele>
        <time>2012-06-22T10:56:02Z</time>
      </trkpt>
      <trkpt lat="46.36567" lon="-0.683">
        <ele>35</ele>
        <time>2012-06-22T10:56:07Z</time>
      </trkpt>
      <trkpt lat="46.36562" lon="-0.68303">
        <ele>36</ele>
        <time>2012-06-22T10:56:12Z</time>
      </trkpt>
      <trkpt lat="46.36556" lon="-0.68311">
        <ele>38</ele>
        <time>2012-06-22T10:56:17Z</time>
      </trkpt>
      <trkpt lat="46.36551" lon="-0.68314">
        <ele>39</ele>
        <time>2012-06-22T10:56:22Z</time>
      </trkpt>
      <trkpt lat="46.36546" lon="-0.68316">
        <ele>41</ele>
        <time>2012-06-22T10:56:27Z</time>
      </trkpt>
      <trkpt lat="46.36542" lon="-0.68321">
        <ele>44</ele>
        <time>2012-06-22T10:56:32Z</time>
      </trkpt>
      <trkpt lat="46.36535" lon="-0.68326">
        <ele>46</ele>
        <time>2012-06-22T10:56:37Z</time>
      </trkpt>
      <trkpt lat="46.36528" lon="-0.68329">
        <ele>46</ele>
        <time>2012-06-22T10:56:42Z</time>
      </trkpt>
      <trkpt lat="46.36522" lon="-0.68332">
        <ele>47</ele>
        <time>2012-06-22T10:56:47Z</time>
      </trkpt>
      <trkpt lat="46.36518" lon="-0.68337">
        <ele>51</ele>
        <time>2012-06-22T10:56:52Z</time>
      </trkpt>
      <trkpt lat="46.36515" lon="-0.68342">
        <ele>52</ele>
        <time>2012-06-22T10:56:57Z</time>
      </trkpt>
      <trkpt lat="46.36509" lon="-0.68346">
        <ele>52</ele>
        <time>2012-06-22T10:57:02Z</time>
      </trkpt>
      <trkpt lat="46.36502" lon="-0.6835">
        <ele>53</ele>
        <time>2012-06-22T10:57:07Z</time>
      </trkpt>
      <trkpt lat="46.36498" lon="-0.68352">
        <ele>54</ele>
        <time>2012-06-22T10:57:12Z</time>
      </trkpt>
      <trkpt lat="46.36493" lon="-0.68356">
        <ele>56</ele>
        <time>2012-06-22T10:57:17Z</time>
      </trkpt>
      <trkpt lat="46.36488" lon="-0.68357">
        <ele>53</ele>
        <time>2012-06-22T10:57:22Z</time>
      </trkpt>
      <trkpt lat="46.36482" lon="-0.68362">
        <ele>55</ele>
        <time>2012-06-22T10:57:27Z</time>
      </trkpt>
      <trkpt lat="46.36478" lon="-0.68366">
        <ele>56</ele>
        <time>2012-06-22T10:57:32Z</time>
      </trkpt>
      <trkpt lat="46.36475" lon="-0.68371">
        <ele>58</ele>
        <time>2012-06-22T10:57:37Z</time>
      </trkpt>
      <trkpt lat="46.36469" lon="-0.68374">
        <ele>59</ele>
        <time>2012-06-22T10:57:42Z</time>
      </trkpt>
      <trkpt lat="46.36463" lon="-0.68377">
        <ele>58</ele>
        <time>2012-06-22T10:57:47Z</time>
      </trkpt>
      <trkpt lat="46.3646" lon="-0.6838">
        <ele>58</ele>
        <time>2012-06-22T10:57:52Z</time>
      </trkpt>
      <trkpt lat="46.36454" lon="-0.68383">
        <ele>58</ele>
        <time>2012-06-22T10:57:57Z</time>
      </trkpt>
      <trkpt lat="46.3645" lon="-0.68385">
        <ele>58</ele>
        <time>2012-06-22T10:58:02Z</time>
      </trkpt>
      <trkpt lat="46.36445" lon="-0.6839">
        <ele>58</ele>
        <time>2012-06-22T10:58:07Z</time>
      </trkpt>
      <trkpt lat="46.36441" lon="-0.68393">
        <ele>56</ele>
        <time>2012-06-22T10:58:12Z</time>
      </trkpt>
      <trkpt lat="46.36436" lon="-0.68395">
        <ele>58</ele>
        <time>2012-06-22T10:58:17Z</time>
      </trkpt>
      <trkpt lat="46.36433" lon="-0.68399">
        <ele>59</ele>
        <time>2012-06-22T10:58:22Z</time>
      </trkpt>
      <trkpt lat="46.36429" lon="-0.68403">
        <ele>59</ele>
        <time>2012-06-22T10:58:27Z</time>
      </trkpt>
      <trkpt lat="46.36425" lon="-0.68406">
        <ele>58</ele>
        <time>2012-06-22T10:58:32Z</time>
      </trkpt>
      <trkpt lat="46.36423" lon="-0.68406">
        <ele>56</ele>
        <time>2012-06-22T10:58:37Z</time>
      </trkpt>
      <trkpt lat="46.36423" lon="-0.68406">
        <ele>56</ele>
        <time>2012-06-22T10:58:42Z</time>
      </trkpt>
      <trkpt lat="46.36423" lon="-0.68405">
        <ele>56</ele>
        <time>2012-06-22T10:58:47Z</time>
      </trkpt>
      <trkpt lat="46.36423" lon="-0.68406">
        <ele>57</ele>
        <time>2012-06-22T10:58:52Z</time>
      </trkpt>
      <trkpt lat="46.36423" lon="-0.68408">
        <ele>57</ele>
        <time>2012-06-22T10:59:02Z</time>
      </trkpt>
      <trkpt lat="46.3642" lon="-0.68412">
        <ele>57</ele>
        <time>2012-06-22T10:59:07Z</time>
      </trkpt>
      <trkpt lat="46.36418" lon="-0.68416">
        <ele>60</ele>
        <time>2012-06-22T10:59:12Z</time>
      </trkpt>
      <trkpt lat="46.36414" lon="-0.68417">
        <ele>60</ele>
        <time>2012-06-22T10:59:17Z</time>
      </trkpt>
      <trkpt lat="46.36409" lon="-0.6842">
        <ele>62</ele>
        <time>2012-06-22T10:59:22Z</time>
      </trkpt>
      <trkpt lat="46.36404" lon="-0.68425">
        <ele>62</ele>
        <time>2012-06-22T10:59:27Z</time>
      </trkpt>
      <trkpt lat="46.36401" lon="-0.68426">
        <ele>60</ele>
        <time>2012-06-22T10:59:32Z</time>
      </trkpt>
      <trkpt lat="46.36396" lon="-0.6843">
        <ele>60</ele>
        <time>2012-06-22T10:59:37Z</time>
      </trkpt>
      <trkpt lat="46.36391" lon="-0.68433">
        <ele>59</ele>
        <time>2012-06-22T10:59:42Z</time>
      </trkpt>
      <trkpt lat="46.36386" lon="-0.6844">
        <ele>61</ele>
        <time>2012-06-22T10:59:47Z</time>
      </trkpt>
      <trkpt lat="46.36382" lon="-0.68442">
        <ele>60</ele>
        <time>2012-06-22T10:59:52Z</time>
      </trkpt>
      <trkpt lat="46.36376" lon="-0.68444">
        <ele>61</ele>
        <time>2012-06-22T10:59:57Z</time>
      </trkpt>
      <trkpt lat="46.36371" lon="-0.68446">
        <ele>58</ele>
        <time>2012-06-22T11:00:02Z</time>
      </trkpt>
      <trkpt lat="46.36367" lon="-0.68448">
        <ele>57</ele>
        <time>2012-06-22T11:00:07Z</time>
      </trkpt>
      <trkpt lat="46.36362" lon="-0.68452">
        <ele>57</ele>
        <time>2012-06-22T11:00:12Z</time>
      </trkpt>
      <trkpt lat="46.36355" lon="-0.68455">
        <ele>57</ele>
        <time>2012-06-22T11:00:17Z</time>
      </trkpt>
      <trkpt lat="46.36351" lon="-0.68457">
        <ele>58</ele>
        <time>2012-06-22T11:00:22Z</time>
      </trkpt>
      <trkpt lat="46.36346" lon="-0.68461">
        <ele>58</ele>
        <time>2012-06-22T11:00:27Z</time>
      </trkpt>
      <trkpt lat="46.36343" lon="-0.68464">
        <ele>58</ele>
        <time>2012-06-22T11:00:32Z</time>
      </trkpt>
      <trkpt lat="46.36336" lon="-0.68468">
        <ele>55</ele>
        <time>2012-06-22T11:00:37Z</time>
      </trkpt>
      <trkpt lat="46.36331" lon="-0.6847">
        <ele>54</ele>
        <time>2012-06-22T11:00:42Z</time>
      </trkpt>
      <trkpt lat="46.36326" lon="-0.68474">
        <ele>54</ele>
        <time>2012-06-22T11:00:47Z</time>
      </trkpt>
      <trkpt lat="46.36321" lon="-0.68478">
        <ele>53</ele>
        <time>2012-06-22T11:00:52Z</time>
      </trkpt>
      <trkpt lat="46.36317" lon="-0.68481">
        <ele>54</ele>
        <time>2012-06-22T11:00:57Z</time>
      </trkpt>
      <trkpt lat="46.36311" lon="-0.68485">
        <ele>51</ele>
        <time>2012-06-22T11:01:02Z</time>
      </trkpt>
      <trkpt lat="46.36306" lon="-0.68489">
        <ele>48</ele>
        <time>2012-06-22T11:01:07Z</time>
      </trkpt>
      <trkpt lat="46.36299" lon="-0.68492">
        <ele>47</ele>
        <time>2012-06-22T11:01:12Z</time>
      </trkpt>
      <trkpt lat="46.36293" lon="-0.68494">
        <ele>44</ele>
        <time>2012-06-22T11:01:17Z</time>
      </trkpt>
      <trkpt lat="46.36288" lon="-0.68498">
        <ele>44</ele>
        <time>2012-06-22T11:01:22Z</time>
      </trkpt>
      <trkpt lat="46.36284" lon="-0.68501">
        <ele>42</ele>
        <time>2012-06-22T11:01:27Z</time>
      </trkpt>
      <trkpt lat="46.36278" lon="-0.68505">
        <ele>41</ele>
        <time>2012-06-22T11:01:32Z</time>
      </trkpt>
      <trkpt lat="46.36273" lon="-0.68508">
        <ele>43</ele>
        <time>2012-06-22T11:01:37Z</time>
      </trkpt>
      <trkpt lat="46.36269" lon="-0.68514">
        <ele>46</ele>
        <time>2012-06-22T11:01:42Z</time>
      </trkpt>
      <trkpt lat="46.36264" lon="-0.68518">
        <ele>47</ele>
        <time>2012-06-22T11:01:47Z</time>
      </trkpt>
      <trkpt lat="46.3626" lon="-0.68517">
        <ele>48</ele>
        <time>2012-06-22T11:01:52Z</time>
      </trkpt>
      <trkpt lat="46.36254" lon="-0.68522">
        <ele>49</ele>
        <time>2012-06-22T11:01:57Z</time>
      </trkpt>
      <trkpt lat="46.3625" lon="-0.68526">
        <ele>52</ele>
        <time>2012-06-22T11:02:02Z</time>
      </trkpt>
      <trkpt lat="46.36245" lon="-0.6853">
        <ele>51</ele>
        <time>2012-06-22T11:02:07Z</time>
      </trkpt>
      <trkpt lat="46.3624" lon="-0.68535">
        <ele>52</ele>
        <time>2012-06-22T11:02:12Z</time>
      </trkpt>
      <trkpt lat="46.36236" lon="-0.68538">
        <ele>53</ele>
        <time>2012-06-22T11:02:17Z</time>
      </trkpt>
      <trkpt lat="46.3623" lon="-0.68541">
        <ele>54</ele>
        <time>2012-06-22T11:02:22Z</time>
      </trkpt>
      <trkpt lat="46.36226" lon="-0.68543">
        <ele>51</ele>
        <time>2012-06-22T11:02:27Z</time>
      </trkpt>
      <trkpt lat="46.36222" lon="-0.68547">
        <ele>50</ele>
        <time>2012-06-22T11:02:32Z</time>
      </trkpt>
      <trkpt lat="46.36218" lon="-0.68552">
        <ele>51</ele>
        <time>2012-06-22T11:02:37Z</time>
      </trkpt>
      <trkpt lat="46.36213" lon="-0.68555">
        <ele>48</ele>
        <time>2012-06-22T11:02:42Z</time>
      </trkpt>
      <trkpt lat="46.3621" lon="-0.68557">
        <ele>48</ele>
        <time>2012-06-22T11:02:47Z</time>
      </trkpt>
      <trkpt lat="46.36205" lon="-0.68558">
        <ele>50</ele>
        <time>2012-06-22T11:02:52Z</time>
      </trkpt>
      <trkpt lat="46.36202" lon="-0.68563">
        <ele>49</ele>
        <time>2012-06-22T11:02:57Z</time>
      </trkpt>
      <trkpt lat="46.36198" lon="-0.6857">
        <ele>52</ele>
        <time>2012-06-22T11:03:02Z</time>
      </trkpt>
      <trkpt lat="46.36195" lon="-0.68572">
        <ele>51</ele>
        <time>2012-06-22T11:03:07Z</time>
      </trkpt>
      <trkpt lat="46.36195" lon="-0.68572">
        <ele>52</ele>
        <time>2012-06-22T11:03:12Z</time>
      </trkpt>
      <trkpt lat="46.36192" lon="-0.68573">
        <ele>52</ele>
        <time>2012-06-22T11:03:17Z</time>
      </trkpt>
      <trkpt lat="46.36185" lon="-0.68578">
        <ele>53</ele>
        <time>2012-06-22T11:03:22Z</time>
      </trkpt>
      <trkpt lat="46.3618" lon="-0.6858">
        <ele>52</ele>
        <time>2012-06-22T11:03:27Z</time>
      </trkpt>
      <trkpt lat="46.36175" lon="-0.68584">
        <ele>54</ele>
        <time>2012-06-22T11:03:32Z</time>
      </trkpt>
      <trkpt lat="46.3617" lon="-0.68585">
        <ele>55</ele>
        <time>2012-06-22T11:03:37Z</time>
      </trkpt>
      <trkpt lat="46.36164" lon="-0.68589">
        <ele>55</ele>
        <time>2012-06-22T11:03:42Z</time>
      </trkpt>
      <trkpt lat="46.36157" lon="-0.68593">
        <ele>56</ele>
        <time>2012-06-22T11:03:47Z</time>
      </trkpt>
      <trkpt lat="46.36151" lon="-0.68596">
        <ele>55</ele>
        <time>2012-06-22T11:03:52Z</time>
      </trkpt>
      <trkpt lat="46.36145" lon="-0.68601">
        <ele>54</ele>
        <time>2012-06-22T11:03:57Z</time>
      </trkpt>
      <trkpt lat="46.3614" lon="-0.68606">
        <ele>52</ele>
        <time>2012-06-22T11:04:02Z</time>
      </trkpt>
      <trkpt lat="46.36134" lon="-0.68612">
        <ele>52</ele>
        <time>2012-06-22T11:04:07Z</time>
      </trkpt>
      <trkpt lat="46.36129" lon="-0.68616">
        <ele>53</ele>
        <time>2012-06-22T11:04:12Z</time>
      </trkpt>
      <trkpt lat="46.36124" lon="-0.68615">
        <ele>56</ele>
        <time>2012-06-22T11:04:17Z</time>
      </trkpt>
      <trkpt lat="46.36118" lon="-0.68621">
        <ele>57</ele>
        <time>2012-06-22T11:04:22Z</time>
      </trkpt>
      <trkpt lat="46.36112" lon="-0.68628">
        <ele>60</ele>
        <time>2012-06-22T11:04:27Z</time>
      </trkpt>
      <trkpt lat="46.36108" lon="-0.68633">
        <ele>60</ele>
        <time>2012-06-22T11:04:32Z</time>
      </trkpt>
      <trkpt lat="46.36102" lon="-0.68638">
        <ele>59</ele>
        <time>2012-06-22T11:04:37Z</time>
      </trkpt>
      <trkpt lat="46.36096" lon="-0.68641">
        <ele>60</ele>
        <time>2012-06-22T11:04:42Z</time>
      </trkpt>
      <trkpt lat="46.3609" lon="-0.68644">
        <ele>56</ele>
        <time>2012-06-22T11:04:47Z</time>
      </trkpt>
      <trkpt lat="46.36086" lon="-0.6865">
        <ele>56</ele>
        <time>2012-06-22T11:04:52Z</time>
      </trkpt>
      <trkpt lat="46.36085" lon="-0.68653">
        <ele>55</ele>
        <time>2012-06-22T11:04:57Z</time>
      </trkpt>
      <trkpt lat="46.36081" lon="-0.68655">
        <ele>55</ele>
        <time>2012-06-22T11:05:02Z</time>
      </trkpt>
      <trkpt lat="46.36073" lon="-0.6866">
        <ele>55</ele>
        <time>2012-06-22T11:05:07Z</time>
      </trkpt>
      <trkpt lat="46.36069" lon="-0.68661">
        <ele>55</ele>
        <time>2012-06-22T11:05:12Z</time>
      </trkpt>
      <trkpt lat="46.36064" lon="-0.68661">
        <ele>55</ele>
        <time>2012-06-22T11:05:17Z</time>
      </trkpt>
      <trkpt lat="46.3606" lon="-0.68663">
        <ele>57</ele>
        <time>2012-06-22T11:05:22Z</time>
      </trkpt>
      <trkpt lat="46.36059" lon="-0.68662">
        <ele>57</ele>
        <time>2012-06-22T11:05:27Z</time>
      </trkpt>
      <trkpt lat="46.36059" lon="-0.68662">
        <ele>56</ele>
        <time>2012-06-22T11:05:32Z</time>
      </trkpt>
      <trkpt lat="46.36058" lon="-0.68662">
        <ele>56</ele>
        <time>2012-06-22T11:05:37Z</time>
      </trkpt>
      <trkpt lat="46.36056" lon="-0.68658">
        <ele>56</ele>
        <time>2012-06-22T11:05:42Z</time>
      </trkpt>
      <trkpt lat="46.36048" lon="-0.68645">
        <ele>57</ele>
        <time>2012-06-22T11:05:47Z</time>
      </trkpt>
      <trkpt lat="46.36045" lon="-0.68639">
        <ele>59</ele>
        <time>2012-06-22T11:05:52Z</time>
      </trkpt>
      <trkpt lat="46.36043" lon="-0.68633">
        <ele>58</ele>
        <time>2012-06-22T11:05:57Z</time>
      </trkpt>
      <trkpt lat="46.36037" lon="-0.68629">
        <ele>57</ele>
        <time>2012-06-22T11:06:02Z</time>
      </trkpt>
      <trkpt lat="46.36035" lon="-0.68623">
        <ele>57</ele>
        <time>2012-06-22T11:06:07Z</time>
      </trkpt>
      <trkpt lat="46.36034" lon="-0.68617">
        <ele>58</ele>
        <time>2012-06-22T11:06:12Z</time>
      </trkpt>
      <trkpt lat="46.36035" lon="-0.68611">
        <ele>57</ele>
        <time>2012-06-22T11:06:17Z</time>
      </trkpt>
      <trkpt lat="46.36036" lon="-0.68607">
        <ele>58</ele>
        <time>2012-06-22T11:06:22Z</time>
      </trkpt>
      <trkpt lat="46.36038" lon="-0.686">
        <ele>63</ele>
        <time>2012-06-22T11:06:27Z</time>
      </trkpt>
      <trkpt lat="46.3604" lon="-0.68595">
        <ele>62</ele>
        <time>2012-06-22T11:06:32Z</time>
      </trkpt>
      <trkpt lat="46.36042" lon="-0.68587">
        <ele>59</ele>
        <time>2012-06-22T11:06:37Z</time>
      </trkpt>
      <trkpt lat="46.36043" lon="-0.68579">
        <ele>57</ele>
        <time>2012-06-22T11:06:42Z</time>
      </trkpt>
      <trkpt lat="46.36044" lon="-0.68572">
        <ele>58</ele>
        <time>2012-06-22T11:06:47Z</time>
      </trkpt>
      <trkpt lat="46.36045" lon="-0.68563">
        <ele>59</ele>
        <time>2012-06-22T11:06:52Z</time>
      </trkpt>
      <trkpt lat="46.36046" lon="-0.68554">
        <ele>59</ele>
        <time>2012-06-22T11:06:57Z</time>
      </trkpt>
      <trkpt lat="46.36046" lon="-0.68552">
        <ele>59</ele>
        <time>2012-06-22T11:07:02Z</time>
      </trkpt>
      <trkpt lat="46.36048" lon="-0.68548">
        <ele>58</ele>
        <time>2012-06-22T11:07:07Z</time>
      </trkpt>
      <trkpt lat="46.36048" lon="-0.6854">
        <ele>57</ele>
        <time>2012-06-22T11:07:12Z</time>
      </trkpt>
      <trkpt lat="46.36049" lon="-0.6853">
        <ele>58</ele>
        <time>2012-06-22T11:07:17Z</time>
      </trkpt>
      <trkpt lat="46.36049" lon="-0.68524">
        <ele>58</ele>
        <time>2012-06-22T11:07:22Z</time>
      </trkpt>
      <trkpt lat="46.36049" lon="-0.68517">
        <ele>57</ele>
        <time>2012-06-22T11:07:27Z</time>
      </trkpt>
      <trkpt lat="46.3605" lon="-0.68516">
        <ele>57</ele>
        <time>2012-06-22T11:07:32Z</time>
      </trkpt>
      <trkpt lat="46.3605" lon="-0.68515">
        <ele>57</ele>
        <time>2012-06-22T11:07:42Z</time>
      </trkpt>
      <trkpt lat="46.3605" lon="-0.68511">
        <ele>57</ele>
        <time>2012-06-22T11:07:47Z</time>
      </trkpt>
      <trkpt lat="46.36053" lon="-0.68505">
        <ele>57</ele>
        <time>2012-06-22T11:07:52Z</time>
      </trkpt>
      <trkpt lat="46.36055" lon="-0.68497">
        <ele>58</ele>
        <time>2012-06-22T11:07:57Z</time>
      </trkpt>
      <trkpt lat="46.36056" lon="-0.68489">
        <ele>58</ele>
        <time>2012-06-22T11:08:02Z</time>
      </trkpt>
      <trkpt lat="46.36056" lon="-0.6848">
        <ele>56</ele>
        <time>2012-06-22T11:08:07Z</time>
      </trkpt>
      <trkpt lat="46.36056" lon="-0.68472">
        <ele>55</ele>
        <time>2012-06-22T11:08:12Z</time>
      </trkpt>
      <trkpt lat="46.36057" lon="-0.68463">
        <ele>55</ele>
        <time>2012-06-22T11:08:17Z</time>
      </trkpt>
      <trkpt lat="46.36061" lon="-0.68453">
        <ele>49</ele>
        <time>2012-06-22T11:08:22Z</time>
      </trkpt>
      <trkpt lat="46.36063" lon="-0.68446">
        <ele>50</ele>
        <time>2012-06-22T11:08:27Z</time>
      </trkpt>
      <trkpt lat="46.36063" lon="-0.68438">
        <ele>44</ele>
        <time>2012-06-22T11:08:32Z</time>
      </trkpt>
      <trkpt lat="46.36063" lon="-0.68429">
        <ele>42</ele>
        <time>2012-06-22T11:08:37Z</time>
      </trkpt>
      <trkpt lat="46.36064" lon="-0.68421">
        <ele>44</ele>
        <time>2012-06-22T11:08:42Z</time>
      </trkpt>
      <trkpt lat="46.36065" lon="-0.68412">
        <ele>44</ele>
        <time>2012-06-22T11:08:47Z</time>
      </trkpt>
      <trkpt lat="46.36066" lon="-0.68404">
        <ele>44</ele>
        <time>2012-06-22T11:08:52Z</time>
      </trkpt>
      <trkpt lat="46.36065" lon="-0.68398">
        <ele>42</ele>
        <time>2012-06-22T11:08:57Z</time>
      </trkpt>
      <trkpt lat="46.36067" lon="-0.6839">
        <ele>43</ele>
        <time>2012-06-22T11:09:02Z</time>
      </trkpt>
      <trkpt lat="46.36068" lon="-0.68383">
        <ele>44</ele>
        <time>2012-06-22T11:09:07Z</time>
      </trkpt>
      <trkpt lat="46.36068" lon="-0.68375">
        <ele>44</ele>
        <time>2012-06-22T11:09:12Z</time>
      </trkpt>
      <trkpt lat="46.3607" lon="-0.68367">
        <ele>44</ele>
        <time>2012-06-22T11:09:17Z</time>
      </trkpt>
      <trkpt lat="46.36071" lon="-0.68358">
        <ele>45</ele>
        <time>2012-06-22T11:09:22Z</time>
      </trkpt>
      <trkpt lat="46.36071" lon="-0.68351">
        <ele>47</ele>
        <time>2012-06-22T11:09:27Z</time>
      </trkpt>
      <trkpt lat="46.36074" lon="-0.68345">
        <ele>49</ele>
        <time>2012-06-22T11:09:32Z</time>
      </trkpt>
      <trkpt lat="46.36074" lon="-0.68344">
        <ele>50</ele>
        <time>2012-06-22T11:09:37Z</time>
      </trkpt>
      <trkpt lat="46.36073" lon="-0.68344">
        <ele>50</ele>
        <time>2012-06-22T11:09:42Z</time>
      </trkpt>
      <trkpt lat="46.36073" lon="-0.68343">
        <ele>51</ele>
        <time>2012-06-22T11:09:47Z</time>
      </trkpt>
      <trkpt lat="46.36075" lon="-0.68334">
        <ele>51</ele>
        <time>2012-06-22T11:09:52Z</time>
      </trkpt>
      <trkpt lat="46.36077" lon="-0.68326">
        <ele>52</ele>
        <time>2012-06-22T11:09:57Z</time>
      </trkpt>
      <trkpt lat="46.36077" lon="-0.68319">
        <ele>52</ele>
        <time>2012-06-22T11:10:02Z</time>
      </trkpt>
      <trkpt lat="46.36077" lon="-0.68314">
        <ele>51</ele>
        <time>2012-06-22T11:10:07Z</time>
      </trkpt>
      <trkpt lat="46.36076" lon="-0.68312">
        <ele>51</ele>
        <time>2012-06-22T11:10:12Z</time>
      </trkpt>
      <trkpt lat="46.36077" lon="-0.68311">
        <ele>51</ele>
        <time>2012-06-22T11:10:17Z</time>
      </trkpt>
      <trkpt lat="46.36077" lon="-0.6831">
        <ele>51</ele>
        <time>2012-06-22T11:10:22Z</time>
      </trkpt>
      <trkpt lat="46.36077" lon="-0.68309">
        <ele>51</ele>
        <time>2012-06-22T11:10:27Z</time>
      </trkpt>
      <trkpt lat="46.36077" lon="-0.68309">
        <ele>52</ele>
        <time>2012-06-22T11:10:32Z</time>
      </trkpt>
      <trkpt lat="46.36078" lon="-0.68308">
        <ele>53</ele>
        <time>2012-06-22T11:10:37Z</time>
      </trkpt>
      <trkpt lat="46.36077" lon="-0.68309">
        <ele>53</ele>
        <time>2012-06-22T11:10:42Z</time>
      </trkpt>
      <trkpt lat="46.36081" lon="-0.68309">
        <ele>55</ele>
        <time>2012-06-22T11:10:57Z</time>
      </trkpt>
      <trkpt lat="46.36081" lon="-0.68301">
        <ele>57</ele>
        <time>2012-06-22T11:11:02Z</time>
      </trkpt>
      <trkpt lat="46.36082" lon="-0.68293">
        <ele>59</ele>
        <time>2012-06-22T11:11:07Z</time>
      </trkpt>
      <trkpt lat="46.36083" lon="-0.68284">
        <ele>59</ele>
        <time>2012-06-22T11:11:12Z</time>
      </trkpt>
      <trkpt lat="46.36082" lon="-0.68277">
        <ele>59</ele>
        <time>2012-06-22T11:11:17Z</time>
      </trkpt>
      <trkpt lat="46.36085" lon="-0.68269">
        <ele>60</ele>
        <time>2012-06-22T11:11:22Z</time>
      </trkpt>
      <trkpt lat="46.36088" lon="-0.68262">
        <ele>60</ele>
        <time>2012-06-22T11:11:27Z</time>
      </trkpt>
      <trkpt lat="46.36089" lon="-0.68253">
        <ele>57</ele>
        <time>2012-06-22T11:11:32Z</time>
      </trkpt>
      <trkpt lat="46.36089" lon="-0.68247">
        <ele>60</ele>
        <time>2012-06-22T11:11:37Z</time>
      </trkpt>
      <trkpt lat="46.3609" lon="-0.68238">
        <ele>59</ele>
        <time>2012-06-22T11:11:42Z</time>
      </trkpt>
      <trkpt lat="46.36089" lon="-0.68231">
        <ele>58</ele>
        <time>2012-06-22T11:11:47Z</time>
      </trkpt>
      <trkpt lat="46.3609" lon="-0.68221">
        <ele>55</ele>
        <time>2012-06-22T11:11:52Z</time>
      </trkpt>
      <trkpt lat="46.3609" lon="-0.68211">
        <ele>51</ele>
        <time>2012-06-22T11:11:57Z</time>
      </trkpt>
      <trkpt lat="46.36089" lon="-0.68204">
        <ele>51</ele>
        <time>2012-06-22T11:12:02Z</time>
      </trkpt>
      <trkpt lat="46.36088" lon="-0.68195">
        <ele>55</ele>
        <time>2012-06-22T11:12:07Z</time>
      </trkpt>
      <trkpt lat="46.36088" lon="-0.68188">
        <ele>55</ele>
        <time>2012-06-22T11:12:12Z</time>
      </trkpt>
      <trkpt lat="46.36089" lon="-0.68182">
        <ele>55</ele>
        <time>2012-06-22T11:12:17Z</time>
      </trkpt>
      <trkpt lat="46.36088" lon="-0.68175">
        <ele>56</ele>
        <time>2012-06-22T11:12:22Z</time>
      </trkpt>
      <trkpt lat="46.36089" lon="-0.68167">
        <ele>55</ele>
        <time>2012-06-22T11:12:27Z</time>
      </trkpt>
      <trkpt lat="46.36088" lon="-0.68159">
        <ele>52</ele>
        <time>2012-06-22T11:12:32Z</time>
      </trkpt>
      <trkpt lat="46.36087" lon="-0.6815">
        <ele>52</ele>
        <time>2012-06-22T11:12:37Z</time>
      </trkpt>
      <trkpt lat="46.36085" lon="-0.68142">
        <ele>51</ele>
        <time>2012-06-22T11:12:42Z</time>
      </trkpt>
      <trkpt lat="46.36082" lon="-0.68135">
        <ele>50</ele>
        <time>2012-06-22T11:12:47Z</time>
      </trkpt>
      <trkpt lat="46.36083" lon="-0.68126">
        <ele>50</ele>
        <time>2012-06-22T11:12:52Z</time>
      </trkpt>
      <trkpt lat="46.36082" lon="-0.68119">
        <ele>50</ele>
        <time>2012-06-22T11:12:57Z</time>
      </trkpt>
      <trkpt lat="46.36081" lon="-0.68113">
        <ele>50</ele>
        <time>2012-06-22T11:13:02Z</time>
      </trkpt>
      <trkpt lat="46.36081" lon="-0.68108">
        <ele>51</ele>
        <time>2012-06-22T11:13:07Z</time>
      </trkpt>
      <trkpt lat="46.36082" lon="-0.68099">
        <ele>53</ele>
        <time>2012-06-22T11:13:12Z</time>
      </trkpt>
      <trkpt lat="46.36082" lon="-0.68093">
        <ele>53</ele>
        <time>2012-06-22T11:13:17Z</time>
      </trkpt>
      <trkpt lat="46.3608" lon="-0.68086">
        <ele>54</ele>
        <time>2012-06-22T11:13:22Z</time>
      </trkpt>
      <trkpt lat="46.36078" lon="-0.6808">
        <ele>56</ele>
        <time>2012-06-22T11:13:27Z</time>
      </trkpt>
      <trkpt lat="46.36079" lon="-0.68071">
        <ele>63</ele>
        <time>2012-06-22T11:13:32Z</time>
      </trkpt>
      <trkpt lat="46.3608" lon="-0.68062">
        <ele>61</ele>
        <time>2012-06-22T11:13:37Z</time>
      </trkpt>
      <trkpt lat="46.36078" lon="-0.68055">
        <ele>60</ele>
        <time>2012-06-22T11:13:42Z</time>
      </trkpt>
      <trkpt lat="46.36075" lon="-0.68045">
        <ele>60</ele>
        <time>2012-06-22T11:13:47Z</time>
      </trkpt>
      <trkpt lat="46.36073" lon="-0.68035">
        <ele>59</ele>
        <time>2012-06-22T11:13:52Z</time>
      </trkpt>
      <trkpt lat="46.36072" lon="-0.68026">
        <ele>57</ele>
        <time>2012-06-22T11:13:57Z</time>
      </trkpt>
      <trkpt lat="46.36073" lon="-0.68018">
        <ele>53</ele>
        <time>2012-06-22T11:14:02Z</time>
      </trkpt>
      <trkpt lat="46.36072" lon="-0.68008">
        <ele>53</ele>
        <time>2012-06-22T11:14:07Z</time>
      </trkpt>
      <trkpt lat="46.36071" lon="-0.68">
        <ele>51</ele>
        <time>2012-06-22T11:14:12Z</time>
      </trkpt>
      <trkpt lat="46.3607" lon="-0.67992">
        <ele>51</ele>
        <time>2012-06-22T11:14:17Z</time>
      </trkpt>
      <trkpt lat="46.36071" lon="-0.67986">
        <ele>54</ele>
        <time>2012-06-22T11:14:22Z</time>
      </trkpt>
      <trkpt lat="46.3607" lon="-0.67978">
        <ele>54</ele>
        <time>2012-06-22T11:14:27Z</time>
      </trkpt>
      <trkpt lat="46.36071" lon="-0.67971">
        <ele>54</ele>
        <time>2012-06-22T11:14:32Z</time>
      </trkpt>
      <trkpt lat="46.36072" lon="-0.67964">
        <ele>53</ele>
        <time>2012-06-22T11:14:37Z</time>
      </trkpt>
      <trkpt lat="46.36072" lon="-0.67954">
        <ele>53</ele>
        <time>2012-06-22T11:14:42Z</time>
      </trkpt>
      <trkpt lat="46.3607" lon="-0.67948">
        <ele>54</ele>
        <time>2012-06-22T11:14:47Z</time>
      </trkpt>
      <trkpt lat="46.3607" lon="-0.6794">
        <ele>52</ele>
        <time>2012-06-22T11:14:52Z</time>
      </trkpt>
      <trkpt lat="46.36069" lon="-0.67933">
        <ele>51</ele>
        <time>2012-06-22T11:14:57Z</time>
      </trkpt>
      <trkpt lat="46.36069" lon="-0.67926">
        <ele>45</ele>
        <time>2012-06-22T11:15:02Z</time>
      </trkpt>
      <trkpt lat="46.3607" lon="-0.67917">
        <ele>45</ele>
        <time>2012-06-22T11:15:07Z</time>
      </trkpt>
      <trkpt lat="46.36068" lon="-0.67908">
        <ele>48</ele>
        <time>2012-06-22T11:15:12Z</time>
      </trkpt>
      <trkpt lat="46.36066" lon="-0.67902">
        <ele>53</ele>
        <time>2012-06-22T11:15:17Z</time>
      </trkpt>
      <trkpt lat="46.36065" lon="-0.67895">
        <ele>53</ele>
        <time>2012-06-22T11:15:22Z</time>
      </trkpt>
      <trkpt lat="46.36066" lon="-0.67887">
        <ele>51</ele>
        <time>2012-06-22T11:15:27Z</time>
      </trkpt>
      <trkpt lat="46.36066" lon="-0.67878">
        <ele>52</ele>
        <time>2012-06-22T11:15:32Z</time>
      </trkpt>
      <trkpt lat="46.36066" lon="-0.67868">
        <ele>48</ele>
        <time>2012-06-22T11:15:37Z</time>
      </trkpt>
      <trkpt lat="46.36065" lon="-0.67861">
        <ele>48</ele>
        <time>2012-06-22T11:15:42Z</time>
      </trkpt>
      <trkpt lat="46.36065" lon="-0.67855">
        <ele>49</ele>
        <time>2012-06-22T11:15:47Z</time>
      </trkpt>
      <trkpt lat="46.36066" lon="-0.67848">
        <ele>50</ele>
        <time>2012-06-22T11:15:52Z</time>
      </trkpt>
      <trkpt lat="46.36064" lon="-0.67839">
        <ele>53</ele>
        <time>2012-06-22T11:15:57Z</time>
      </trkpt>
      <trkpt lat="46.36063" lon="-0.67832">
        <ele>60</ele>
        <time>2012-06-22T11:16:02Z</time>
      </trkpt>
      <trkpt lat="46.3606" lon="-0.67825">
        <ele>61</ele>
        <time>2012-06-22T11:16:07Z</time>
      </trkpt>
      <trkpt lat="46.36059" lon="-0.67814">
        <ele>60</ele>
        <time>2012-06-22T11:16:12Z</time>
      </trkpt>
      <trkpt lat="46.36059" lon="-0.67807">
        <ele>65</ele>
        <time>2012-06-22T11:16:17Z</time>
      </trkpt>
      <trkpt lat="46.36059" lon="-0.67797">
        <ele>54</ele>
        <time>2012-06-22T11:16:22Z</time>
      </trkpt>
      <trkpt lat="46.36058" lon="-0.67789">
        <ele>54</ele>
        <time>2012-06-22T11:16:27Z</time>
      </trkpt>
      <trkpt lat="46.36057" lon="-0.6778">
        <ele>54</ele>
        <time>2012-06-22T11:16:32Z</time>
      </trkpt>
      <trkpt lat="46.36058" lon="-0.67772">
        <ele>53</ele>
        <time>2012-06-22T11:16:37Z</time>
      </trkpt>
      <trkpt lat="46.36057" lon="-0.67764">
        <ele>52</ele>
        <time>2012-06-22T11:16:42Z</time>
      </trkpt>
      <trkpt lat="46.36057" lon="-0.67758">
        <ele>52</ele>
        <time>2012-06-22T11:16:47Z</time>
      </trkpt>
      <trkpt lat="46.36057" lon="-0.6775">
        <ele>53</ele>
        <time>2012-06-22T11:16:52Z</time>
      </trkpt>
      <trkpt lat="46.36056" lon="-0.6774">
        <ele>53</ele>
        <time>2012-06-22T11:16:57Z</time>
      </trkpt>
      <trkpt lat="46.36056" lon="-0.67733">
        <ele>53</ele>
        <time>2012-06-22T11:17:02Z</time>
      </trkpt>
      <trkpt lat="46.36052" lon="-0.67725">
        <ele>52</ele>
        <time>2012-06-22T11:17:07Z</time>
      </trkpt>
      <trkpt lat="46.36052" lon="-0.67719">
        <ele>52</ele>
        <time>2012-06-22T11:17:12Z</time>
      </trkpt>
      <trkpt lat="46.36053" lon="-0.67711">
        <ele>53</ele>
        <time>2012-06-22T11:17:17Z</time>
      </trkpt>
      <trkpt lat="46.36051" lon="-0.67704">
        <ele>54</ele>
        <time>2012-06-22T11:17:22Z</time>
      </trkpt>
      <trkpt lat="46.36048" lon="-0.67695">
        <ele>53</ele>
        <time>2012-06-22T11:17:27Z</time>
      </trkpt>
      <trkpt lat="46.36048" lon="-0.67687">
        <ele>55</ele>
        <time>2012-06-22T11:17:32Z</time>
      </trkpt>
      <trkpt lat="46.36046" lon="-0.67681">
        <ele>55</ele>
        <time>2012-06-22T11:17:37Z</time>
      </trkpt>
      <trkpt lat="46.36045" lon="-0.67672">
        <ele>54</ele>
        <time>2012-06-22T11:17:42Z</time>
      </trkpt>
      <trkpt lat="46.36045" lon="-0.67665">
        <ele>55</ele>
        <time>2012-06-22T11:17:47Z</time>
      </trkpt>
      <trkpt lat="46.36044" lon="-0.67658">
        <ele>54</ele>
        <time>2012-06-22T11:17:52Z</time>
      </trkpt>
      <trkpt lat="46.36044" lon="-0.67649">
        <ele>54</ele>
        <time>2012-06-22T11:17:57Z</time>
      </trkpt>
      <trkpt lat="46.36042" lon="-0.6764">
        <ele>55</ele>
        <time>2012-06-22T11:18:02Z</time>
      </trkpt>
      <trkpt lat="46.36043" lon="-0.67634">
        <ele>57</ele>
        <time>2012-06-22T11:18:07Z</time>
      </trkpt>
      <trkpt lat="46.36041" lon="-0.67624">
        <ele>57</ele>
        <time>2012-06-22T11:18:12Z</time>
      </trkpt>
      <trkpt lat="46.36041" lon="-0.67615">
        <ele>57</ele>
        <time>2012-06-22T11:18:17Z</time>
      </trkpt>
      <trkpt lat="46.36038" lon="-0.67607">
        <ele>56</ele>
        <time>2012-06-22T11:18:22Z</time>
      </trkpt>
      <trkpt lat="46.36038" lon="-0.67599">
        <ele>57</ele>
        <time>2012-06-22T11:18:27Z</time>
      </trkpt>
      <trkpt lat="46.36036" lon="-0.67591">
        <ele>59</ele>
        <time>2012-06-22T11:18:32Z</time>
      </trkpt>
      <trkpt lat="46.36035" lon="-0.67585">
        <ele>60</ele>
        <time>2012-06-22T11:18:37Z</time>
      </trkpt>
      <trkpt lat="46.36034" lon="-0.67577">
        <ele>61</ele>
        <time>2012-06-22T11:18:42Z</time>
      </trkpt>
      <trkpt lat="46.36034" lon="-0.67566">
        <ele>61</ele>
        <time>2012-06-22T11:18:47Z</time>
      </trkpt>
      <trkpt lat="46.36033" lon="-0.6756">
        <ele>60</ele>
        <time>2012-06-22T11:18:52Z</time>
      </trkpt>
      <trkpt lat="46.3603" lon="-0.67554">
        <ele>59</ele>
        <time>2012-06-22T11:18:57Z</time>
      </trkpt>
      <trkpt lat="46.36028" lon="-0.67547">
        <ele>60</ele>
        <time>2012-06-22T11:19:02Z</time>
      </trkpt>
      <trkpt lat="46.36027" lon="-0.67537">
        <ele>59</ele>
        <time>2012-06-22T11:19:07Z</time>
      </trkpt>
      <trkpt lat="46.36026" lon="-0.67529">
        <ele>58</ele>
        <time>2012-06-22T11:19:12Z</time>
      </trkpt>
      <trkpt lat="46.36026" lon="-0.67522">
        <ele>58</ele>
        <time>2012-06-22T11:19:17Z</time>
      </trkpt>
      <trkpt lat="46.36024" lon="-0.67513">
        <ele>59</ele>
        <time>2012-06-22T11:19:22Z</time>
      </trkpt>
      <trkpt lat="46.36024" lon="-0.67509">
        <ele>60</ele>
        <time>2012-06-22T11:19:27Z</time>
      </trkpt>
      <trkpt lat="46.36022" lon="-0.67502">
        <ele>60</ele>
        <time>2012-06-22T11:19:32Z</time>
      </trkpt>
      <trkpt lat="46.36021" lon="-0.67494">
        <ele>60</ele>
        <time>2012-06-22T11:19:37Z</time>
      </trkpt>
      <trkpt lat="46.3602" lon="-0.67485">
        <ele>59</ele>
        <time>2012-06-22T11:19:42Z</time>
      </trkpt>
      <trkpt lat="46.36019" lon="-0.67478">
        <ele>60</ele>
        <time>2012-06-22T11:19:47Z</time>
      </trkpt>
      <trkpt lat="46.36017" lon="-0.67474">
        <ele>58</ele>
        <time>2012-06-22T11:19:52Z</time>
      </trkpt>
      <trkpt lat="46.36013" lon="-0.67466">
        <ele>58</ele>
        <time>2012-06-22T11:19:57Z</time>
      </trkpt>
      <trkpt lat="46.36013" lon="-0.67456">
        <ele>59</ele>
        <time>2012-06-22T11:20:02Z</time>
      </trkpt>
      <trkpt lat="46.36012" lon="-0.6745">
        <ele>58</ele>
        <time>2012-06-22T11:20:07Z</time>
      </trkpt>
      <trkpt lat="46.36013" lon="-0.67443">
        <ele>57</ele>
        <time>2012-06-22T11:20:12Z</time>
      </trkpt>
      <trkpt lat="46.36012" lon="-0.67435">
        <ele>57</ele>
        <time>2012-06-22T11:20:17Z</time>
      </trkpt>
      <trkpt lat="46.36013" lon="-0.6743">
        <ele>57</ele>
        <time>2012-06-22T11:20:22Z</time>
      </trkpt>
      <trkpt lat="46.36012" lon="-0.67419">
        <ele>53</ele>
        <time>2012-06-22T11:20:27Z</time>
      </trkpt>
      <trkpt lat="46.36009" lon="-0.67412">
        <ele>54</ele>
        <time>2012-06-22T11:20:32Z</time>
      </trkpt>
      <trkpt lat="46.36006" lon="-0.67403">
        <ele>54</ele>
        <time>2012-06-22T11:20:37Z</time>
      </trkpt>
      <trkpt lat="46.36001" lon="-0.67396">
        <ele>55</ele>
        <time>2012-06-22T11:20:42Z</time>
      </trkpt>
      <trkpt lat="46.36002" lon="-0.67391">
        <ele>58</ele>
        <time>2012-06-22T11:20:47Z</time>
      </trkpt>
      <trkpt lat="46.36001" lon="-0.67385">
        <ele>58</ele>
        <time>2012-06-22T11:20:52Z</time>
      </trkpt>
      <trkpt lat="46.36" lon="-0.67378">
        <ele>58</ele>
        <time>2012-06-22T11:20:57Z</time>
      </trkpt>
      <trkpt lat="46.36" lon="-0.67367">
        <ele>57</ele>
        <time>2012-06-22T11:21:02Z</time>
      </trkpt>
      <trkpt lat="46.36002" lon="-0.67361">
        <ele>57</ele>
        <time>2012-06-22T11:21:07Z</time>
      </trkpt>
      <trkpt lat="46.36" lon="-0.67354">
        <ele>54</ele>
        <time>2012-06-22T11:21:12Z</time>
      </trkpt>
      <trkpt lat="46.35996" lon="-0.67343">
        <ele>54</ele>
        <time>2012-06-22T11:21:17Z</time>
      </trkpt>
      <trkpt lat="46.35996" lon="-0.67337">
        <ele>53</ele>
        <time>2012-06-22T11:21:22Z</time>
      </trkpt>
      <trkpt lat="46.35997" lon="-0.67336">
        <ele>53</ele>
        <time>2012-06-22T11:21:27Z</time>
      </trkpt>
      <trkpt lat="46.35996" lon="-0.67336">
        <ele>54</ele>
        <time>2012-06-22T11:21:32Z</time>
      </trkpt>
      <trkpt lat="46.35996" lon="-0.67335">
        <ele>53</ele>
        <time>2012-06-22T11:21:37Z</time>
      </trkpt>
      <trkpt lat="46.35996" lon="-0.67335">
        <ele>53</ele>
        <time>2012-06-22T11:21:47Z</time>
      </trkpt>
      <trkpt lat="46.35994" lon="-0.67333">
        <ele>54</ele>
        <time>2012-06-22T11:22:22Z</time>
      </trkpt>
      <trkpt lat="46.35995" lon="-0.67331">
        <ele>54</ele>
        <time>2012-06-22T11:22:27Z</time>
      </trkpt>
      <trkpt lat="46.35994" lon="-0.67331">
        <ele>53</ele>
        <time>2012-06-22T11:22:32Z</time>
      </trkpt>
      <trkpt lat="46.35996" lon="-0.67331">
        <ele>53</ele>
        <time>2012-06-22T11:22:37Z</time>
      </trkpt>
      <trkpt lat="46.35994" lon="-0.67327">
        <ele>52</ele>
        <time>2012-06-22T11:24:42Z</time>
      </trkpt>
      <trkpt lat="46.35994" lon="-0.67319">
        <ele>53</ele>
        <time>2012-06-22T11:24:47Z</time>
      </trkpt>
      <trkpt lat="46.35992" lon="-0.67312">
        <ele>57</ele>
        <time>2012-06-22T11:24:52Z</time>
      </trkpt>
      <trkpt lat="46.35992" lon="-0.67307">
        <ele>56</ele>
        <time>2012-06-22T11:24:57Z</time>
      </trkpt>
      <trkpt lat="46.3599" lon="-0.67302">
        <ele>56</ele>
        <time>2012-06-22T11:25:02Z</time>
      </trkpt>
      <trkpt lat="46.3599" lon="-0.67294">
        <ele>56</ele>
        <time>2012-06-22T11:25:07Z</time>
      </trkpt>
      <trkpt lat="46.35989" lon="-0.67289">
        <ele>56</ele>
        <time>2012-06-22T11:25:12Z</time>
      </trkpt>
      <trkpt lat="46.35987" lon="-0.67279">
        <ele>55</ele>
        <time>2012-06-22T11:25:17Z</time>
      </trkpt>
      <trkpt lat="46.35986" lon="-0.67272">
        <ele>53</ele>
        <time>2012-06-22T11:25:22Z</time>
      </trkpt>
      <trkpt lat="46.35986" lon="-0.67266">
        <ele>54</ele>
        <time>2012-06-22T11:25:27Z</time>
      </trkpt>
      <trkpt lat="46.35985" lon="-0.67259">
        <ele>52</ele>
        <time>2012-06-22T11:25:32Z</time>
      </trkpt>
      <trkpt lat="46.35985" lon="-0.67253">
        <ele>53</ele>
        <time>2012-06-22T11:25:37Z</time>
      </trkpt>
      <trkpt lat="46.35983" lon="-0.67245">
        <ele>53</ele>
        <time>2012-06-22T11:25:42Z</time>
      </trkpt>
      <trkpt lat="46.35984" lon="-0.6724">
        <ele>55</ele>
        <time>2012-06-22T11:25:47Z</time>
      </trkpt>
      <trkpt lat="46.35982" lon="-0.67233">
        <ele>54</ele>
        <time>2012-06-22T11:25:52Z</time>
      </trkpt>
      <trkpt lat="46.35982" lon="-0.67225">
        <ele>55</ele>
        <time>2012-06-22T11:25:57Z</time>
      </trkpt>
      <trkpt lat="46.35981" lon="-0.67219">
        <ele>55</ele>
        <time>2012-06-22T11:26:02Z</time>
      </trkpt>
      <trkpt lat="46.35979" lon="-0.67211">
        <ele>55</ele>
        <time>2012-06-22T11:26:07Z</time>
      </trkpt>
      <trkpt lat="46.35979" lon="-0.67205">
        <ele>53</ele>
        <time>2012-06-22T11:26:12Z</time>
      </trkpt>
      <trkpt lat="46.35977" lon="-0.67196">
        <ele>54</ele>
        <time>2012-06-22T11:26:17Z</time>
      </trkpt>
      <trkpt lat="46.35974" lon="-0.67189">
        <ele>53</ele>
        <time>2012-06-22T11:26:22Z</time>
      </trkpt>
      <trkpt lat="46.35975" lon="-0.67181">
        <ele>56</ele>
        <time>2012-06-22T11:26:27Z</time>
      </trkpt>
      <trkpt lat="46.35972" lon="-0.67174">
        <ele>56</ele>
        <time>2012-06-22T11:26:32Z</time>
      </trkpt>
      <trkpt lat="46.3597" lon="-0.67167">
        <ele>55</ele>
        <time>2012-06-22T11:26:37Z</time>
      </trkpt>
      <trkpt lat="46.35969" lon="-0.6716">
        <ele>55</ele>
        <time>2012-06-22T11:26:42Z</time>
      </trkpt>
      <trkpt lat="46.35969" lon="-0.67152">
        <ele>54</ele>
        <time>2012-06-22T11:26:47Z</time>
      </trkpt>
      <trkpt lat="46.35964" lon="-0.67145">
        <ele>52</ele>
        <time>2012-06-22T11:26:52Z</time>
      </trkpt>
      <trkpt lat="46.35964" lon="-0.67138">
        <ele>52</ele>
        <time>2012-06-22T11:26:57Z</time>
      </trkpt>
      <trkpt lat="46.35963" lon="-0.67129">
        <ele>52</ele>
        <time>2012-06-22T11:27:02Z</time>
      </trkpt>
      <trkpt lat="46.35963" lon="-0.67129">
        <ele>52</ele>
        <time>2012-06-22T11:27:07Z</time>
      </trkpt>
      <trkpt lat="46.35961" lon="-0.67121">
        <ele>52</ele>
        <time>2012-06-22T11:27:12Z</time>
      </trkpt>
      <trkpt lat="46.35964" lon="-0.67112">
        <ele>53</ele>
        <time>2012-06-22T11:27:17Z</time>
      </trkpt>
      <trkpt lat="46.35962" lon="-0.67104">
        <ele>55</ele>
        <time>2012-06-22T11:27:22Z</time>
      </trkpt>
      <trkpt lat="46.35958" lon="-0.67097">
        <ele>51</ele>
        <time>2012-06-22T11:27:27Z</time>
      </trkpt>
      <trkpt lat="46.35956" lon="-0.67088">
        <ele>51</ele>
        <time>2012-06-22T11:27:32Z</time>
      </trkpt>
      <trkpt lat="46.35955" lon="-0.67088">
        <ele>53</ele>
        <time>2012-06-22T11:27:37Z</time>
      </trkpt>
      <trkpt lat="46.35956" lon="-0.67085">
        <ele>54</ele>
        <time>2012-06-22T11:27:42Z</time>
      </trkpt>
      <trkpt lat="46.35953" lon="-0.67077">
        <ele>55</ele>
        <time>2012-06-22T11:27:47Z</time>
      </trkpt>
      <trkpt lat="46.35955" lon="-0.6707">
        <ele>54</ele>
        <time>2012-06-22T11:27:52Z</time>
      </trkpt>
      <trkpt lat="46.35956" lon="-0.67065">
        <ele>54</ele>
        <time>2012-06-22T11:27:57Z</time>
      </trkpt>
      <trkpt lat="46.35954" lon="-0.6706">
        <ele>54</ele>
        <time>2012-06-22T11:28:02Z</time>
      </trkpt>
      <trkpt lat="46.35954" lon="-0.67051">
        <ele>54</ele>
        <time>2012-06-22T11:28:07Z</time>
      </trkpt>
      <trkpt lat="46.35956" lon="-0.67039">
        <ele>54</ele>
        <time>2012-06-22T11:28:12Z</time>
      </trkpt>
      <trkpt lat="46.35954" lon="-0.67029">
        <ele>53</ele>
        <time>2012-06-22T11:28:17Z</time>
      </trkpt>
      <trkpt lat="46.35951" lon="-0.67023">
        <ele>56</ele>
        <time>2012-06-22T11:28:22Z</time>
      </trkpt>
      <trkpt lat="46.35949" lon="-0.67014">
        <ele>55</ele>
        <time>2012-06-22T11:28:27Z</time>
      </trkpt>
      <trkpt lat="46.35948" lon="-0.67005">
        <ele>54</ele>
        <time>2012-06-22T11:28:32Z</time>
      </trkpt>
      <trkpt lat="46.35949" lon="-0.66999">
        <ele>54</ele>
        <time>2012-06-22T11:28:37Z</time>
      </trkpt>
      <trkpt lat="46.35948" lon="-0.6699">
        <ele>53</ele>
        <time>2012-06-22T11:28:42Z</time>
      </trkpt>
      <trkpt lat="46.35948" lon="-0.66984">
        <ele>54</ele>
        <time>2012-06-22T11:28:47Z</time>
      </trkpt>
      <trkpt lat="46.35945" lon="-0.66976">
        <ele>52</ele>
        <time>2012-06-22T11:28:52Z</time>
      </trkpt>
      <trkpt lat="46.35942" lon="-0.66966">
        <ele>47</ele>
        <time>2012-06-22T11:28:57Z</time>
      </trkpt>
      <trkpt lat="46.3594" lon="-0.6696">
        <ele>47</ele>
        <time>2012-06-22T11:29:02Z</time>
      </trkpt>
      <trkpt lat="46.35939" lon="-0.66953">
        <ele>48</ele>
        <time>2012-06-22T11:29:07Z</time>
      </trkpt>
      <trkpt lat="46.35937" lon="-0.66948">
        <ele>49</ele>
        <time>2012-06-22T11:29:12Z</time>
      </trkpt>
      <trkpt lat="46.35936" lon="-0.66937">
        <ele>46</ele>
        <time>2012-06-22T11:29:17Z</time>
      </trkpt>
      <trkpt lat="46.35934" lon="-0.66929">
        <ele>45</ele>
        <time>2012-06-22T11:29:22Z</time>
      </trkpt>
      <trkpt lat="46.35934" lon="-0.66921">
        <ele>48</ele>
        <time>2012-06-22T11:29:27Z</time>
      </trkpt>
      <trkpt lat="46.35933" lon="-0.66913">
        <ele>48</ele>
        <time>2012-06-22T11:29:32Z</time>
      </trkpt>
      <trkpt lat="46.35935" lon="-0.66902">
        <ele>50</ele>
        <time>2012-06-22T11:29:37Z</time>
      </trkpt>
      <trkpt lat="46.35936" lon="-0.66898">
        <ele>50</ele>
        <time>2012-06-22T11:29:42Z</time>
      </trkpt>
      <trkpt lat="46.35933" lon="-0.66891">
        <ele>49</ele>
        <time>2012-06-22T11:29:47Z</time>
      </trkpt>
      <trkpt lat="46.35934" lon="-0.6688">
        <ele>46</ele>
        <time>2012-06-22T11:29:52Z</time>
      </trkpt>
      <trkpt lat="46.35931" lon="-0.66874">
        <ele>46</ele>
        <time>2012-06-22T11:29:57Z</time>
      </trkpt>
      <trkpt lat="46.35929" lon="-0.66867">
        <ele>51</ele>
        <time>2012-06-22T11:30:02Z</time>
      </trkpt>
      <trkpt lat="46.35928" lon="-0.6686">
        <ele>53</ele>
        <time>2012-06-22T11:30:07Z</time>
      </trkpt>
      <trkpt lat="46.35925" lon="-0.66854">
        <ele>54</ele>
        <time>2012-06-22T11:30:12Z</time>
      </trkpt>
      <trkpt lat="46.35924" lon="-0.66849">
        <ele>54</ele>
        <time>2012-06-22T11:30:17Z</time>
      </trkpt>
      <trkpt lat="46.35919" lon="-0.66841">
        <ele>53</ele>
        <time>2012-06-22T11:30:22Z</time>
      </trkpt>
      <trkpt lat="46.35921" lon="-0.66832">
        <ele>56</ele>
        <time>2012-06-22T11:30:27Z</time>
      </trkpt>
      <trkpt lat="46.35918" lon="-0.66822">
        <ele>59</ele>
        <time>2012-06-22T11:30:32Z</time>
      </trkpt>
      <trkpt lat="46.35918" lon="-0.66814">
        <ele>55</ele>
        <time>2012-06-22T11:30:37Z</time>
      </trkpt>
      <trkpt lat="46.35919" lon="-0.66806">
        <ele>55</ele>
        <time>2012-06-22T11:30:42Z</time>
      </trkpt>
      <trkpt lat="46.35919" lon="-0.66799">
        <ele>55</ele>
        <time>2012-06-22T11:30:47Z</time>
      </trkpt>
      <trkpt lat="46.35918" lon="-0.66786">
        <ele>53</ele>
        <time>2012-06-22T11:30:52Z</time>
      </trkpt>
      <trkpt lat="46.35918" lon="-0.66781">
        <ele>54</ele>
        <time>2012-06-22T11:30:57Z</time>
      </trkpt>
      <trkpt lat="46.35918" lon="-0.66776">
        <ele>55</ele>
        <time>2012-06-22T11:31:02Z</time>
      </trkpt>
      <trkpt lat="46.35916" lon="-0.66766">
        <ele>55</ele>
        <time>2012-06-22T11:31:07Z</time>
      </trkpt>
      <trkpt lat="46.35917" lon="-0.6676">
        <ele>55</ele>
        <time>2012-06-22T11:31:12Z</time>
      </trkpt>
      <trkpt lat="46.35917" lon="-0.66749">
        <ele>57</ele>
        <time>2012-06-22T11:31:17Z</time>
      </trkpt>
      <trkpt lat="46.35918" lon="-0.6674">
        <ele>58</ele>
        <time>2012-06-22T11:31:22Z</time>
      </trkpt>
      <trkpt lat="46.35923" lon="-0.66732">
        <ele>56</ele>
        <time>2012-06-22T11:31:27Z</time>
      </trkpt>
      <trkpt lat="46.35924" lon="-0.66722">
        <ele>56</ele>
        <time>2012-06-22T11:31:32Z</time>
      </trkpt>
      <trkpt lat="46.35926" lon="-0.66717">
        <ele>58</ele>
        <time>2012-06-22T11:31:37Z</time>
      </trkpt>
      <trkpt lat="46.35929" lon="-0.6671">
        <ele>61</ele>
        <time>2012-06-22T11:31:42Z</time>
      </trkpt>
      <trkpt lat="46.35928" lon="-0.66707">
        <ele>62</ele>
        <time>2012-06-22T11:31:47Z</time>
      </trkpt>
      <trkpt lat="46.35927" lon="-0.66696">
        <ele>63</ele>
        <time>2012-06-22T11:31:52Z</time>
      </trkpt>
      <trkpt lat="46.35931" lon="-0.66688">
        <ele>61</ele>
        <time>2012-06-22T11:31:57Z</time>
      </trkpt>
      <trkpt lat="46.35932" lon="-0.6668">
        <ele>61</ele>
        <time>2012-06-22T11:32:02Z</time>
      </trkpt>
      <trkpt lat="46.35933" lon="-0.66672">
        <ele>61</ele>
        <time>2012-06-22T11:32:07Z</time>
      </trkpt>
      <trkpt lat="46.35935" lon="-0.66664">
        <ele>62</ele>
        <time>2012-06-22T11:32:12Z</time>
      </trkpt>
      <trkpt lat="46.35937" lon="-0.66653">
        <ele>62</ele>
        <time>2012-06-22T11:32:17Z</time>
      </trkpt>
      <trkpt lat="46.35938" lon="-0.66645">
        <ele>61</ele>
        <time>2012-06-22T11:32:22Z</time>
      </trkpt>
      <trkpt lat="46.35938" lon="-0.66638">
        <ele>60</ele>
        <time>2012-06-22T11:32:27Z</time>
      </trkpt>
      <trkpt lat="46.35939" lon="-0.66636">
        <ele>59</ele>
        <time>2012-06-22T11:32:32Z</time>
      </trkpt>
      <trkpt lat="46.35939" lon="-0.66635">
        <ele>59</ele>
        <time>2012-06-22T11:32:37Z</time>
      </trkpt>
      <trkpt lat="46.35939" lon="-0.66636">
        <ele>59</ele>
        <time>2012-06-22T11:32:42Z</time>
      </trkpt>
      <trkpt lat="46.35939" lon="-0.66629">
        <ele>59</ele>
        <time>2012-06-22T11:32:47Z</time>
      </trkpt>
      <trkpt lat="46.35941" lon="-0.66624">
        <ele>58</ele>
        <time>2012-06-22T11:32:52Z</time>
      </trkpt>
      <trkpt lat="46.35943" lon="-0.66617">
        <ele>58</ele>
        <time>2012-06-22T11:32:57Z</time>
      </trkpt>
      <trkpt lat="46.35944" lon="-0.66611">
        <ele>57</ele>
        <time>2012-06-22T11:33:02Z</time>
      </trkpt>
      <trkpt lat="46.35943" lon="-0.66607">
        <ele>63</ele>
        <time>2012-06-22T11:33:07Z</time>
      </trkpt>
      <trkpt lat="46.35946" lon="-0.66599">
        <ele>61</ele>
        <time>2012-06-22T11:33:12Z</time>
      </trkpt>
      <trkpt lat="46.35948" lon="-0.66591">
        <ele>60</ele>
        <time>2012-06-22T11:33:17Z</time>
      </trkpt>
      <trkpt lat="46.35952" lon="-0.66582">
        <ele>60</ele>
        <time>2012-06-22T11:33:22Z</time>
      </trkpt>
      <trkpt lat="46.35954" lon="-0.66576">
        <ele>60</ele>
        <time>2012-06-22T11:33:27Z</time>
      </trkpt>
      <trkpt lat="46.35958" lon="-0.6657">
        <ele>56</ele>
        <time>2012-06-22T11:33:32Z</time>
      </trkpt>
      <trkpt lat="46.35964" lon="-0.66565">
        <ele>53</ele>
        <time>2012-06-22T11:33:37Z</time>
      </trkpt>
      <trkpt lat="46.35968" lon="-0.66561">
        <ele>50</ele>
        <time>2012-06-22T11:33:42Z</time>
      </trkpt>
      <trkpt lat="46.35971" lon="-0.66558">
        <ele>50</ele>
        <time>2012-06-22T11:33:47Z</time>
      </trkpt>
      <trkpt lat="46.35972" lon="-0.66558">
        <ele>50</ele>
        <time>2012-06-22T11:33:57Z</time>
      </trkpt>
      <trkpt lat="46.35975" lon="-0.66553">
        <ele>49</ele>
        <time>2012-06-22T11:34:02Z</time>
      </trkpt>
      <trkpt lat="46.35975" lon="-0.66548">
        <ele>48</ele>
        <time>2012-06-22T11:34:07Z</time>
      </trkpt>
      <trkpt lat="46.35975" lon="-0.66547">
        <ele>48</ele>
        <time>2012-06-22T11:34:12Z</time>
      </trkpt>
      <trkpt lat="46.35976" lon="-0.66547">
        <ele>51</ele>
        <time>2012-06-22T11:34:17Z</time>
      </trkpt>
      <trkpt lat="46.35977" lon="-0.66547">
        <ele>52</ele>
        <time>2012-06-22T11:34:22Z</time>
      </trkpt>
      <trkpt lat="46.35977" lon="-0.66547">
        <ele>53</ele>
        <time>2012-06-22T11:34:27Z</time>
      </trkpt>
      <trkpt lat="46.35977" lon="-0.66547">
        <ele>52</ele>
        <time>2012-06-22T11:36:12Z</time>
      </trkpt>
      <trkpt lat="46.35977" lon="-0.66547">
        <ele>52</ele>
        <time>2012-06-22T11:36:17Z</time>
      </trkpt>
      <trkpt lat="46.35976" lon="-0.66548">
        <ele>53</ele>
        <time>2012-06-22T11:36:22Z</time>
      </trkpt>
      <trkpt lat="46.35975" lon="-0.66548">
        <ele>54</ele>
        <time>2012-06-22T11:36:47Z</time>
      </trkpt>
      <trkpt lat="46.35974" lon="-0.66547">
        <ele>57</ele>
        <time>2012-06-22T11:37:07Z</time>
      </trkpt>
      <trkpt lat="46.35975" lon="-0.66547">
        <ele>54</ele>
        <time>2012-06-22T11:37:12Z</time>
      </trkpt>
      <trkpt lat="46.35973" lon="-0.66545">
        <ele>54</ele>
        <time>2012-06-22T11:37:17Z</time>
      </trkpt>
      <trkpt lat="46.35969" lon="-0.66545">
        <ele>57</ele>
        <time>2012-06-22T11:37:22Z</time>
      </trkpt>
      <trkpt lat="46.35967" lon="-0.66542">
        <ele>59</ele>
        <time>2012-06-22T11:37:27Z</time>
      </trkpt>
      <trkpt lat="46.35964" lon="-0.6654">
        <ele>62</ele>
        <time>2012-06-22T11:37:32Z</time>
      </trkpt>
      <trkpt lat="46.35962" lon="-0.66531">
        <ele>59</ele>
        <time>2012-06-22T11:37:37Z</time>
      </trkpt>
      <trkpt lat="46.35961" lon="-0.6652">
        <ele>59</ele>
        <time>2012-06-22T11:37:42Z</time>
      </trkpt>
      <trkpt lat="46.35965" lon="-0.66511">
        <ele>46</ele>
        <time>2012-06-22T11:37:47Z</time>
      </trkpt>
      <trkpt lat="46.35969" lon="-0.66504">
        <ele>42</ele>
        <time>2012-06-22T11:37:52Z</time>
      </trkpt>
      <trkpt lat="46.35969" lon="-0.66498">
        <ele>45</ele>
        <time>2012-06-22T11:37:57Z</time>
      </trkpt>
      <trkpt lat="46.3597" lon="-0.6649">
        <ele>46</ele>
        <time>2012-06-22T11:38:02Z</time>
      </trkpt>
      <trkpt lat="46.35969" lon="-0.66482">
        <ele>55</ele>
        <time>2012-06-22T11:38:07Z</time>
      </trkpt>
      <trkpt lat="46.35972" lon="-0.66477">
        <ele>56</ele>
        <time>2012-06-22T11:38:12Z</time>
      </trkpt>
      <trkpt lat="46.35975" lon="-0.66472">
        <ele>56</ele>
        <time>2012-06-22T11:38:17Z</time>
      </trkpt>
      <trkpt lat="46.35976" lon="-0.66465">
        <ele>55</ele>
        <time>2012-06-22T11:38:22Z</time>
      </trkpt>
      <trkpt lat="46.35978" lon="-0.66459">
        <ele>53</ele>
        <time>2012-06-22T11:38:27Z</time>
      </trkpt>
      <trkpt lat="46.35979" lon="-0.66453">
        <ele>53</ele>
        <time>2012-06-22T11:38:32Z</time>
      </trkpt>
      <trkpt lat="46.35979" lon="-0.66447">
        <ele>55</ele>
        <time>2012-06-22T11:38:37Z</time>
      </trkpt>
      <trkpt lat="46.35978" lon="-0.66441">
        <ele>54</ele>
        <time>2012-06-22T11:38:42Z</time>
      </trkpt>
      <trkpt lat="46.35979" lon="-0.66433">
        <ele>53</ele>
        <time>2012-06-22T11:38:47Z</time>
      </trkpt>
      <trkpt lat="46.3598" lon="-0.66426">
        <ele>49</ele>
        <time>2012-06-22T11:38:52Z</time>
      </trkpt>
      <trkpt lat="46.35982" lon="-0.6642">
        <ele>50</ele>
        <time>2012-06-22T11:38:57Z</time>
      </trkpt>
      <trkpt lat="46.35984" lon="-0.66412">
        <ele>48</ele>
        <time>2012-06-22T11:39:02Z</time>
      </trkpt>
      <trkpt lat="46.35986" lon="-0.66406">
        <ele>50</ele>
        <time>2012-06-22T11:39:07Z</time>
      </trkpt>
      <trkpt lat="46.35988" lon="-0.66399">
        <ele>50</ele>
        <time>2012-06-22T11:39:12Z</time>
      </trkpt>
      <trkpt lat="46.35986" lon="-0.66392">
        <ele>50</ele>
        <time>2012-06-22T11:39:17Z</time>
      </trkpt>
      <trkpt lat="46.35987" lon="-0.66384">
        <ele>52</ele>
        <time>2012-06-22T11:39:22Z</time>
      </trkpt>
      <trkpt lat="46.35987" lon="-0.66376">
        <ele>54</ele>
        <time>2012-06-22T11:39:27Z</time>
      </trkpt>
      <trkpt lat="46.35991" lon="-0.66372">
        <ele>56</ele>
        <time>2012-06-22T11:39:32Z</time>
      </trkpt>
      <trkpt lat="46.35996" lon="-0.66366">
        <ele>55</ele>
        <time>2012-06-22T11:39:37Z</time>
      </trkpt>
      <trkpt lat="46.35997" lon="-0.66361">
        <ele>56</ele>
        <time>2012-06-22T11:39:42Z</time>
      </trkpt>
      <trkpt lat="46.35996" lon="-0.66354">
        <ele>54</ele>
        <time>2012-06-22T11:39:47Z</time>
      </trkpt>
      <trkpt lat="46.35998" lon="-0.6635">
        <ele>56</ele>
        <time>2012-06-22T11:39:52Z</time>
      </trkpt>
      <trkpt lat="46.35997" lon="-0.66351">
        <ele>56</ele>
        <time>2012-06-22T11:39:57Z</time>
      </trkpt>
      <trkpt lat="46.35997" lon="-0.66348">
        <ele>57</ele>
        <time>2012-06-22T11:41:47Z</time>
      </trkpt>
      <trkpt lat="46.35996" lon="-0.66342">
        <ele>59</ele>
        <time>2012-06-22T11:41:52Z</time>
      </trkpt>
      <trkpt lat="46.35996" lon="-0.66336">
        <ele>59</ele>
        <time>2012-06-22T11:41:57Z</time>
      </trkpt>
      <trkpt lat="46.35999" lon="-0.66333">
        <ele>59</ele>
        <time>2012-06-22T11:42:02Z</time>
      </trkpt>
      <trkpt lat="46.35998" lon="-0.66327">
        <ele>57</ele>
        <time>2012-06-22T11:42:07Z</time>
      </trkpt>
      <trkpt lat="46.35999" lon="-0.6632">
        <ele>57</ele>
        <time>2012-06-22T11:42:12Z</time>
      </trkpt>
      <trkpt lat="46.35999" lon="-0.66314">
        <ele>57</ele>
        <time>2012-06-22T11:42:17Z</time>
      </trkpt>
      <trkpt lat="46.36001" lon="-0.66307">
        <ele>59</ele>
        <time>2012-06-22T11:42:22Z</time>
      </trkpt>
      <trkpt lat="46.36002" lon="-0.66301">
        <ele>60</ele>
        <time>2012-06-22T11:42:27Z</time>
      </trkpt>
      <trkpt lat="46.36006" lon="-0.66296">
        <ele>60</ele>
        <time>2012-06-22T11:42:32Z</time>
      </trkpt>
      <trkpt lat="46.36005" lon="-0.66288">
        <ele>66</ele>
        <time>2012-06-22T11:42:37Z</time>
      </trkpt>
      <trkpt lat="46.36006" lon="-0.66279">
        <ele>63</ele>
        <time>2012-06-22T11:42:42Z</time>
      </trkpt>
      <trkpt lat="46.3601" lon="-0.66274">
        <ele>62</ele>
        <time>2012-06-22T11:42:47Z</time>
      </trkpt>
      <trkpt lat="46.36012" lon="-0.66266">
        <ele>60</ele>
        <time>2012-06-22T11:42:52Z</time>
      </trkpt>
      <trkpt lat="46.36013" lon="-0.6626">
        <ele>61</ele>
        <time>2012-06-22T11:42:57Z</time>
      </trkpt>
      <trkpt lat="46.36016" lon="-0.66253">
        <ele>60</ele>
        <time>2012-06-22T11:43:02Z</time>
      </trkpt>
      <trkpt lat="46.36014" lon="-0.66246">
        <ele>58</ele>
        <time>2012-06-22T11:43:07Z</time>
      </trkpt>
      <trkpt lat="46.36016" lon="-0.66239">
        <ele>58</ele>
        <time>2012-06-22T11:43:12Z</time>
      </trkpt>
      <trkpt lat="46.36016" lon="-0.66231">
        <ele>58</ele>
        <time>2012-06-22T11:43:17Z</time>
      </trkpt>
      <trkpt lat="46.36019" lon="-0.66225">
        <ele>59</ele>
        <time>2012-06-22T11:43:22Z</time>
      </trkpt>
      <trkpt lat="46.3602" lon="-0.66217">
        <ele>58</ele>
        <time>2012-06-22T11:43:27Z</time>
      </trkpt>
      <trkpt lat="46.36022" lon="-0.66209">
        <ele>58</ele>
        <time>2012-06-22T11:43:32Z</time>
      </trkpt>
      <trkpt lat="46.36024" lon="-0.662">
        <ele>58</ele>
        <time>2012-06-22T11:43:37Z</time>
      </trkpt>
      <trkpt lat="46.36024" lon="-0.66192">
        <ele>56</ele>
        <time>2012-06-22T11:43:42Z</time>
      </trkpt>
      <trkpt lat="46.36027" lon="-0.66185">
        <ele>57</ele>
        <time>2012-06-22T11:43:47Z</time>
      </trkpt>
      <trkpt lat="46.36027" lon="-0.66177">
        <ele>56</ele>
        <time>2012-06-22T11:43:52Z</time>
      </trkpt>
      <trkpt lat="46.36028" lon="-0.66169">
        <ele>56</ele>
        <time>2012-06-22T11:43:57Z</time>
      </trkpt>
      <trkpt lat="46.36028" lon="-0.66162">
        <ele>56</ele>
        <time>2012-06-22T11:44:02Z</time>
      </trkpt>
      <trkpt lat="46.36029" lon="-0.66154">
        <ele>56</ele>
        <time>2012-06-22T11:44:07Z</time>
      </trkpt>
      <trkpt lat="46.3603" lon="-0.66148">
        <ele>58</ele>
        <time>2012-06-22T11:44:12Z</time>
      </trkpt>
      <trkpt lat="46.36033" lon="-0.6614">
        <ele>58</ele>
        <time>2012-06-22T11:44:17Z</time>
      </trkpt>
      <trkpt lat="46.36035" lon="-0.66131">
        <ele>58</ele>
        <time>2012-06-22T11:44:22Z</time>
      </trkpt>
      <trkpt lat="46.36038" lon="-0.66125">
        <ele>59</ele>
        <time>2012-06-22T11:44:27Z</time>
      </trkpt>
      <trkpt lat="46.36039" lon="-0.66117">
        <ele>59</ele>
        <time>2012-06-22T11:44:32Z</time>
      </trkpt>
      <trkpt lat="46.36042" lon="-0.66108">
        <ele>62</ele>
        <time>2012-06-22T11:44:37Z</time>
      </trkpt>
      <trkpt lat="46.36044" lon="-0.661">
        <ele>61</ele>
        <time>2012-06-22T11:44:42Z</time>
      </trkpt>
      <trkpt lat="46.36044" lon="-0.66093">
        <ele>62</ele>
        <time>2012-06-22T11:44:47Z</time>
      </trkpt>
      <trkpt lat="46.36045" lon="-0.66085">
        <ele>62</ele>
        <time>2012-06-22T11:44:52Z</time>
      </trkpt>
      <trkpt lat="46.36047" lon="-0.6608">
        <ele>65</ele>
        <time>2012-06-22T11:44:57Z</time>
      </trkpt>
      <trkpt lat="46.3605" lon="-0.66071">
        <ele>62</ele>
        <time>2012-06-22T11:45:02Z</time>
      </trkpt>
      <trkpt lat="46.36051" lon="-0.66064">
        <ele>63</ele>
        <time>2012-06-22T11:45:07Z</time>
      </trkpt>
      <trkpt lat="46.36052" lon="-0.66057">
        <ele>61</ele>
        <time>2012-06-22T11:45:12Z</time>
      </trkpt>
      <trkpt lat="46.36052" lon="-0.66049">
        <ele>58</ele>
        <time>2012-06-22T11:45:17Z</time>
      </trkpt>
      <trkpt lat="46.36055" lon="-0.66041">
        <ele>55</ele>
        <time>2012-06-22T11:45:22Z</time>
      </trkpt>
      <trkpt lat="46.36058" lon="-0.66036">
        <ele>49</ele>
        <time>2012-06-22T11:45:27Z</time>
      </trkpt>
      <trkpt lat="46.36058" lon="-0.6603">
        <ele>50</ele>
        <time>2012-06-22T11:45:32Z</time>
      </trkpt>
      <trkpt lat="46.36061" lon="-0.6602">
        <ele>49</ele>
        <time>2012-06-22T11:45:37Z</time>
      </trkpt>
      <trkpt lat="46.36061" lon="-0.66011">
        <ele>51</ele>
        <time>2012-06-22T11:45:42Z</time>
      </trkpt>
      <trkpt lat="46.36061" lon="-0.66004">
        <ele>52</ele>
        <time>2012-06-22T11:45:47Z</time>
      </trkpt>
      <trkpt lat="46.36059" lon="-0.65995">
        <ele>54</ele>
        <time>2012-06-22T11:45:52Z</time>
      </trkpt>
      <trkpt lat="46.36061" lon="-0.6599">
        <ele>54</ele>
        <time>2012-06-22T11:45:57Z</time>
      </trkpt>
      <trkpt lat="46.36064" lon="-0.65984">
        <ele>55</ele>
        <time>2012-06-22T11:46:02Z</time>
      </trkpt>
      <trkpt lat="46.36069" lon="-0.65979">
        <ele>56</ele>
        <time>2012-06-22T11:46:07Z</time>
      </trkpt>
      <trkpt lat="46.36071" lon="-0.65977">
        <ele>59</ele>
        <time>2012-06-22T11:46:12Z</time>
      </trkpt>
      <trkpt lat="46.3607" lon="-0.65971">
        <ele>62</ele>
        <time>2012-06-22T11:46:17Z</time>
      </trkpt>
      <trkpt lat="46.3607" lon="-0.65966">
        <ele>60</ele>
        <time>2012-06-22T11:46:22Z</time>
      </trkpt>
      <trkpt lat="46.36068" lon="-0.65965">
        <ele>58</ele>
        <time>2012-06-22T11:46:27Z</time>
      </trkpt>
      <trkpt lat="46.36066" lon="-0.65964">
        <ele>57</ele>
        <time>2012-06-22T11:46:32Z</time>
      </trkpt>
      <trkpt lat="46.36067" lon="-0.65964">
        <ele>57</ele>
        <time>2012-06-22T11:46:37Z</time>
      </trkpt>
      <trkpt lat="46.36068" lon="-0.6596">
        <ele>57</ele>
        <time>2012-06-22T11:46:42Z</time>
      </trkpt>
      <trkpt lat="46.36067" lon="-0.65953">
        <ele>53</ele>
        <time>2012-06-22T11:46:47Z</time>
      </trkpt>
      <trkpt lat="46.36071" lon="-0.65944">
        <ele>55</ele>
        <time>2012-06-22T11:46:52Z</time>
      </trkpt>
      <trkpt lat="46.36073" lon="-0.65938">
        <ele>57</ele>
        <time>2012-06-22T11:46:57Z</time>
      </trkpt>
      <trkpt lat="46.36074" lon="-0.65932">
        <ele>55</ele>
        <time>2012-06-22T11:47:02Z</time>
      </trkpt>
      <trkpt lat="46.36077" lon="-0.65923">
        <ele>55</ele>
        <time>2012-06-22T11:47:07Z</time>
      </trkpt>
      <trkpt lat="46.36079" lon="-0.65914">
        <ele>56</ele>
        <time>2012-06-22T11:47:12Z</time>
      </trkpt>
      <trkpt lat="46.36081" lon="-0.6591">
        <ele>56</ele>
        <time>2012-06-22T11:47:17Z</time>
      </trkpt>
      <trkpt lat="46.36082" lon="-0.65902">
        <ele>59</ele>
        <time>2012-06-22T11:47:22Z</time>
      </trkpt>
      <trkpt lat="46.36084" lon="-0.65892">
        <ele>60</ele>
        <time>2012-06-22T11:47:27Z</time>
      </trkpt>
      <trkpt lat="46.36085" lon="-0.65883">
        <ele>58</ele>
        <time>2012-06-22T11:47:32Z</time>
      </trkpt>
      <trkpt lat="46.36085" lon="-0.65875">
        <ele>59</ele>
        <time>2012-06-22T11:47:37Z</time>
      </trkpt>
      <trkpt lat="46.36087" lon="-0.65865">
        <ele>56</ele>
        <time>2012-06-22T11:47:42Z</time>
      </trkpt>
      <trkpt lat="46.36086" lon="-0.65858">
        <ele>53</ele>
        <time>2012-06-22T11:47:47Z</time>
      </trkpt>
      <trkpt lat="46.36088" lon="-0.65849">
        <ele>53</ele>
        <time>2012-06-22T11:47:52Z</time>
      </trkpt>
      <trkpt lat="46.36091" lon="-0.65842">
        <ele>54</ele>
        <time>2012-06-22T11:47:57Z</time>
      </trkpt>
      <trkpt lat="46.36092" lon="-0.65836">
        <ele>54</ele>
        <time>2012-06-22T11:48:02Z</time>
      </trkpt>
      <trkpt lat="46.36095" lon="-0.65829">
        <ele>55</ele>
        <time>2012-06-22T11:48:07Z</time>
      </trkpt>
      <trkpt lat="46.36097" lon="-0.65821">
        <ele>55</ele>
        <time>2012-06-22T11:48:12Z</time>
      </trkpt>
      <trkpt lat="46.36098" lon="-0.65816">
        <ele>55</ele>
        <time>2012-06-22T11:48:17Z</time>
      </trkpt>
      <trkpt lat="46.36101" lon="-0.65809">
        <ele>56</ele>
        <time>2012-06-22T11:48:22Z</time>
      </trkpt>
      <trkpt lat="46.36102" lon="-0.658">
        <ele>56</ele>
        <time>2012-06-22T11:48:27Z</time>
      </trkpt>
      <trkpt lat="46.36105" lon="-0.65789">
        <ele>56</ele>
        <time>2012-06-22T11:48:32Z</time>
      </trkpt>
      <trkpt lat="46.36109" lon="-0.65781">
        <ele>54</ele>
        <time>2012-06-22T11:48:37Z</time>
      </trkpt>
      <trkpt lat="46.36113" lon="-0.65776">
        <ele>56</ele>
        <time>2012-06-22T11:48:42Z</time>
      </trkpt>
      <trkpt lat="46.36115" lon="-0.6577">
        <ele>56</ele>
        <time>2012-06-22T11:48:47Z</time>
      </trkpt>
      <trkpt lat="46.36117" lon="-0.65763">
        <ele>56</ele>
        <time>2012-06-22T11:48:52Z</time>
      </trkpt>
      <trkpt lat="46.36119" lon="-0.65755">
        <ele>56</ele>
        <time>2012-06-22T11:48:57Z</time>
      </trkpt>
      <trkpt lat="46.3612" lon="-0.65748">
        <ele>55</ele>
        <time>2012-06-22T11:49:02Z</time>
      </trkpt>
      <trkpt lat="46.36122" lon="-0.6574">
        <ele>55</ele>
        <time>2012-06-22T11:49:07Z</time>
      </trkpt>
      <trkpt lat="46.36124" lon="-0.65734">
        <ele>54</ele>
        <time>2012-06-22T11:49:12Z</time>
      </trkpt>
      <trkpt lat="46.36126" lon="-0.65726">
        <ele>55</ele>
        <time>2012-06-22T11:49:17Z</time>
      </trkpt>
      <trkpt lat="46.36129" lon="-0.65718">
        <ele>56</ele>
        <time>2012-06-22T11:49:22Z</time>
      </trkpt>
      <trkpt lat="46.36132" lon="-0.65711">
        <ele>57</ele>
        <time>2012-06-22T11:49:27Z</time>
      </trkpt>
      <trkpt lat="46.36136" lon="-0.65704">
        <ele>58</ele>
        <time>2012-06-22T11:49:32Z</time>
      </trkpt>
      <trkpt lat="46.36136" lon="-0.65697">
        <ele>58</ele>
        <time>2012-06-22T11:49:37Z</time>
      </trkpt>
      <trkpt lat="46.36137" lon="-0.65689">
        <ele>57</ele>
        <time>2012-06-22T11:49:42Z</time>
      </trkpt>
      <trkpt lat="46.36138" lon="-0.65683">
        <ele>58</ele>
        <time>2012-06-22T11:49:47Z</time>
      </trkpt>
      <trkpt lat="46.36141" lon="-0.65675">
        <ele>59</ele>
        <time>2012-06-22T11:49:52Z</time>
      </trkpt>
      <trkpt lat="46.36146" lon="-0.65667">
        <ele>58</ele>
        <time>2012-06-22T11:49:57Z</time>
      </trkpt>
      <trkpt lat="46.36149" lon="-0.65659">
        <ele>59</ele>
        <time>2012-06-22T11:50:02Z</time>
      </trkpt>
      <trkpt lat="46.36151" lon="-0.65653">
        <ele>60</ele>
        <time>2012-06-22T11:50:07Z</time>
      </trkpt>
      <trkpt lat="46.36149" lon="-0.65644">
        <ele>55</ele>
        <time>2012-06-22T11:50:12Z</time>
      </trkpt>
      <trkpt lat="46.36151" lon="-0.65638">
        <ele>58</ele>
        <time>2012-06-22T11:50:17Z</time>
      </trkpt>
      <trkpt lat="46.36154" lon="-0.65631">
        <ele>58</ele>
        <time>2012-06-22T11:50:22Z</time>
      </trkpt>
      <trkpt lat="46.36156" lon="-0.65624">
        <ele>58</ele>
        <time>2012-06-22T11:50:27Z</time>
      </trkpt>
      <trkpt lat="46.36159" lon="-0.65616">
        <ele>59</ele>
        <time>2012-06-22T11:50:32Z</time>
      </trkpt>
      <trkpt lat="46.36162" lon="-0.65608">
        <ele>59</ele>
        <time>2012-06-22T11:50:37Z</time>
      </trkpt>
      <trkpt lat="46.36163" lon="-0.656">
        <ele>57</ele>
        <time>2012-06-22T11:50:42Z</time>
      </trkpt>
      <trkpt lat="46.36165" lon="-0.65593">
        <ele>55</ele>
        <time>2012-06-22T11:50:47Z</time>
      </trkpt>
      <trkpt lat="46.36169" lon="-0.65584">
        <ele>55</ele>
        <time>2012-06-22T11:50:52Z</time>
      </trkpt>
      <trkpt lat="46.3617" lon="-0.65578">
        <ele>56</ele>
        <time>2012-06-22T11:50:57Z</time>
      </trkpt>
      <trkpt lat="46.36171" lon="-0.65574">
        <ele>59</ele>
        <time>2012-06-22T11:51:02Z</time>
      </trkpt>
      <trkpt lat="46.36171" lon="-0.6557">
        <ele>56</ele>
        <time>2012-06-22T11:51:07Z</time>
      </trkpt>
      <trkpt lat="46.36173" lon="-0.65565">
        <ele>56</ele>
        <time>2012-06-22T11:51:12Z</time>
      </trkpt>
      <trkpt lat="46.36178" lon="-0.6556">
        <ele>55</ele>
        <time>2012-06-22T11:51:17Z</time>
      </trkpt>
      <trkpt lat="46.3618" lon="-0.65553">
        <ele>57</ele>
        <time>2012-06-22T11:51:22Z</time>
      </trkpt>
      <trkpt lat="46.3618" lon="-0.65545">
        <ele>57</ele>
        <time>2012-06-22T11:51:27Z</time>
      </trkpt>
      <trkpt lat="46.36181" lon="-0.65537">
        <ele>56</ele>
        <time>2012-06-22T11:51:32Z</time>
      </trkpt>
      <trkpt lat="46.36182" lon="-0.6553">
        <ele>56</ele>
        <time>2012-06-22T11:51:37Z</time>
      </trkpt>
      <trkpt lat="46.36184" lon="-0.65522">
        <ele>54</ele>
        <time>2012-06-22T11:51:42Z</time>
      </trkpt>
      <trkpt lat="46.36189" lon="-0.65515">
        <ele>55</ele>
        <time>2012-06-22T11:51:47Z</time>
      </trkpt>
      <trkpt lat="46.3619" lon="-0.65507">
        <ele>56</ele>
        <time>2012-06-22T11:51:52Z</time>
      </trkpt>
      <trkpt lat="46.36191" lon="-0.655">
        <ele>54</ele>
        <time>2012-06-22T11:51:57Z</time>
      </trkpt>
      <trkpt lat="46.36193" lon="-0.65493">
        <ele>54</ele>
        <time>2012-06-22T11:52:02Z</time>
      </trkpt>
      <trkpt lat="46.36195" lon="-0.65487">
        <ele>54</ele>
        <time>2012-06-22T11:52:07Z</time>
      </trkpt>
      <trkpt lat="46.36197" lon="-0.65481">
        <ele>55</ele>
        <time>2012-06-22T11:52:12Z</time>
      </trkpt>
      <trkpt lat="46.36203" lon="-0.65474">
        <ele>58</ele>
        <time>2012-06-22T11:52:17Z</time>
      </trkpt>
      <trkpt lat="46.36206" lon="-0.65468">
        <ele>59</ele>
        <time>2012-06-22T11:52:22Z</time>
      </trkpt>
      <trkpt lat="46.36206" lon="-0.65461">
        <ele>60</ele>
        <time>2012-06-22T11:52:27Z</time>
      </trkpt>
      <trkpt lat="46.36207" lon="-0.65453">
        <ele>60</ele>
        <time>2012-06-22T11:52:32Z</time>
      </trkpt>
      <trkpt lat="46.36207" lon="-0.65444">
        <ele>60</ele>
        <time>2012-06-22T11:52:37Z</time>
      </trkpt>
      <trkpt lat="46.36208" lon="-0.65436">
        <ele>59</ele>
        <time>2012-06-22T11:52:42Z</time>
      </trkpt>
      <trkpt lat="46.36208" lon="-0.65429">
        <ele>58</ele>
        <time>2012-06-22T11:52:47Z</time>
      </trkpt>
      <trkpt lat="46.36208" lon="-0.65421">
        <ele>57</ele>
        <time>2012-06-22T11:52:52Z</time>
      </trkpt>
      <trkpt lat="46.36211" lon="-0.65414">
        <ele>58</ele>
        <time>2012-06-22T11:52:57Z</time>
      </trkpt>
      <trkpt lat="46.36212" lon="-0.65406">
        <ele>59</ele>
        <time>2012-06-22T11:53:02Z</time>
      </trkpt>
      <trkpt lat="46.36212" lon="-0.65398">
        <ele>57</ele>
        <time>2012-06-22T11:53:07Z</time>
      </trkpt>
      <trkpt lat="46.36211" lon="-0.65389">
        <ele>57</ele>
        <time>2012-06-22T11:53:12Z</time>
      </trkpt>
      <trkpt lat="46.36214" lon="-0.65382">
        <ele>57</ele>
        <time>2012-06-22T11:53:17Z</time>
      </trkpt>
      <trkpt lat="46.36217" lon="-0.65372">
        <ele>57</ele>
        <time>2012-06-22T11:53:22Z</time>
      </trkpt>
      <trkpt lat="46.36218" lon="-0.65365">
        <ele>57</ele>
        <time>2012-06-22T11:53:27Z</time>
      </trkpt>
      <trkpt lat="46.36219" lon="-0.6536">
        <ele>58</ele>
        <time>2012-06-22T11:53:32Z</time>
      </trkpt>
      <trkpt lat="46.36221" lon="-0.65352">
        <ele>57</ele>
        <time>2012-06-22T11:53:37Z</time>
      </trkpt>
      <trkpt lat="46.36221" lon="-0.65346">
        <ele>56</ele>
        <time>2012-06-22T11:53:42Z</time>
      </trkpt>
      <trkpt lat="46.36223" lon="-0.65335">
        <ele>56</ele>
        <time>2012-06-22T11:53:47Z</time>
      </trkpt>
      <trkpt lat="46.36226" lon="-0.65327">
        <ele>56</ele>
        <time>2012-06-22T11:53:52Z</time>
      </trkpt>
      <trkpt lat="46.36227" lon="-0.65319">
        <ele>56</ele>
        <time>2012-06-22T11:53:57Z</time>
      </trkpt>
      <trkpt lat="46.36227" lon="-0.65314">
        <ele>56</ele>
        <time>2012-06-22T11:54:02Z</time>
      </trkpt>
      <trkpt lat="46.36227" lon="-0.65312">
        <ele>55</ele>
        <time>2012-06-22T11:54:07Z</time>
      </trkpt>
      <trkpt lat="46.36228" lon="-0.65309">
        <ele>54</ele>
        <time>2012-06-22T11:54:12Z</time>
      </trkpt>
      <trkpt lat="46.36228" lon="-0.65307">
        <ele>54</ele>
        <time>2012-06-22T11:54:17Z</time>
      </trkpt>
      <trkpt lat="46.36228" lon="-0.65306">
        <ele>54</ele>
        <time>2012-06-22T11:54:22Z</time>
      </trkpt>
      <trkpt lat="46.36227" lon="-0.65306">
        <ele>54</ele>
        <time>2012-06-22T11:54:27Z</time>
      </trkpt>
      <trkpt lat="46.36227" lon="-0.65306">
        <ele>54</ele>
        <time>2012-06-22T11:55:32Z</time>
      </trkpt>
      <trkpt lat="46.36228" lon="-0.65302">
        <ele>55</ele>
        <time>2012-06-22T11:55:57Z</time>
      </trkpt>
      <trkpt lat="46.36229" lon="-0.65296">
        <ele>54</ele>
        <time>2012-06-22T11:56:02Z</time>
      </trkpt>
      <trkpt lat="46.36229" lon="-0.65289">
        <ele>52</ele>
        <time>2012-06-22T11:56:07Z</time>
      </trkpt>
      <trkpt lat="46.3623" lon="-0.65282">
        <ele>55</ele>
        <time>2012-06-22T11:56:12Z</time>
      </trkpt>
      <trkpt lat="46.36232" lon="-0.65275">
        <ele>56</ele>
        <time>2012-06-22T11:56:17Z</time>
      </trkpt>
      <trkpt lat="46.36232" lon="-0.65267">
        <ele>56</ele>
        <time>2012-06-22T11:56:22Z</time>
      </trkpt>
      <trkpt lat="46.36234" lon="-0.65259">
        <ele>55</ele>
        <time>2012-06-22T11:56:27Z</time>
      </trkpt>
      <trkpt lat="46.36234" lon="-0.65251">
        <ele>52</ele>
        <time>2012-06-22T11:56:32Z</time>
      </trkpt>
      <trkpt lat="46.36236" lon="-0.65244">
        <ele>54</ele>
        <time>2012-06-22T11:56:37Z</time>
      </trkpt>
      <trkpt lat="46.36239" lon="-0.65239">
        <ele>54</ele>
        <time>2012-06-22T11:56:42Z</time>
      </trkpt>
      <trkpt lat="46.36239" lon="-0.65231">
        <ele>55</ele>
        <time>2012-06-22T11:56:47Z</time>
      </trkpt>
      <trkpt lat="46.36238" lon="-0.65222">
        <ele>54</ele>
        <time>2012-06-22T11:56:52Z</time>
      </trkpt>
      <trkpt lat="46.36237" lon="-0.65221">
        <ele>53</ele>
        <time>2012-06-22T11:56:57Z</time>
      </trkpt>
      <trkpt lat="46.36236" lon="-0.6522">
        <ele>52</ele>
        <time>2012-06-22T11:57:02Z</time>
      </trkpt>
      <trkpt lat="46.36237" lon="-0.6521">
        <ele>51</ele>
        <time>2012-06-22T11:57:07Z</time>
      </trkpt>
      <trkpt lat="46.36237" lon="-0.65202">
        <ele>50</ele>
        <time>2012-06-22T11:57:12Z</time>
      </trkpt>
      <trkpt lat="46.36237" lon="-0.65196">
        <ele>51</ele>
        <time>2012-06-22T11:57:17Z</time>
      </trkpt>
      <trkpt lat="46.36238" lon="-0.65188">
        <ele>50</ele>
        <time>2012-06-22T11:57:22Z</time>
      </trkpt>
      <trkpt lat="46.36239" lon="-0.65185">
        <ele>48</ele>
        <time>2012-06-22T11:57:27Z</time>
      </trkpt>
      <trkpt lat="46.36239" lon="-0.65183">
        <ele>48</ele>
        <time>2012-06-22T11:57:32Z</time>
      </trkpt>
      <trkpt lat="46.3624" lon="-0.65177">
        <ele>49</ele>
        <time>2012-06-22T11:57:37Z</time>
      </trkpt>
      <trkpt lat="46.36238" lon="-0.6517">
        <ele>48</ele>
        <time>2012-06-22T11:57:42Z</time>
      </trkpt>
      <trkpt lat="46.36239" lon="-0.65159">
        <ele>47</ele>
        <time>2012-06-22T11:57:47Z</time>
      </trkpt>
      <trkpt lat="46.3624" lon="-0.65152">
        <ele>43</ele>
        <time>2012-06-22T11:57:52Z</time>
      </trkpt>
      <trkpt lat="46.36241" lon="-0.65145">
        <ele>44</ele>
        <time>2012-06-22T11:57:57Z</time>
      </trkpt>
      <trkpt lat="46.36243" lon="-0.65135">
        <ele>46</ele>
        <time>2012-06-22T11:58:02Z</time>
      </trkpt>
      <trkpt lat="46.36244" lon="-0.65127">
        <ele>45</ele>
        <time>2012-06-22T11:58:07Z</time>
      </trkpt>
      <trkpt lat="46.36244" lon="-0.65116">
        <ele>46</ele>
        <time>2012-06-22T11:58:12Z</time>
      </trkpt>
      <trkpt lat="46.36245" lon="-0.65108">
        <ele>47</ele>
        <time>2012-06-22T11:58:17Z</time>
      </trkpt>
      <trkpt lat="46.36248" lon="-0.65099">
        <ele>48</ele>
        <time>2012-06-22T11:58:22Z</time>
      </trkpt>
      <trkpt lat="46.36249" lon="-0.65093">
        <ele>47</ele>
        <time>2012-06-22T11:58:27Z</time>
      </trkpt>
      <trkpt lat="46.3625" lon="-0.65086">
        <ele>49</ele>
        <time>2012-06-22T11:58:32Z</time>
      </trkpt>
      <trkpt lat="46.3625" lon="-0.6508">
        <ele>51</ele>
        <time>2012-06-22T11:58:37Z</time>
      </trkpt>
      <trkpt lat="46.3625" lon="-0.65073">
        <ele>53</ele>
        <time>2012-06-22T11:58:42Z</time>
      </trkpt>
      <trkpt lat="46.36248" lon="-0.65064">
        <ele>55</ele>
        <time>2012-06-22T11:58:47Z</time>
      </trkpt>
      <trkpt lat="46.36249" lon="-0.65054">
        <ele>57</ele>
        <time>2012-06-22T11:58:52Z</time>
      </trkpt>
      <trkpt lat="46.3625" lon="-0.65043">
        <ele>57</ele>
        <time>2012-06-22T11:58:57Z</time>
      </trkpt>
      <trkpt lat="46.36252" lon="-0.65037">
        <ele>58</ele>
        <time>2012-06-22T11:59:02Z</time>
      </trkpt>
      <trkpt lat="46.36255" lon="-0.65027">
        <ele>61</ele>
        <time>2012-06-22T11:59:07Z</time>
      </trkpt>
      <trkpt lat="46.36255" lon="-0.65021">
        <ele>59</ele>
        <time>2012-06-22T11:59:12Z</time>
      </trkpt>
      <trkpt lat="46.36256" lon="-0.65012">
        <ele>60</ele>
        <time>2012-06-22T11:59:17Z</time>
      </trkpt>
      <trkpt lat="46.36255" lon="-0.65006">
        <ele>60</ele>
        <time>2012-06-22T11:59:22Z</time>
      </trkpt>
      <trkpt lat="46.36255" lon="-0.64999">
        <ele>60</ele>
        <time>2012-06-22T11:59:27Z</time>
      </trkpt>
      <trkpt lat="46.36256" lon="-0.64993">
        <ele>60</ele>
        <time>2012-06-22T11:59:32Z</time>
      </trkpt>
      <trkpt lat="46.36257" lon="-0.6499">
        <ele>59</ele>
        <time>2012-06-22T11:59:37Z</time>
      </trkpt>
      <trkpt lat="46.36258" lon="-0.64986">
        <ele>60</ele>
        <time>2012-06-22T11:59:42Z</time>
      </trkpt>
      <trkpt lat="46.36258" lon="-0.64983">
        <ele>60</ele>
        <time>2012-06-22T11:59:47Z</time>
      </trkpt>
      <trkpt lat="46.36258" lon="-0.64981">
        <ele>61</ele>
        <time>2012-06-22T11:59:52Z</time>
      </trkpt>
      <trkpt lat="46.36258" lon="-0.6498">
        <ele>61</ele>
        <time>2012-06-22T11:59:57Z</time>
      </trkpt>
      <trkpt lat="46.36257" lon="-0.64978">
        <ele>60</ele>
        <time>2012-06-22T12:00:12Z</time>
      </trkpt>
      <trkpt lat="46.36255" lon="-0.64976">
        <ele>58</ele>
        <time>2012-06-22T12:00:17Z</time>
      </trkpt>
      <trkpt lat="46.36258" lon="-0.6497">
        <ele>60</ele>
        <time>2012-06-22T12:00:22Z</time>
      </trkpt>
      <trkpt lat="46.36261" lon="-0.64961">
        <ele>59</ele>
        <time>2012-06-22T12:00:27Z</time>
      </trkpt>
      <trkpt lat="46.36264" lon="-0.64954">
        <ele>59</ele>
        <time>2012-06-22T12:00:32Z</time>
      </trkpt>
      <trkpt lat="46.36266" lon="-0.64949">
        <ele>60</ele>
        <time>2012-06-22T12:00:37Z</time>
      </trkpt>
      <trkpt lat="46.36265" lon="-0.64943">
        <ele>60</ele>
        <time>2012-06-22T12:00:42Z</time>
      </trkpt>
      <trkpt lat="46.36265" lon="-0.64939">
        <ele>59</ele>
        <time>2012-06-22T12:00:47Z</time>
      </trkpt>
      <trkpt lat="46.36266" lon="-0.64933">
        <ele>58</ele>
        <time>2012-06-22T12:00:52Z</time>
      </trkpt>
      <trkpt lat="46.36265" lon="-0.64926">
        <ele>59</ele>
        <time>2012-06-22T12:00:57Z</time>
      </trkpt>
      <trkpt lat="46.36265" lon="-0.6492">
        <ele>58</ele>
        <time>2012-06-22T12:01:02Z</time>
      </trkpt>
      <trkpt lat="46.36266" lon="-0.64913">
        <ele>59</ele>
        <time>2012-06-22T12:01:07Z</time>
      </trkpt>
      <trkpt lat="46.36267" lon="-0.64906">
        <ele>60</ele>
        <time>2012-06-22T12:01:12Z</time>
      </trkpt>
      <trkpt lat="46.3627" lon="-0.64898">
        <ele>61</ele>
        <time>2012-06-22T12:01:17Z</time>
      </trkpt>
      <trkpt lat="46.3627" lon="-0.64889">
        <ele>62</ele>
        <time>2012-06-22T12:01:22Z</time>
      </trkpt>
      <trkpt lat="46.36271" lon="-0.64883">
        <ele>60</ele>
        <time>2012-06-22T12:01:27Z</time>
      </trkpt>
      <trkpt lat="46.36272" lon="-0.64877">
        <ele>59</ele>
        <time>2012-06-22T12:01:32Z</time>
      </trkpt>
      <trkpt lat="46.36274" lon="-0.6487">
        <ele>59</ele>
        <time>2012-06-22T12:01:37Z</time>
      </trkpt>
      <trkpt lat="46.36276" lon="-0.64862">
        <ele>62</ele>
        <time>2012-06-22T12:01:42Z</time>
      </trkpt>
      <trkpt lat="46.36278" lon="-0.64855">
        <ele>62</ele>
        <time>2012-06-22T12:01:47Z</time>
      </trkpt>
      <trkpt lat="46.36279" lon="-0.64847">
        <ele>60</ele>
        <time>2012-06-22T12:01:52Z</time>
      </trkpt>
      <trkpt lat="46.3628" lon="-0.64839">
        <ele>61</ele>
        <time>2012-06-22T12:01:57Z</time>
      </trkpt>
      <trkpt lat="46.36281" lon="-0.64832">
        <ele>61</ele>
        <time>2012-06-22T12:02:02Z</time>
      </trkpt>
      <trkpt lat="46.36284" lon="-0.64825">
        <ele>61</ele>
        <time>2012-06-22T12:02:07Z</time>
      </trkpt>
      <trkpt lat="46.36285" lon="-0.64818">
        <ele>61</ele>
        <time>2012-06-22T12:02:12Z</time>
      </trkpt>
      <trkpt lat="46.36287" lon="-0.6481">
        <ele>60</ele>
        <time>2012-06-22T12:02:17Z</time>
      </trkpt>
      <trkpt lat="46.36287" lon="-0.648">
        <ele>61</ele>
        <time>2012-06-22T12:02:22Z</time>
      </trkpt>
      <trkpt lat="46.36286" lon="-0.64792">
        <ele>58</ele>
        <time>2012-06-22T12:02:27Z</time>
      </trkpt>
      <trkpt lat="46.36286" lon="-0.64785">
        <ele>58</ele>
        <time>2012-06-22T12:02:32Z</time>
      </trkpt>
      <trkpt lat="46.36287" lon="-0.64777">
        <ele>58</ele>
        <time>2012-06-22T12:02:37Z</time>
      </trkpt>
      <trkpt lat="46.36287" lon="-0.64769">
        <ele>56</ele>
        <time>2012-06-22T12:02:42Z</time>
      </trkpt>
      <trkpt lat="46.36289" lon="-0.64762">
        <ele>55</ele>
        <time>2012-06-22T12:02:47Z</time>
      </trkpt>
      <trkpt lat="46.36289" lon="-0.64754">
        <ele>56</ele>
        <time>2012-06-22T12:02:52Z</time>
      </trkpt>
      <trkpt lat="46.36292" lon="-0.64747">
        <ele>58</ele>
        <time>2012-06-22T12:02:57Z</time>
      </trkpt>
      <trkpt lat="46.36293" lon="-0.64741">
        <ele>59</ele>
        <time>2012-06-22T12:03:02Z</time>
      </trkpt>
      <trkpt lat="46.36294" lon="-0.64734">
        <ele>59</ele>
        <time>2012-06-22T12:03:07Z</time>
      </trkpt>
      <trkpt lat="46.36293" lon="-0.64724">
        <ele>61</ele>
        <time>2012-06-22T12:03:12Z</time>
      </trkpt>
      <trkpt lat="46.36293" lon="-0.64717">
        <ele>61</ele>
        <time>2012-06-22T12:03:17Z</time>
      </trkpt>
      <trkpt lat="46.36294" lon="-0.6471">
        <ele>60</ele>
        <time>2012-06-22T12:03:22Z</time>
      </trkpt>
      <trkpt lat="46.36294" lon="-0.64709">
        <ele>60</ele>
        <time>2012-06-22T12:03:27Z</time>
      </trkpt>
      <trkpt lat="46.36294" lon="-0.64709">
        <ele>60</ele>
        <time>2012-06-22T12:03:32Z</time>
      </trkpt>
      <trkpt lat="46.36295" lon="-0.64704">
        <ele>59</ele>
        <time>2012-06-22T12:03:42Z</time>
      </trkpt>
      <trkpt lat="46.36295" lon="-0.64698">
        <ele>58</ele>
        <time>2012-06-22T12:03:47Z</time>
      </trkpt>
      <trkpt lat="46.36297" lon="-0.64692">
        <ele>58</ele>
        <time>2012-06-22T12:03:52Z</time>
      </trkpt>
      <trkpt lat="46.36298" lon="-0.64685">
        <ele>58</ele>
        <time>2012-06-22T12:03:57Z</time>
      </trkpt>
      <trkpt lat="46.363" lon="-0.64679">
        <ele>57</ele>
        <time>2012-06-22T12:04:02Z</time>
      </trkpt>
      <trkpt lat="46.363" lon="-0.64672">
        <ele>57</ele>
        <time>2012-06-22T12:04:07Z</time>
      </trkpt>
      <trkpt lat="46.36302" lon="-0.64665">
        <ele>57</ele>
        <time>2012-06-22T12:04:12Z</time>
      </trkpt>
      <trkpt lat="46.36302" lon="-0.64657">
        <ele>56</ele>
        <time>2012-06-22T12:04:17Z</time>
      </trkpt>
      <trkpt lat="46.36302" lon="-0.6465">
        <ele>54</ele>
        <time>2012-06-22T12:04:22Z</time>
      </trkpt>
      <trkpt lat="46.36303" lon="-0.64643">
        <ele>55</ele>
        <time>2012-06-22T12:04:27Z</time>
      </trkpt>
      <trkpt lat="46.36303" lon="-0.64637">
        <ele>56</ele>
        <time>2012-06-22T12:04:32Z</time>
      </trkpt>
      <trkpt lat="46.36304" lon="-0.64629">
        <ele>54</ele>
        <time>2012-06-22T12:04:37Z</time>
      </trkpt>
      <trkpt lat="46.36309" lon="-0.64617">
        <ele>52</ele>
        <time>2012-06-22T12:04:42Z</time>
      </trkpt>
      <trkpt lat="46.3631" lon="-0.64612">
        <ele>51</ele>
        <time>2012-06-22T12:04:47Z</time>
      </trkpt>
      <trkpt lat="46.36311" lon="-0.64604">
        <ele>50</ele>
        <time>2012-06-22T12:04:52Z</time>
      </trkpt>
      <trkpt lat="46.36314" lon="-0.64597">
        <ele>50</ele>
        <time>2012-06-22T12:04:57Z</time>
      </trkpt>
      <trkpt lat="46.36317" lon="-0.64591">
        <ele>55</ele>
        <time>2012-06-22T12:05:02Z</time>
      </trkpt>
      <trkpt lat="46.36316" lon="-0.64585">
        <ele>52</ele>
        <time>2012-06-22T12:05:07Z</time>
      </trkpt>
      <trkpt lat="46.36322" lon="-0.64578">
        <ele>55</ele>
        <time>2012-06-22T12:05:12Z</time>
      </trkpt>
      <trkpt lat="46.36325" lon="-0.64569">
        <ele>56</ele>
        <time>2012-06-22T12:05:17Z</time>
      </trkpt>
      <trkpt lat="46.36325" lon="-0.64562">
        <ele>56</ele>
        <time>2012-06-22T12:05:22Z</time>
      </trkpt>
      <trkpt lat="46.36326" lon="-0.64555">
        <ele>57</ele>
        <time>2012-06-22T12:05:27Z</time>
      </trkpt>
      <trkpt lat="46.36328" lon="-0.64548">
        <ele>55</ele>
        <time>2012-06-22T12:05:32Z</time>
      </trkpt>
      <trkpt lat="46.3633" lon="-0.64543">
        <ele>56</ele>
        <time>2012-06-22T12:05:37Z</time>
      </trkpt>
      <trkpt lat="46.36331" lon="-0.64536">
        <ele>56</ele>
        <time>2012-06-22T12:05:42Z</time>
      </trkpt>
      <trkpt lat="46.36333" lon="-0.64528">
        <ele>57</ele>
        <time>2012-06-22T12:05:47Z</time>
      </trkpt>
      <trkpt lat="46.36334" lon="-0.64519">
        <ele>57</ele>
        <time>2012-06-22T12:05:52Z</time>
      </trkpt>
      <trkpt lat="46.36337" lon="-0.64512">
        <ele>56</ele>
        <time>2012-06-22T12:05:57Z</time>
      </trkpt>
      <trkpt lat="46.36338" lon="-0.64503">
        <ele>56</ele>
        <time>2012-06-22T12:06:02Z</time>
      </trkpt>
      <trkpt lat="46.36339" lon="-0.64496">
        <ele>56</ele>
        <time>2012-06-22T12:06:07Z</time>
      </trkpt>
      <trkpt lat="46.3634" lon="-0.64488">
        <ele>54</ele>
        <time>2012-06-22T12:06:12Z</time>
      </trkpt>
      <trkpt lat="46.36343" lon="-0.64481">
        <ele>54</ele>
        <time>2012-06-22T12:06:17Z</time>
      </trkpt>
      <trkpt lat="46.36345" lon="-0.64474">
        <ele>53</ele>
        <time>2012-06-22T12:06:22Z</time>
      </trkpt>
      <trkpt lat="46.36346" lon="-0.64465">
        <ele>55</ele>
        <time>2012-06-22T12:06:27Z</time>
      </trkpt>
      <trkpt lat="46.3635" lon="-0.64459">
        <ele>56</ele>
        <time>2012-06-22T12:06:32Z</time>
      </trkpt>
      <trkpt lat="46.36352" lon="-0.64452">
        <ele>57</ele>
        <time>2012-06-22T12:06:37Z</time>
      </trkpt>
      <trkpt lat="46.36351" lon="-0.64443">
        <ele>56</ele>
        <time>2012-06-22T12:06:42Z</time>
      </trkpt>
      <trkpt lat="46.36353" lon="-0.64436">
        <ele>56</ele>
        <time>2012-06-22T12:06:47Z</time>
      </trkpt>
      <trkpt lat="46.36354" lon="-0.6443">
        <ele>54</ele>
        <time>2012-06-22T12:06:52Z</time>
      </trkpt>
      <trkpt lat="46.36356" lon="-0.64422">
        <ele>54</ele>
        <time>2012-06-22T12:06:57Z</time>
      </trkpt>
      <trkpt lat="46.36358" lon="-0.64415">
        <ele>55</ele>
        <time>2012-06-22T12:07:02Z</time>
      </trkpt>
      <trkpt lat="46.36361" lon="-0.64408">
        <ele>55</ele>
        <time>2012-06-22T12:07:07Z</time>
      </trkpt>
      <trkpt lat="46.36361" lon="-0.64401">
        <ele>57</ele>
        <time>2012-06-22T12:07:12Z</time>
      </trkpt>
      <trkpt lat="46.36364" lon="-0.64394">
        <ele>57</ele>
        <time>2012-06-22T12:07:17Z</time>
      </trkpt>
      <trkpt lat="46.36366" lon="-0.64386">
        <ele>56</ele>
        <time>2012-06-22T12:07:22Z</time>
      </trkpt>
      <trkpt lat="46.36366" lon="-0.64378">
        <ele>56</ele>
        <time>2012-06-22T12:07:27Z</time>
      </trkpt>
      <trkpt lat="46.36368" lon="-0.64371">
        <ele>57</ele>
        <time>2012-06-22T12:07:32Z</time>
      </trkpt>
      <trkpt lat="46.36369" lon="-0.64365">
        <ele>58</ele>
        <time>2012-06-22T12:07:37Z</time>
      </trkpt>
      <trkpt lat="46.3637" lon="-0.64359">
        <ele>55</ele>
        <time>2012-06-22T12:07:42Z</time>
      </trkpt>
      <trkpt lat="46.3637" lon="-0.6435">
        <ele>55</ele>
        <time>2012-06-22T12:07:47Z</time>
      </trkpt>
      <trkpt lat="46.3637" lon="-0.64341">
        <ele>53</ele>
        <time>2012-06-22T12:07:52Z</time>
      </trkpt>
      <trkpt lat="46.36369" lon="-0.64337">
        <ele>53</ele>
        <time>2012-06-22T12:07:57Z</time>
      </trkpt>
      <trkpt lat="46.36369" lon="-0.6433">
        <ele>50</ele>
        <time>2012-06-22T12:08:02Z</time>
      </trkpt>
      <trkpt lat="46.36369" lon="-0.64324">
        <ele>50</ele>
        <time>2012-06-22T12:08:07Z</time>
      </trkpt>
      <trkpt lat="46.36373" lon="-0.64315">
        <ele>48</ele>
        <time>2012-06-22T12:08:12Z</time>
      </trkpt>
      <trkpt lat="46.36373" lon="-0.64308">
        <ele>47</ele>
        <time>2012-06-22T12:08:17Z</time>
      </trkpt>
      <trkpt lat="46.36375" lon="-0.643">
        <ele>49</ele>
        <time>2012-06-22T12:08:22Z</time>
      </trkpt>
      <trkpt lat="46.36378" lon="-0.64293">
        <ele>48</ele>
        <time>2012-06-22T12:08:27Z</time>
      </trkpt>
      <trkpt lat="46.36379" lon="-0.64284">
        <ele>49</ele>
        <time>2012-06-22T12:08:32Z</time>
      </trkpt>
      <trkpt lat="46.3638" lon="-0.64276">
        <ele>49</ele>
        <time>2012-06-22T12:08:37Z</time>
      </trkpt>
      <trkpt lat="46.36381" lon="-0.64268">
        <ele>49</ele>
        <time>2012-06-22T12:08:42Z</time>
      </trkpt>
      <trkpt lat="46.36382" lon="-0.64261">
        <ele>51</ele>
        <time>2012-06-22T12:08:47Z</time>
      </trkpt>
      <trkpt lat="46.36383" lon="-0.64252">
        <ele>51</ele>
        <time>2012-06-22T12:08:52Z</time>
      </trkpt>
      <trkpt lat="46.36384" lon="-0.64244">
        <ele>51</ele>
        <time>2012-06-22T12:08:57Z</time>
      </trkpt>
      <trkpt lat="46.36386" lon="-0.64238">
        <ele>52</ele>
        <time>2012-06-22T12:09:02Z</time>
      </trkpt>
      <trkpt lat="46.36387" lon="-0.6423">
        <ele>52</ele>
        <time>2012-06-22T12:09:07Z</time>
      </trkpt>
      <trkpt lat="46.36389" lon="-0.64223">
        <ele>51</ele>
        <time>2012-06-22T12:09:12Z</time>
      </trkpt>
      <trkpt lat="46.36392" lon="-0.64217">
        <ele>52</ele>
        <time>2012-06-22T12:09:17Z</time>
      </trkpt>
      <trkpt lat="46.36395" lon="-0.64209">
        <ele>53</ele>
        <time>2012-06-22T12:09:22Z</time>
      </trkpt>
      <trkpt lat="46.36398" lon="-0.64201">
        <ele>54</ele>
        <time>2012-06-22T12:09:27Z</time>
      </trkpt>
      <trkpt lat="46.364" lon="-0.64193">
        <ele>54</ele>
        <time>2012-06-22T12:09:32Z</time>
      </trkpt>
      <trkpt lat="46.36402" lon="-0.64187">
        <ele>54</ele>
        <time>2012-06-22T12:09:37Z</time>
      </trkpt>
      <trkpt lat="46.36403" lon="-0.6418">
        <ele>53</ele>
        <time>2012-06-22T12:09:42Z</time>
      </trkpt>
      <trkpt lat="46.36403" lon="-0.64175">
        <ele>53</ele>
        <time>2012-06-22T12:09:47Z</time>
      </trkpt>
      <trkpt lat="46.36405" lon="-0.6417">
        <ele>53</ele>
        <time>2012-06-22T12:09:52Z</time>
      </trkpt>
      <trkpt lat="46.36406" lon="-0.64159">
        <ele>52</ele>
        <time>2012-06-22T12:09:57Z</time>
      </trkpt>
      <trkpt lat="46.36408" lon="-0.64154">
        <ele>53</ele>
        <time>2012-06-22T12:10:02Z</time>
      </trkpt>
      <trkpt lat="46.3641" lon="-0.64148">
        <ele>53</ele>
        <time>2012-06-22T12:10:07Z</time>
      </trkpt>
      <trkpt lat="46.36412" lon="-0.64142">
        <ele>53</ele>
        <time>2012-06-22T12:10:12Z</time>
      </trkpt>
      <trkpt lat="46.36413" lon="-0.64136">
        <ele>56</ele>
        <time>2012-06-22T12:10:17Z</time>
      </trkpt>
      <trkpt lat="46.36416" lon="-0.64131">
        <ele>57</ele>
        <time>2012-06-22T12:10:22Z</time>
      </trkpt>
      <trkpt lat="46.36419" lon="-0.64126">
        <ele>56</ele>
        <time>2012-06-22T12:10:27Z</time>
      </trkpt>
      <trkpt lat="46.36421" lon="-0.6412">
        <ele>57</ele>
        <time>2012-06-22T12:10:32Z</time>
      </trkpt>
      <trkpt lat="46.36423" lon="-0.64116">
        <ele>56</ele>
        <time>2012-06-22T12:10:37Z</time>
      </trkpt>
      <trkpt lat="46.36423" lon="-0.64116">
        <ele>56</ele>
        <time>2012-06-22T12:10:42Z</time>
      </trkpt>
      <trkpt lat="46.36425" lon="-0.64112">
        <ele>56</ele>
        <time>2012-06-22T12:10:47Z</time>
      </trkpt>
      <trkpt lat="46.36428" lon="-0.64106">
        <ele>56</ele>
        <time>2012-06-22T12:10:52Z</time>
      </trkpt>
      <trkpt lat="46.36431" lon="-0.641">
        <ele>55</ele>
        <time>2012-06-22T12:10:57Z</time>
      </trkpt>
      <trkpt lat="46.36433" lon="-0.64094">
        <ele>55</ele>
        <time>2012-06-22T12:11:02Z</time>
      </trkpt>
      <trkpt lat="46.36436" lon="-0.64087">
        <ele>55</ele>
        <time>2012-06-22T12:11:07Z</time>
      </trkpt>
      <trkpt lat="46.36439" lon="-0.64082">
        <ele>56</ele>
        <time>2012-06-22T12:11:12Z</time>
      </trkpt>
      <trkpt lat="46.36442" lon="-0.64076">
        <ele>57</ele>
        <time>2012-06-22T12:11:17Z</time>
      </trkpt>
      <trkpt lat="46.36446" lon="-0.64071">
        <ele>57</ele>
        <time>2012-06-22T12:11:22Z</time>
      </trkpt>
      <trkpt lat="46.36449" lon="-0.64065">
        <ele>55</ele>
        <time>2012-06-22T12:11:27Z</time>
      </trkpt>
      <trkpt lat="46.36451" lon="-0.64061">
        <ele>55</ele>
        <time>2012-06-22T12:11:32Z</time>
      </trkpt>
      <trkpt lat="46.36454" lon="-0.64058">
        <ele>56</ele>
        <time>2012-06-22T12:11:37Z</time>
      </trkpt>
      <trkpt lat="46.36455" lon="-0.64055">
        <ele>54</ele>
        <time>2012-06-22T12:11:47Z</time>
      </trkpt>
      <trkpt lat="46.36458" lon="-0.64051">
        <ele>53</ele>
        <time>2012-06-22T12:11:52Z</time>
      </trkpt>
      <trkpt lat="46.3646" lon="-0.64047">
        <ele>53</ele>
        <time>2012-06-22T12:11:57Z</time>
      </trkpt>
      <trkpt lat="46.36463" lon="-0.64043">
        <ele>53</ele>
        <time>2012-06-22T12:12:02Z</time>
      </trkpt>
      <trkpt lat="46.36465" lon="-0.6404">
        <ele>53</ele>
        <time>2012-06-22T12:12:07Z</time>
      </trkpt>
      <trkpt lat="46.36467" lon="-0.64035">
        <ele>55</ele>
        <time>2012-06-22T12:12:17Z</time>
      </trkpt>
      <trkpt lat="46.36469" lon="-0.6403">
        <ele>55</ele>
        <time>2012-06-22T12:12:22Z</time>
      </trkpt>
    </trkseg>
  </trk>
</gpx>